Wetterdaten: Sonntag, 20.10.2019
Datum Zeit Temp. A. Feuchte A. Luftdruck Regen Wind Richtung Richtung Sonnenschein ET UV Solar Taupunkt Windchill Windböen
20.10.2019 00:00 6,7 °C 95 % 1008,1 hPa 0,0 mm 0,0 km/h (0 Bft) W 269 ° 0 min 0,000 mm 0,0 UV-I 0 W/m² 6,0 °C 6,7 °C 0,0 km/h (0 Bft)
20.10.2019 00:01 6,8 °C 95 % 1008,2 hPa 0,0 mm 0,0 km/h (0 Bft) W 269 ° 0 min 0,000 mm 0,0 UV-I 0 W/m² 6,1 °C 6,8 °C 0,0 km/h (0 Bft)
20.10.2019 00:02 6,9 °C 95 % 1008,2 hPa 0,0 mm 0,0 km/h (0 Bft) W 269 ° 0 min 0,000 mm 0,0 UV-I 0 W/m² 6,2 °C 6,9 °C 0,0 km/h (0 Bft)
20.10.2019 00:03 7,1 °C 96 % 1008,2 hPa 0,0 mm 0,0 km/h (0 Bft) W 269 ° 0 min 0,000 mm 0,0 UV-I 0 W/m² 6,5 °C 7,1 °C 0,0 km/h (0 Bft)
20.10.2019 00:04 7,2 °C 96 % 1008,2 hPa 0,0 mm 0,0 km/h (0 Bft) W 269 ° 0 min 0,000 mm 0,0 UV-I 0 W/m² 6,6 °C 7,2 °C 0,0 km/h (0 Bft)
20.10.2019 00:05 7,1 °C 96 % 1008,3 hPa 0,0 mm 0,0 km/h (0 Bft) W 269 ° 0 min 0,000 mm 0,0 UV-I 0 W/m² 6,5 °C 7,1 °C 0,0 km/h (0 Bft)
20.10.2019 00:06 7,0 °C 95 % 1008,2 hPa 0,0 mm 0,0 km/h (0 Bft) W 269 ° 0 min 0,000 mm 0,0 UV-I 0 W/m² 6,3 °C 7,0 °C 0,0 km/h (0 Bft)
20.10.2019 00:07 6,9 °C 95 % 1008,2 hPa 0,0 mm 0,0 km/h (0 Bft) W 269 ° 0 min 0,000 mm 0,0 UV-I 0 W/m² 6,2 °C 6,9 °C 0,0 km/h (0 Bft)
20.10.2019 00:08 6,9 °C 95 % 1008,2 hPa 0,0 mm 0,0 km/h (0 Bft) W 269 ° 0 min 0,000 mm 0,0 UV-I 0 W/m² 6,2 °C 6,9 °C 0,0 km/h (0 Bft)
20.10.2019 00:09 7,2 °C 95 % 1008,1 hPa 0,0 mm 0,0 km/h (0 Bft) W 269 ° 0 min 0,000 mm 0,0 UV-I 0 W/m² 6,5 °C 7,2 °C 0,0 km/h (0 Bft)
20.10.2019 00:10 7,3 °C 96 % 1008,1 hPa 0,0 mm 0,0 km/h (0 Bft) W 269 ° 0 min 0,000 mm 0,0 UV-I 0 W/m² 6,7 °C 7,3 °C 0,0 km/h (0 Bft)
20.10.2019 00:11 7,7 °C 96 % 1008,1 hPa 0,0 mm 0,0 km/h (0 Bft) W 269 ° 0 min 0,000 mm 0,0 UV-I 0 W/m² 7,1 °C 7,7 °C 0,0 km/h (0 Bft)
20.10.2019 00:12 7,9 °C 96 % 1008,1 hPa 0,0 mm 0,0 km/h (0 Bft) W 269 ° 0 min 0,000 mm 0,0 UV-I 0 W/m² 7,3 °C 7,9 °C 0,0 km/h (0 Bft)
20.10.2019 00:13 7,9 °C 96 % 1008,1 hPa 0,0 mm 0,0 km/h (0 Bft) W 269 ° 0 min 0,000 mm 0,0 UV-I 0 W/m² 7,3 °C 7,9 °C 0,0 km/h (0 Bft)
20.10.2019 00:14 8,0 °C 96 % 1008,1 hPa 0,0 mm 0,0 km/h (0 Bft) W 269 ° 0 min 0,000 mm 0,0 UV-I 0 W/m² 7,4 °C 8,0 °C 0,0 km/h (0 Bft)
20.10.2019 00:15 8,1 °C 96 % 1008,1 hPa 0,0 mm 0,0 km/h (0 Bft) W 269 ° 0 min 0,000 mm 0,0 UV-I 0 W/m² 7,5 °C 8,1 °C 0,0 km/h (0 Bft)
20.10.2019 00:16 8,1 °C 96 % 1008,0 hPa 0,0 mm 0,0 km/h (0 Bft) W 269 ° 0 min 0,000 mm 0,0 UV-I 0 W/m² 7,5 °C 8,1 °C 0,0 km/h (0 Bft)
20.10.2019 00:17 8,1 °C 96 % 1008,0 hPa 0,0 mm 0,0 km/h (0 Bft) W 269 ° 0 min 0,000 mm 0,0 UV-I 0 W/m² 7,5 °C 8,1 °C 0,0 km/h (0 Bft)
20.10.2019 00:18 7,8 °C 95 % 1008,0 hPa 0,0 mm 0,0 km/h (0 Bft) W 269 ° 0 min 0,000 mm 0,0 UV-I 0 W/m² 7,0 °C 7,8 °C 0,0 km/h (0 Bft)
20.10.2019 00:19 7,6 °C 94 % 1008,0 hPa 0,0 mm 0,0 km/h (0 Bft) W 269 ° 0 min 0,000 mm 0,0 UV-I 0 W/m² 6,7 °C 7,6 °C 0,0 km/h (0 Bft)
20.10.2019 00:20 7,4 °C 94 % 1008,1 hPa 0,0 mm 1,1 km/h (1 Bft) W 269 ° 0 min 0,000 mm 0,0 UV-I 0 W/m² 6,5 °C 7,4 °C 3,2 km/h (1 Bft)
20.10.2019 00:21 7,2 °C 94 % 1008,0 hPa 0,0 mm 1,3 km/h (1 Bft) W 269 ° 0 min 0,000 mm 0,0 UV-I 0 W/m² 6,3 °C 7,2 °C 3,2 km/h (1 Bft)
20.10.2019 00:22 7,1 °C 94 % 1008,1 hPa 0,0 mm 0,1 km/h (0 Bft) W 269 ° 0 min 0,000 mm 0,0 UV-I 0 W/m² 6,2 °C 7,1 °C 1,6 km/h (1 Bft)
20.10.2019 00:23 6,9 °C 94 % 1008,1 hPa 0,0 mm 0,0 km/h (0 Bft) W 269 ° 0 min 0,000 mm 0,0 UV-I 0 W/m² 6,0 °C 6,9 °C 0,0 km/h (0 Bft)
20.10.2019 00:24 6,8 °C 94 % 1008,1 hPa 0,0 mm 0,0 km/h (0 Bft) W 269 ° 0 min 0,000 mm 0,0 UV-I 0 W/m² 5,9 °C 6,8 °C 0,0 km/h (0 Bft)
20.10.2019 00:25 6,7 °C 94 % 1008,1 hPa 0,0 mm 0,0 km/h (0 Bft) W 269 ° 0 min 0,000 mm 0,0 UV-I 0 W/m² 5,8 °C 6,7 °C 0,0 km/h (0 Bft)
20.10.2019 00:26 6,7 °C 94 % 1008,1 hPa 0,0 mm 0,0 km/h (0 Bft) W 269 ° 0 min 0,000 mm 0,0 UV-I 0 W/m² 5,8 °C 6,7 °C 0,0 km/h (0 Bft)
20.10.2019 00:27 6,6 °C 94 % 1008,1 hPa 0,0 mm 0,0 km/h (0 Bft) W 269 ° 0 min 0,000 mm 0,0 UV-I 0 W/m² 5,7 °C 6,6 °C 0,0 km/h (0 Bft)
20.10.2019 00:28 6,6 °C 95 % 1008,1 hPa 0,0 mm 0,4 km/h (0 Bft) W 269 ° 0 min 0,000 mm 0,0 UV-I 0 W/m² 5,9 °C 6,6 °C 1,6 km/h (1 Bft)
20.10.2019 00:29 6,6 °C 95 % 1008,2 hPa 0,0 mm 0,0 km/h (0 Bft) W 269 ° 0 min 0,000 mm 0,0 UV-I 0 W/m² 5,9 °C 6,6 °C 0,0 km/h (0 Bft)
20.10.2019 00:30 6,6 °C 95 % 1008,2 hPa 0,0 mm 0,0 km/h (0 Bft) W 269 ° 0 min 0,000 mm 0,0 UV-I 0 W/m² 5,9 °C 6,6 °C 0,0 km/h (0 Bft)
20.10.2019 00:31 6,6 °C 95 % 1008,2 hPa 0,0 mm 0,0 km/h (0 Bft) W 269 ° 0 min 0,000 mm 0,0 UV-I 0 W/m² 5,9 °C 6,6 °C 0,0 km/h (0 Bft)
20.10.2019 00:32 6,7 °C 95 % 1008,2 hPa 0,0 mm 0,0 km/h (0 Bft) W 269 ° 0 min 0,000 mm 0,0 UV-I 0 W/m² 6,0 °C 6,7 °C 0,0 km/h (0 Bft)
20.10.2019 00:33 6,7 °C 95 % 1008,2 hPa 0,0 mm 0,0 km/h (0 Bft) W 269 ° 0 min 0,000 mm 0,0 UV-I 0 W/m² 6,0 °C 6,7 °C 0,0 km/h (0 Bft)
20.10.2019 00:34 6,7 °C 95 % 1008,1 hPa 0,0 mm 0,0 km/h (0 Bft) W 269 ° 0 min 0,000 mm 0,0 UV-I 0 W/m² 6,0 °C 6,7 °C 0,0 km/h (0 Bft)
20.10.2019 00:35 6,8 °C 95 % 1008,1 hPa 0,0 mm 0,0 km/h (0 Bft) W 269 ° 0 min 0,000 mm 0,0 UV-I 0 W/m² 6,1 °C 6,8 °C 0,0 km/h (0 Bft)
20.10.2019 00:36 6,8 °C 95 % 1008,2 hPa 0,0 mm 0,0 km/h (0 Bft) W 269 ° 0 min 0,000 mm 0,0 UV-I 0 W/m² 6,1 °C 6,8 °C 0,0 km/h (0 Bft)
20.10.2019 00:37 6,8 °C 95 % 1008,2 hPa 0,0 mm 0,0 km/h (0 Bft) W 269 ° 0 min 0,000 mm 0,0 UV-I 0 W/m² 6,1 °C 6,8 °C 0,0 km/h (0 Bft)
20.10.2019 00:38 6,8 °C 95 % 1008,2 hPa 0,0 mm 0,7 km/h (0 Bft) W 269 ° 0 min 0,000 mm 0,0 UV-I 0 W/m² 6,1 °C 6,8 °C 3,2 km/h (1 Bft)
20.10.2019 00:39 6,8 °C 95 % 1008,2 hPa 0,0 mm 3,0 km/h (1 Bft) W 269 ° 0 min 0,000 mm 0,0 UV-I 0 W/m² 6,1 °C 6,8 °C 3,2 km/h (1 Bft)
20.10.2019 00:40 6,8 °C 95 % 1008,3 hPa 0,0 mm 0,5 km/h (0 Bft) W 269 ° 0 min 0,000 mm 0,0 UV-I 0 W/m² 6,1 °C 6,8 °C 3,2 km/h (1 Bft)
20.10.2019 00:41 6,8 °C 95 % 1008,3 hPa 0,0 mm 0,0 km/h (0 Bft) W 269 ° 0 min 0,000 mm 0,0 UV-I 0 W/m² 6,1 °C 6,8 °C 0,0 km/h (0 Bft)
20.10.2019 00:42 6,7 °C 94 % 1008,3 hPa 0,0 mm 0,0 km/h (0 Bft) W 269 ° 0 min 0,000 mm 0,0 UV-I 0 W/m² 5,8 °C 6,7 °C 0,0 km/h (0 Bft)
20.10.2019 00:43 6,7 °C 94 % 1008,2 hPa 0,0 mm 0,5 km/h (0 Bft) W 269 ° 0 min 0,000 mm 0,0 UV-I 0 W/m² 5,8 °C 6,7 °C 1,6 km/h (1 Bft)
20.10.2019 00:44 6,7 °C 95 % 1008,2 hPa 0,0 mm 0,0 km/h (0 Bft) W 269 ° 0 min 0,000 mm 0,0 UV-I 0 W/m² 6,0 °C 6,7 °C 0,0 km/h (0 Bft)
20.10.2019 00:45 6,7 °C 94 % 1008,2 hPa 0,0 mm 0,0 km/h (0 Bft) W 269 ° 0 min 0,000 mm 0,0 UV-I 0 W/m² 5,8 °C 6,7 °C 0,0 km/h (0 Bft)
20.10.2019 00:46 6,7 °C 95 % 1008,2 hPa 0,0 mm 0,0 km/h (0 Bft) W 269 ° 0 min 0,000 mm 0,0 UV-I 0 W/m² 6,0 °C 6,7 °C 0,0 km/h (0 Bft)
20.10.2019 00:47 6,7 °C 95 % 1008,2 hPa 0,0 mm 0,0 km/h (0 Bft) W 269 ° 0 min 0,000 mm 0,0 UV-I 0 W/m² 6,0 °C 6,7 °C 0,0 km/h (0 Bft)
20.10.2019 00:48 6,8 °C 95 % 1008,2 hPa 0,0 mm 0,0 km/h (0 Bft) W 269 ° 0 min 0,000 mm 0,0 UV-I 0 W/m² 6,1 °C 6,8 °C 0,0 km/h (0 Bft)
20.10.2019 00:49 6,8 °C 95 % 1008,3 hPa 0,0 mm 0,0 km/h (0 Bft) W 269 ° 0 min 0,000 mm 0,0 UV-I 0 W/m² 6,1 °C 6,8 °C 0,0 km/h (0 Bft)
20.10.2019 00:50 6,8 °C 95 % 1008,3 hPa 0,0 mm 0,0 km/h (0 Bft) W 269 ° 0 min 0,000 mm 0,0 UV-I 0 W/m² 6,1 °C 6,8 °C 0,0 km/h (0 Bft)
20.10.2019 00:51 6,9 °C 95 % 1008,3 hPa 0,0 mm 0,0 km/h (0 Bft) W 269 ° 0 min 0,000 mm 0,0 UV-I 0 W/m² 6,2 °C 6,9 °C 0,0 km/h (0 Bft)
20.10.2019 00:52 6,9 °C 95 % 1008,3 hPa 0,0 mm 0,0 km/h (0 Bft) W 269 ° 0 min 0,000 mm 0,0 UV-I 0 W/m² 6,2 °C 6,9 °C 0,0 km/h (0 Bft)
20.10.2019 00:53 6,9 °C 95 % 1008,3 hPa 0,0 mm 0,0 km/h (0 Bft) W 269 ° 0 min 0,000 mm 0,0 UV-I 0 W/m² 6,2 °C 6,9 °C 0,0 km/h (0 Bft)
20.10.2019 00:54 6,9 °C 95 % 1008,3 hPa 0,0 mm 0,0 km/h (0 Bft) W 269 ° 0 min 0,000 mm 0,0 UV-I 0 W/m² 6,2 °C 6,9 °C 0,0 km/h (0 Bft)
20.10.2019 00:55 6,9 °C 95 % 1008,3 hPa 0,0 mm 0,0 km/h (0 Bft) W 269 ° 0 min 0,000 mm 0,0 UV-I 0 W/m² 6,2 °C 6,9 °C 0,0 km/h (0 Bft)
20.10.2019 00:56 7,0 °C 95 % 1008,3 hPa 0,0 mm 0,0 km/h (0 Bft) W 269 ° 0 min 0,000 mm 0,0 UV-I 0 W/m² 6,3 °C 7,0 °C 0,0 km/h (0 Bft)
20.10.2019 00:57 7,1 °C 95 % 1008,3 hPa 0,0 mm 0,0 km/h (0 Bft) W 269 ° 0 min 0,000 mm 0,0 UV-I 0 W/m² 6,4 °C 7,1 °C 0,0 km/h (0 Bft)
20.10.2019 00:58 7,1 °C 95 % 1008,3 hPa 0,0 mm 0,0 km/h (0 Bft) W 269 ° 0 min 0,000 mm 0,0 UV-I 0 W/m² 6,4 °C 7,1 °C 0,0 km/h (0 Bft)
20.10.2019 00:59 7,1 °C 95 % 1008,3 hPa 0,0 mm 0,0 km/h (0 Bft) W 269 ° 0 min 0,000 mm 0,0 UV-I 0 W/m² 6,4 °C 7,1 °C 0,0 km/h (0 Bft)
20.10.2019 01:00 7,1 °C 95 % 1008,3 hPa 0,0 mm 0,0 km/h (0 Bft) W 269 ° 0 min 0,000 mm 0,0 UV-I 0 W/m² 6,4 °C 7,1 °C 0,0 km/h (0 Bft)
20.10.2019 01:01 7,1 °C 95 % 1008,3 hPa 0,0 mm 0,0 km/h (0 Bft) W 269 ° 0 min 0,000 mm 0,0 UV-I 0 W/m² 6,4 °C 7,1 °C 0,0 km/h (0 Bft)
20.10.2019 01:02 7,0 °C 94 % 1008,3 hPa 0,0 mm 0,0 km/h (0 Bft) W 269 ° 0 min 0,000 mm 0,0 UV-I 0 W/m² 6,1 °C 7,0 °C 0,0 km/h (0 Bft)
20.10.2019 01:03 6,9 °C 94 % 1008,4 hPa 0,0 mm 0,0 km/h (0 Bft) W 269 ° 0 min 0,000 mm 0,0 UV-I 0 W/m² 6,0 °C 6,9 °C 0,0 km/h (0 Bft)
20.10.2019 01:04 6,9 °C 94 % 1008,4 hPa 0,0 mm 0,0 km/h (0 Bft) W 269 ° 0 min 0,000 mm 0,0 UV-I 0 W/m² 6,0 °C 6,9 °C 0,0 km/h (0 Bft)
20.10.2019 01:05 6,9 °C 94 % 1008,4 hPa 0,0 mm 0,0 km/h (0 Bft) W 269 ° 0 min 0,000 mm 0,0 UV-I 0 W/m² 6,0 °C 6,9 °C 0,0 km/h (0 Bft)
20.10.2019 01:06 6,9 °C 95 % 1008,5 hPa 0,0 mm 0,0 km/h (0 Bft) W 269 ° 0 min 0,000 mm 0,0 UV-I 0 W/m² 6,2 °C 6,9 °C 0,0 km/h (0 Bft)
20.10.2019 01:07 6,9 °C 95 % 1008,5 hPa 0,0 mm 0,0 km/h (0 Bft) W 269 ° 0 min 0,000 mm 0,0 UV-I 0 W/m² 6,2 °C 6,9 °C 0,0 km/h (0 Bft)
20.10.2019 01:08 6,9 °C 95 % 1008,5 hPa 0,0 mm 0,0 km/h (0 Bft) W 269 ° 0 min 0,000 mm 0,0 UV-I 0 W/m² 6,2 °C 6,9 °C 0,0 km/h (0 Bft)
20.10.2019 01:09 6,9 °C 95 % 1008,5 hPa 0,0 mm 0,0 km/h (0 Bft) W 269 ° 0 min 0,000 mm 0,0 UV-I 0 W/m² 6,2 °C 6,9 °C 0,0 km/h (0 Bft)
20.10.2019 01:10 6,9 °C 95 % 1008,5 hPa 0,0 mm 0,0 km/h (0 Bft) W 269 ° 0 min 0,000 mm 0,0 UV-I 0 W/m² 6,2 °C 6,9 °C 0,0 km/h (0 Bft)
20.10.2019 01:11 6,9 °C 95 % 1008,5 hPa 0,0 mm 0,0 km/h (0 Bft) W 269 ° 0 min 0,000 mm 0,0 UV-I 0 W/m² 6,2 °C 6,9 °C 0,0 km/h (0 Bft)
20.10.2019 01:12 7,0 °C 95 % 1008,4 hPa 0,0 mm 0,0 km/h (0 Bft) W 269 ° 0 min 0,000 mm 0,0 UV-I 0 W/m² 6,3 °C 7,0 °C 0,0 km/h (0 Bft)
20.10.2019 01:13 7,0 °C 95 % 1008,5 hPa 0,0 mm 0,0 km/h (0 Bft) W 269 ° 0 min 0,000 mm 0,0 UV-I 0 W/m² 6,3 °C 7,0 °C 0,0 km/h (0 Bft)
20.10.2019 01:14 7,0 °C 94 % 1008,5 hPa 0,0 mm 0,0 km/h (0 Bft) W 269 ° 0 min 0,000 mm 0,0 UV-I 0 W/m² 6,1 °C 7,0 °C 0,0 km/h (0 Bft)
20.10.2019 01:15 6,9 °C 94 % 1008,5 hPa 0,0 mm 0,0 km/h (0 Bft) W 269 ° 0 min 0,000 mm 0,0 UV-I 0 W/m² 6,0 °C 6,9 °C 0,0 km/h (0 Bft)
20.10.2019 01:16 7,0 °C 94 % 1008,6 hPa 0,0 mm 0,0 km/h (0 Bft) W 269 ° 0 min 0,000 mm 0,0 UV-I 0 W/m² 6,1 °C 7,0 °C 0,0 km/h (0 Bft)
20.10.2019 01:17 6,9 °C 94 % 1008,6 hPa 0,0 mm 0,0 km/h (0 Bft) W 269 ° 0 min 0,000 mm 0,0 UV-I 0 W/m² 6,0 °C 6,9 °C 0,0 km/h (0 Bft)
20.10.2019 01:18 6,9 °C 94 % 1008,6 hPa 0,0 mm 0,0 km/h (0 Bft) W 269 ° 0 min 0,000 mm 0,0 UV-I 0 W/m² 6,0 °C 6,9 °C 0,0 km/h (0 Bft)
20.10.2019 01:19 6,9 °C 94 % 1008,6 hPa 0,0 mm 0,0 km/h (0 Bft) W 269 ° 0 min 0,000 mm 0,0 UV-I 0 W/m² 6,0 °C 6,9 °C 0,0 km/h (0 Bft)
20.10.2019 01:20 6,9 °C 94 % 1008,6 hPa 0,0 mm 0,0 km/h (0 Bft) W 269 ° 0 min 0,000 mm 0,0 UV-I 0 W/m² 6,0 °C 6,9 °C 0,0 km/h (0 Bft)
20.10.2019 01:21 6,9 °C 94 % 1008,5 hPa 0,0 mm 0,0 km/h (0 Bft) W 269 ° 0 min 0,000 mm 0,0 UV-I 0 W/m² 6,0 °C 6,9 °C 0,0 km/h (0 Bft)
20.10.2019 01:22 6,9 °C 95 % 1008,6 hPa 0,0 mm 0,0 km/h (0 Bft) W 269 ° 0 min 0,000 mm 0,0 UV-I 0 W/m² 6,2 °C 6,9 °C 0,0 km/h (0 Bft)
20.10.2019 01:23 6,9 °C 94 % 1008,6 hPa 0,0 mm 0,0 km/h (0 Bft) W 269 ° 0 min 0,000 mm 0,0 UV-I 0 W/m² 6,0 °C 6,9 °C 0,0 km/h (0 Bft)
20.10.2019 01:24 6,8 °C 94 % 1008,6 hPa 0,0 mm 0,0 km/h (0 Bft) W 269 ° 0 min 0,000 mm 0,0 UV-I 0 W/m² 5,9 °C 6,8 °C 0,0 km/h (0 Bft)
20.10.2019 01:25 6,8 °C 94 % 1008,6 hPa 0,0 mm 0,0 km/h (0 Bft) W 269 ° 0 min 0,000 mm 0,0 UV-I 0 W/m² 5,9 °C 6,8 °C 0,0 km/h (0 Bft)
20.10.2019 01:26 6,7 °C 94 % 1008,6 hPa 0,0 mm 0,0 km/h (0 Bft) W 269 ° 0 min 0,000 mm 0,0 UV-I 0 W/m² 5,8 °C 6,7 °C 0,0 km/h (0 Bft)
20.10.2019 01:27 6,7 °C 94 % 1008,5 hPa 0,0 mm 0,0 km/h (0 Bft) W 269 ° 0 min 0,000 mm 0,0 UV-I 0 W/m² 5,8 °C 6,7 °C 0,0 km/h (0 Bft)
20.10.2019 01:28 6,6 °C 94 % 1008,6 hPa 0,0 mm 0,0 km/h (0 Bft) W 269 ° 0 min 0,000 mm 0,0 UV-I 0 W/m² 5,7 °C 6,6 °C 0,0 km/h (0 Bft)
20.10.2019 01:29 6,5 °C 94 % 1008,6 hPa 0,0 mm 0,0 km/h (0 Bft) W 269 ° 0 min 0,000 mm 0,0 UV-I 0 W/m² 5,6 °C 6,5 °C 0,0 km/h (0 Bft)
20.10.2019 01:30 6,4 °C 94 % 1008,6 hPa 0,0 mm 0,0 km/h (0 Bft) W 269 ° 0 min 0,000 mm 0,0 UV-I 0 W/m² 5,5 °C 6,4 °C 0,0 km/h (0 Bft)
20.10.2019 01:31 6,4 °C 94 % 1008,6 hPa 0,0 mm 0,0 km/h (0 Bft) W 269 ° 0 min 0,000 mm 0,0 UV-I 0 W/m² 5,5 °C 6,4 °C 0,0 km/h (0 Bft)
20.10.2019 01:32 6,5 °C 94 % 1008,6 hPa 0,0 mm 0,0 km/h (0 Bft) W 269 ° 0 min 0,000 mm 0,0 UV-I 0 W/m² 5,6 °C 6,5 °C 0,0 km/h (0 Bft)
20.10.2019 01:33 6,6 °C 95 % 1008,6 hPa 0,0 mm 0,0 km/h (0 Bft) W 269 ° 0 min 0,000 mm 0,0 UV-I 0 W/m² 5,9 °C 6,6 °C 0,0 km/h (0 Bft)
20.10.2019 01:34 6,6 °C 95 % 1008,6 hPa 0,0 mm 0,0 km/h (0 Bft) W 269 ° 0 min 0,000 mm 0,0 UV-I 0 W/m² 5,9 °C 6,6 °C 0,0 km/h (0 Bft)
20.10.2019 01:35 6,4 °C 94 % 1008,6 hPa 0,0 mm 0,0 km/h (0 Bft) W 269 ° 0 min 0,000 mm 0,0 UV-I 0 W/m² 5,5 °C 6,4 °C 0,0 km/h (0 Bft)
20.10.2019 01:36 6,4 °C 94 % 1008,6 hPa 0,0 mm 0,0 km/h (0 Bft) W 269 ° 0 min 0,000 mm 0,0 UV-I 0 W/m² 5,5 °C 6,4 °C 0,0 km/h (0 Bft)
20.10.2019 01:37 6,4 °C 94 % 1008,7 hPa 0,0 mm 0,0 km/h (0 Bft) W 269 ° 0 min 0,000 mm 0,0 UV-I 0 W/m² 5,5 °C 6,4 °C 0,0 km/h (0 Bft)
20.10.2019 01:38 6,4 °C 94 % 1008,7 hPa 0,0 mm 0,0 km/h (0 Bft) W 269 ° 0 min 0,000 mm 0,0 UV-I 0 W/m² 5,5 °C 6,4 °C 0,0 km/h (0 Bft)
20.10.2019 01:39 6,4 °C 94 % 1008,7 hPa 0,0 mm 0,0 km/h (0 Bft) W 269 ° 0 min 0,000 mm 0,0 UV-I 0 W/m² 5,5 °C 6,4 °C 0,0 km/h (0 Bft)
20.10.2019 01:40 6,3 °C 94 % 1008,7 hPa 0,0 mm 0,0 km/h (0 Bft) W 269 ° 0 min 0,000 mm 0,0 UV-I 0 W/m² 5,4 °C 6,3 °C 0,0 km/h (0 Bft)
20.10.2019 01:41 6,3 °C 94 % 1008,7 hPa 0,0 mm 0,0 km/h (0 Bft) W 269 ° 0 min 0,000 mm 0,0 UV-I 0 W/m² 5,4 °C 6,3 °C 0,0 km/h (0 Bft)
20.10.2019 01:42 6,2 °C 94 % 1008,7 hPa 0,0 mm 0,0 km/h (0 Bft) W 269 ° 0 min 0,000 mm 0,0 UV-I 0 W/m² 5,3 °C 6,2 °C 0,0 km/h (0 Bft)
20.10.2019 01:43 6,2 °C 94 % 1008,6 hPa 0,0 mm 0,0 km/h (0 Bft) W 269 ° 0 min 0,000 mm 0,0 UV-I 0 W/m² 5,3 °C 6,2 °C 0,0 km/h (0 Bft)
20.10.2019 01:44 6,4 °C 94 % 1008,6 hPa 0,0 mm 0,0 km/h (0 Bft) W 269 ° 0 min 0,000 mm 0,0 UV-I 0 W/m² 5,5 °C 6,4 °C 0,0 km/h (0 Bft)
20.10.2019 01:45 6,4 °C 95 % 1008,6 hPa 0,0 mm 0,0 km/h (0 Bft) W 269 ° 0 min 0,000 mm 0,0 UV-I 0 W/m² 5,7 °C 6,4 °C 0,0 km/h (0 Bft)
20.10.2019 01:46 6,5 °C 95 % 1008,6 hPa 0,0 mm 0,0 km/h (0 Bft) W 269 ° 0 min 0,000 mm 0,0 UV-I 0 W/m² 5,8 °C 6,5 °C 0,0 km/h (0 Bft)
20.10.2019 01:47 6,5 °C 95 % 1008,6 hPa 0,0 mm 0,0 km/h (0 Bft) W 269 ° 0 min 0,000 mm 0,0 UV-I 0 W/m² 5,8 °C 6,5 °C 0,0 km/h (0 Bft)
20.10.2019 01:48 6,5 °C 95 % 1008,7 hPa 0,0 mm 0,0 km/h (0 Bft) W 269 ° 0 min 0,000 mm 0,0 UV-I 0 W/m² 5,8 °C 6,5 °C 0,0 km/h (0 Bft)
20.10.2019 01:49 6,5 °C 94 % 1008,7 hPa 0,0 mm 0,0 km/h (0 Bft) W 269 ° 0 min 0,000 mm 0,0 UV-I 0 W/m² 5,6 °C 6,5 °C 0,0 km/h (0 Bft)
20.10.2019 01:50 6,5 °C 94 % 1008,7 hPa 0,0 mm 0,0 km/h (0 Bft) W 269 ° 0 min 0,000 mm 0,0 UV-I 0 W/m² 5,6 °C 6,5 °C 0,0 km/h (0 Bft)
20.10.2019 01:51 6,5 °C 94 % 1008,7 hPa 0,0 mm 0,0 km/h (0 Bft) W 269 ° 0 min 0,000 mm 0,0 UV-I 0 W/m² 5,6 °C 6,5 °C 0,0 km/h (0 Bft)
20.10.2019 01:52 6,5 °C 94 % 1008,7 hPa 0,0 mm 0,0 km/h (0 Bft) W 269 ° 0 min 0,000 mm 0,0 UV-I 0 W/m² 5,6 °C 6,5 °C 0,0 km/h (0 Bft)
20.10.2019 01:53 6,4 °C 94 % 1008,7 hPa 0,0 mm 0,0 km/h (0 Bft) W 269 ° 0 min 0,000 mm 0,0 UV-I 0 W/m² 5,5 °C 6,4 °C 0,0 km/h (0 Bft)
20.10.2019 01:54 6,3 °C 94 % 1008,7 hPa 0,0 mm 0,0 km/h (0 Bft) W 269 ° 0 min 0,000 mm 0,0 UV-I 0 W/m² 5,4 °C 6,3 °C 0,0 km/h (0 Bft)
20.10.2019 01:55 6,2 °C 94 % 1008,7 hPa 0,0 mm 0,0 km/h (0 Bft) W 269 ° 0 min 0,000 mm 0,0 UV-I 0 W/m² 5,3 °C 6,2 °C 0,0 km/h (0 Bft)
20.10.2019 01:56 6,2 °C 94 % 1008,7 hPa 0,0 mm 0,0 km/h (0 Bft) W 269 ° 0 min 0,000 mm 0,0 UV-I 0 W/m² 5,3 °C 6,2 °C 0,0 km/h (0 Bft)
20.10.2019 01:57 6,2 °C 94 % 1008,7 hPa 0,0 mm 0,0 km/h (0 Bft) W 269 ° 0 min 0,000 mm 0,0 UV-I 0 W/m² 5,3 °C 6,2 °C 0,0 km/h (0 Bft)
20.10.2019 01:58 6,1 °C 94 % 1008,7 hPa 0,0 mm 0,0 km/h (0 Bft) W 269 ° 0 min 0,000 mm 0,0 UV-I 0 W/m² 5,2 °C 6,1 °C 0,0 km/h (0 Bft)
20.10.2019 01:59 6,1 °C 94 % 1008,7 hPa 0,0 mm 0,0 km/h (0 Bft) W 269 ° 0 min 0,000 mm 0,0 UV-I 0 W/m² 5,2 °C 6,1 °C 0,0 km/h (0 Bft)
20.10.2019 02:00 6,0 °C 94 % 1008,7 hPa 0,0 mm 0,0 km/h (0 Bft) W 269 ° 0 min 0,000 mm 0,0 UV-I 0 W/m² 5,1 °C 6,0 °C 0,0 km/h (0 Bft)
20.10.2019 02:01 5,9 °C 94 % 1008,7 hPa 0,0 mm 0,0 km/h (0 Bft) W 269 ° 0 min 0,000 mm 0,0 UV-I 0 W/m² 5,0 °C 5,9 °C 0,0 km/h (0 Bft)
20.10.2019 02:02 5,8 °C 94 % 1008,7 hPa 0,0 mm 0,0 km/h (0 Bft) W 269 ° 0 min 0,000 mm 0,0 UV-I 0 W/m² 4,9 °C 5,8 °C 0,0 km/h (0 Bft)
20.10.2019 02:03 5,8 °C 94 % 1008,7 hPa 0,0 mm 0,0 km/h (0 Bft) W 269 ° 0 min 0,000 mm 0,0 UV-I 0 W/m² 4,9 °C 5,8 °C 0,0 km/h (0 Bft)
20.10.2019 02:04 5,7 °C 94 % 1008,7 hPa 0,0 mm 0,0 km/h (0 Bft) W 269 ° 0 min 0,000 mm 0,0 UV-I 0 W/m² 4,8 °C 5,7 °C 0,0 km/h (0 Bft)
20.10.2019 02:05 5,7 °C 94 % 1008,8 hPa 0,0 mm 0,0 km/h (0 Bft) W 269 ° 0 min 0,000 mm 0,0 UV-I 0 W/m² 4,8 °C 5,7 °C 0,0 km/h (0 Bft)
20.10.2019 02:06 5,8 °C 94 % 1008,7 hPa 0,0 mm 0,0 km/h (0 Bft) W 269 ° 0 min 0,000 mm 0,0 UV-I 0 W/m² 4,9 °C 5,8 °C 0,0 km/h (0 Bft)
20.10.2019 02:07 5,8 °C 95 % 1008,7 hPa 0,0 mm 0,0 km/h (0 Bft) W 269 ° 0 min 0,000 mm 0,0 UV-I 0 W/m² 5,1 °C 5,8 °C 0,0 km/h (0 Bft)
20.10.2019 02:08 5,8 °C 94 % 1008,8 hPa 0,0 mm 0,0 km/h (0 Bft) W 269 ° 0 min 0,000 mm 0,0 UV-I 0 W/m² 4,9 °C 5,8 °C 0,0 km/h (0 Bft)
20.10.2019 02:09 5,8 °C 94 % 1008,7 hPa 0,0 mm 0,0 km/h (0 Bft) W 269 ° 0 min 0,000 mm 0,0 UV-I 0 W/m² 4,9 °C 5,8 °C 0,0 km/h (0 Bft)
20.10.2019 02:10 5,7 °C 94 % 1008,7 hPa 0,0 mm 0,0 km/h (0 Bft) W 269 ° 0 min 0,000 mm 0,0 UV-I 0 W/m² 4,8 °C 5,7 °C 0,0 km/h (0 Bft)
20.10.2019 02:11 5,8 °C 94 % 1008,7 hPa 0,0 mm 0,0 km/h (0 Bft) W 269 ° 0 min 0,000 mm 0,0 UV-I 0 W/m² 4,9 °C 5,8 °C 0,0 km/h (0 Bft)
20.10.2019 02:12 5,9 °C 95 % 1008,7 hPa 0,0 mm 0,0 km/h (0 Bft) W 269 ° 0 min 0,000 mm 0,0 UV-I 0 W/m² 5,2 °C 5,9 °C 0,0 km/h (0 Bft)
20.10.2019 02:13 5,8 °C 94 % 1008,8 hPa 0,0 mm 0,0 km/h (0 Bft) W 269 ° 0 min 0,000 mm 0,0 UV-I 0 W/m² 4,9 °C 5,8 °C 0,0 km/h (0 Bft)
20.10.2019 02:14 5,8 °C 94 % 1008,7 hPa 0,0 mm 0,0 km/h (0 Bft) W 269 ° 0 min 0,000 mm 0,0 UV-I 0 W/m² 4,9 °C 5,8 °C 0,0 km/h (0 Bft)
20.10.2019 02:15 5,8 °C 94 % 1008,7 hPa 0,0 mm 0,0 km/h (0 Bft) W 269 ° 0 min 0,000 mm 0,0 UV-I 0 W/m² 4,9 °C 5,8 °C 0,0 km/h (0 Bft)
20.10.2019 02:16 5,8 °C 94 % 1008,7 hPa 0,0 mm 0,0 km/h (0 Bft) W 269 ° 0 min 0,000 mm 0,0 UV-I 0 W/m² 4,9 °C 5,8 °C 0,0 km/h (0 Bft)
20.10.2019 02:17 5,7 °C 94 % 1008,7 hPa 0,0 mm 0,0 km/h (0 Bft) W 269 ° 0 min 0,000 mm 0,0 UV-I 0 W/m² 4,8 °C 5,7 °C 0,0 km/h (0 Bft)
20.10.2019 02:18 5,6 °C 94 % 1008,7 hPa 0,0 mm 0,0 km/h (0 Bft) W 269 ° 0 min 0,000 mm 0,0 UV-I 0 W/m² 4,7 °C 5,6 °C 0,0 km/h (0 Bft)
20.10.2019 02:19 5,6 °C 94 % 1008,7 hPa 0,0 mm 0,0 km/h (0 Bft) W 269 ° 0 min 0,000 mm 0,0 UV-I 0 W/m² 4,7 °C 5,6 °C 0,0 km/h (0 Bft)
20.10.2019 02:20 5,6 °C 94 % 1008,8 hPa 0,0 mm 0,0 km/h (0 Bft) W 269 ° 0 min 0,000 mm 0,0 UV-I 0 W/m² 4,7 °C 5,6 °C 0,0 km/h (0 Bft)
20.10.2019 02:21 5,5 °C 94 % 1008,9 hPa 0,0 mm 0,0 km/h (0 Bft) W 269 ° 0 min 0,000 mm 0,0 UV-I 0 W/m² 4,6 °C 5,5 °C 0,0 km/h (0 Bft)
20.10.2019 02:22 5,6 °C 94 % 1008,8 hPa 0,0 mm 0,0 km/h (0 Bft) W 269 ° 0 min 0,000 mm 0,0 UV-I 0 W/m² 4,7 °C 5,6 °C 0,0 km/h (0 Bft)
20.10.2019 02:23 5,6 °C 94 % 1008,8 hPa 0,0 mm 0,0 km/h (0 Bft) W 269 ° 0 min 0,000 mm 0,0 UV-I 0 W/m² 4,7 °C 5,6 °C 0,0 km/h (0 Bft)
20.10.2019 02:24 5,6 °C 94 % 1008,7 hPa 0,0 mm 0,0 km/h (0 Bft) W 269 ° 0 min 0,000 mm 0,0 UV-I 0 W/m² 4,7 °C 5,6 °C 0,0 km/h (0 Bft)
20.10.2019 02:25 5,6 °C 94 % 1008,8 hPa 0,0 mm 0,0 km/h (0 Bft) W 269 ° 0 min 0,000 mm 0,0 UV-I 0 W/m² 4,7 °C 5,6 °C 0,0 km/h (0 Bft)
20.10.2019 02:26 5,6 °C 94 % 1008,8 hPa 0,0 mm 0,0 km/h (0 Bft) W 269 ° 0 min 0,000 mm 0,0 UV-I 0 W/m² 4,7 °C 5,6 °C 0,0 km/h (0 Bft)
20.10.2019 02:27 5,6 °C 94 % 1008,8 hPa 0,0 mm 0,0 km/h (0 Bft) W 269 ° 0 min 0,000 mm 0,0 UV-I 0 W/m² 4,7 °C 5,6 °C 0,0 km/h (0 Bft)
20.10.2019 02:28 5,5 °C 94 % 1008,9 hPa 0,0 mm 0,0 km/h (0 Bft) W 269 ° 0 min 0,000 mm 0,0 UV-I 0 W/m² 4,6 °C 5,5 °C 0,0 km/h (0 Bft)
20.10.2019 02:29 5,6 °C 94 % 1008,9 hPa 0,0 mm 0,0 km/h (0 Bft) W 269 ° 0 min 0,000 mm 0,0 UV-I 0 W/m² 4,7 °C 5,6 °C 0,0 km/h (0 Bft)
20.10.2019 02:30 5,6 °C 94 % 1008,8 hPa 0,0 mm 0,0 km/h (0 Bft) W 269 ° 0 min 0,000 mm 0,0 UV-I 0 W/m² 4,7 °C 5,6 °C 0,0 km/h (0 Bft)
20.10.2019 02:31 5,6 °C 94 % 1008,8 hPa 0,0 mm 0,0 km/h (0 Bft) W 269 ° 0 min 0,000 mm 0,0 UV-I 0 W/m² 4,7 °C 5,6 °C 0,0 km/h (0 Bft)
20.10.2019 02:32 5,6 °C 95 % 1008,9 hPa 0,0 mm 0,0 km/h (0 Bft) W 269 ° 0 min 0,000 mm 0,0 UV-I 0 W/m² 4,9 °C 5,6 °C 0,0 km/h (0 Bft)
20.10.2019 02:33 5,6 °C 95 % 1008,9 hPa 0,0 mm 0,0 km/h (0 Bft) W 269 ° 0 min 0,000 mm 0,0 UV-I 0 W/m² 4,9 °C 5,6 °C 0,0 km/h (0 Bft)
20.10.2019 02:34 5,6 °C 95 % 1008,7 hPa 0,0 mm 0,0 km/h (0 Bft) W 269 ° 0 min 0,000 mm 0,0 UV-I 0 W/m² 4,9 °C 5,6 °C 0,0 km/h (0 Bft)
20.10.2019 02:35 5,6 °C 95 % 1008,7 hPa 0,0 mm 0,0 km/h (0 Bft) W 269 ° 0 min 0,000 mm 0,0 UV-I 0 W/m² 4,9 °C 5,6 °C 0,0 km/h (0 Bft)
20.10.2019 02:36 5,6 °C 95 % 1008,7 hPa 0,0 mm 0,0 km/h (0 Bft) W 269 ° 0 min 0,000 mm 0,0 UV-I 0 W/m² 4,9 °C 5,6 °C 0,0 km/h (0 Bft)
20.10.2019 02:37 5,7 °C 95 % 1008,8 hPa 0,0 mm 0,0 km/h (0 Bft) W 269 ° 0 min 0,000 mm 0,0 UV-I 0 W/m² 5,0 °C 5,7 °C 0,0 km/h (0 Bft)
20.10.2019 02:38 5,6 °C 95 % 1008,8 hPa 0,0 mm 0,0 km/h (0 Bft) W 269 ° 0 min 0,000 mm 0,0 UV-I 0 W/m² 4,9 °C 5,6 °C 0,0 km/h (0 Bft)
20.10.2019 02:39 5,7 °C 95 % 1008,8 hPa 0,0 mm 0,0 km/h (0 Bft) W 269 ° 0 min 0,000 mm 0,0 UV-I 0 W/m² 5,0 °C 5,7 °C 0,0 km/h (0 Bft)
20.10.2019 02:40 5,7 °C 94 % 1008,7 hPa 0,0 mm 0,0 km/h (0 Bft) W 269 ° 0 min 0,000 mm 0,0 UV-I 0 W/m² 4,8 °C 5,7 °C 0,0 km/h (0 Bft)
20.10.2019 02:41 5,7 °C 95 % 1008,7 hPa 0,0 mm 0,0 km/h (0 Bft) W 269 ° 0 min 0,000 mm 0,0 UV-I 0 W/m² 5,0 °C 5,7 °C 0,0 km/h (0 Bft)
20.10.2019 02:42 5,7 °C 95 % 1008,7 hPa 0,0 mm 0,0 km/h (0 Bft) W 269 ° 0 min 0,000 mm 0,0 UV-I 0 W/m² 5,0 °C 5,7 °C 0,0 km/h (0 Bft)
20.10.2019 02:43 5,7 °C 95 % 1008,7 hPa 0,0 mm 0,0 km/h (0 Bft) W 269 ° 0 min 0,000 mm 0,0 UV-I 0 W/m² 5,0 °C 5,7 °C 0,0 km/h (0 Bft)
20.10.2019 02:44 5,7 °C 95 % 1008,7 hPa 0,0 mm 0,0 km/h (0 Bft) W 269 ° 0 min 0,000 mm 0,0 UV-I 0 W/m² 5,0 °C 5,7 °C 0,0 km/h (0 Bft)
20.10.2019 02:45 5,7 °C 95 % 1008,7 hPa 0,0 mm 0,0 km/h (0 Bft) W 269 ° 0 min 0,000 mm 0,0 UV-I 0 W/m² 5,0 °C 5,7 °C 0,0 km/h (0 Bft)
20.10.2019 02:46 5,6 °C 94 % 1008,7 hPa 0,0 mm 0,0 km/h (0 Bft) W 269 ° 0 min 0,000 mm 0,0 UV-I 0 W/m² 4,7 °C 5,6 °C 0,0 km/h (0 Bft)
20.10.2019 02:47 5,6 °C 94 % 1008,7 hPa 0,0 mm 0,0 km/h (0 Bft) W 269 ° 0 min 0,000 mm 0,0 UV-I 0 W/m² 4,7 °C 5,6 °C 0,0 km/h (0 Bft)
20.10.2019 02:48 5,6 °C 95 % 1008,7 hPa 0,0 mm 0,0 km/h (0 Bft) W 269 ° 0 min 0,000 mm 0,0 UV-I 0 W/m² 4,9 °C 5,6 °C 0,0 km/h (0 Bft)
20.10.2019 02:49 5,5 °C 95 % 1008,7 hPa 0,0 mm 0,0 km/h (0 Bft) W 269 ° 0 min 0,000 mm 0,0 UV-I 0 W/m² 4,8 °C 5,5 °C 0,0 km/h (0 Bft)
20.10.2019 02:50 5,6 °C 95 % 1008,7 hPa 0,0 mm 0,0 km/h (0 Bft) W 269 ° 0 min 0,000 mm 0,0 UV-I 0 W/m² 4,9 °C 5,6 °C 0,0 km/h (0 Bft)
20.10.2019 02:51 5,5 °C 95 % 1008,8 hPa 0,0 mm 0,0 km/h (0 Bft) W 269 ° 0 min 0,000 mm 0,0 UV-I 0 W/m² 4,8 °C 5,5 °C 0,0 km/h (0 Bft)
20.10.2019 02:52 5,5 °C 95 % 1008,7 hPa 0,0 mm 0,0 km/h (0 Bft) W 269 ° 0 min 0,000 mm 0,0 UV-I 0 W/m² 4,8 °C 5,5 °C 0,0 km/h (0 Bft)
20.10.2019 02:53 5,5 °C 95 % 1008,7 hPa 0,0 mm 0,0 km/h (0 Bft) W 269 ° 0 min 0,000 mm 0,0 UV-I 0 W/m² 4,8 °C 5,5 °C 0,0 km/h (0 Bft)
20.10.2019 02:54 5,5 °C 94 % 1008,8 hPa 0,0 mm 0,0 km/h (0 Bft) W 269 ° 0 min 0,000 mm 0,0 UV-I 0 W/m² 4,6 °C 5,5 °C 0,0 km/h (0 Bft)
20.10.2019 02:55 5,7 °C 95 % 1008,7 hPa 0,0 mm 0,0 km/h (0 Bft) W 269 ° 0 min 0,000 mm 0,0 UV-I 0 W/m² 5,0 °C 5,7 °C 0,0 km/h (0 Bft)
20.10.2019 02:56 5,8 °C 95 % 1008,7 hPa 0,0 mm 0,0 km/h (0 Bft) W 269 ° 0 min 0,000 mm 0,0 UV-I 0 W/m² 5,1 °C 5,8 °C 0,0 km/h (0 Bft)
20.10.2019 02:57 5,9 °C 95 % 1008,7 hPa 0,0 mm 0,0 km/h (0 Bft) W 269 ° 0 min 0,000 mm 0,0 UV-I 0 W/m² 5,2 °C 5,9 °C 0,0 km/h (0 Bft)
20.10.2019 02:58 6,1 °C 95 % 1008,6 hPa 0,0 mm 0,0 km/h (0 Bft) W 269 ° 0 min 0,000 mm 0,0 UV-I 0 W/m² 5,4 °C 6,1 °C 0,0 km/h (0 Bft)
20.10.2019 02:59 6,2 °C 95 % 1008,6 hPa 0,0 mm 0,1 km/h (0 Bft) W 269 ° 0 min 0,000 mm 0,0 UV-I 0 W/m² 5,5 °C 6,2 °C 1,6 km/h (1 Bft)
20.10.2019 03:00 6,2 °C 95 % 1008,7 hPa 0,0 mm 0,0 km/h (0 Bft) W 269 ° 0 min 0,000 mm 0,0 UV-I 0 W/m² 5,5 °C 6,2 °C 0,0 km/h (0 Bft)
20.10.2019 03:01 6,0 °C 95 % 1008,7 hPa 0,0 mm 0,0 km/h (0 Bft) W 269 ° 0 min 0,000 mm 0,0 UV-I 0 W/m² 5,3 °C 6,0 °C 0,0 km/h (0 Bft)
20.10.2019 03:02 5,9 °C 95 % 1008,7 hPa 0,0 mm 0,0 km/h (0 Bft) W 269 ° 0 min 0,000 mm 0,0 UV-I 0 W/m² 5,2 °C 5,9 °C 0,0 km/h (0 Bft)
20.10.2019 03:03 5,9 °C 95 % 1008,7 hPa 0,0 mm 0,0 km/h (0 Bft) W 269 ° 0 min 0,000 mm 0,0 UV-I 0 W/m² 5,2 °C 5,9 °C 0,0 km/h (0 Bft)
20.10.2019 03:04 5,9 °C 95 % 1008,7 hPa 0,0 mm 0,0 km/h (0 Bft) W 269 ° 0 min 0,000 mm 0,0 UV-I 0 W/m² 5,2 °C 5,9 °C 0,0 km/h (0 Bft)
20.10.2019 03:05 5,9 °C 95 % 1008,7 hPa 0,0 mm 0,0 km/h (0 Bft) W 269 ° 0 min 0,000 mm 0,0 UV-I 0 W/m² 5,2 °C 5,9 °C 0,0 km/h (0 Bft)
20.10.2019 03:06 5,9 °C 95 % 1008,7 hPa 0,0 mm 0,0 km/h (0 Bft) W 269 ° 0 min 0,000 mm 0,0 UV-I 0 W/m² 5,2 °C 5,9 °C 0,0 km/h (0 Bft)
20.10.2019 03:07 5,8 °C 95 % 1008,7 hPa 0,0 mm 0,6 km/h (0 Bft) W 269 ° 0 min 0,000 mm 0,0 UV-I 0 W/m² 5,1 °C 5,8 °C 3,2 km/h (1 Bft)
20.10.2019 03:08 5,8 °C 95 % 1008,6 hPa 0,0 mm 3,6 km/h (1 Bft) W 269 ° 0 min 0,000 mm 0,0 UV-I 0 W/m² 5,1 °C 5,8 °C 4,8 km/h (1 Bft)
20.10.2019 03:09 5,8 °C 94 % 1008,6 hPa 0,0 mm 2,7 km/h (1 Bft) W 269 ° 0 min 0,000 mm 0,0 UV-I 0 W/m² 4,9 °C 5,8 °C 4,8 km/h (1 Bft)
20.10.2019 03:10 5,9 °C 95 % 1008,7 hPa 0,0 mm 0,7 km/h (0 Bft) W 269 ° 0 min 0,000 mm 0,0 UV-I 0 W/m² 5,2 °C 5,9 °C 3,2 km/h (1 Bft)
20.10.2019 03:11 5,8 °C 95 % 1008,7 hPa 0,0 mm 0,0 km/h (0 Bft) W 269 ° 0 min 0,000 mm 0,0 UV-I 0 W/m² 5,1 °C 5,8 °C 0,0 km/h (0 Bft)
20.10.2019 03:12 5,8 °C 95 % 1008,7 hPa 0,0 mm 1,1 km/h (1 Bft) W 269 ° 0 min 0,000 mm 0,0 UV-I 0 W/m² 5,1 °C 5,8 °C 1,6 km/h (1 Bft)
20.10.2019 03:13 5,7 °C 94 % 1008,7 hPa 0,0 mm 1,8 km/h (1 Bft) W 269 ° 0 min 0,000 mm 0,0 UV-I 0 W/m² 4,8 °C 5,7 °C 3,2 km/h (1 Bft)
20.10.2019 03:14 5,5 °C 94 % 1008,7 hPa 0,0 mm 0,8 km/h (0 Bft) W 269 ° 0 min 0,000 mm 0,0 UV-I 0 W/m² 4,6 °C 5,5 °C 1,6 km/h (1 Bft)
20.10.2019 03:15 5,4 °C 94 % 1008,7 hPa 0,0 mm 0,3 km/h (0 Bft) W 269 ° 0 min 0,000 mm 0,0 UV-I 0 W/m² 4,5 °C 5,4 °C 1,6 km/h (1 Bft)
20.10.2019 03:16 5,3 °C 94 % 1008,7 hPa 0,0 mm 0,0 km/h (0 Bft) W 269 ° 0 min 0,000 mm 0,0 UV-I 0 W/m² 4,4 °C 5,3 °C 0,0 km/h (0 Bft)
20.10.2019 03:17 5,3 °C 94 % 1008,7 hPa 0,0 mm 0,8 km/h (0 Bft) W 269 ° 0 min 0,000 mm 0,0 UV-I 0 W/m² 4,4 °C 5,3 °C 3,2 km/h (1 Bft)
20.10.2019 03:18 5,3 °C 94 % 1008,6 hPa 0,0 mm 0,0 km/h (0 Bft) W 269 ° 0 min 0,000 mm 0,0 UV-I 0 W/m² 4,4 °C 5,3 °C 0,0 km/h (0 Bft)
20.10.2019 03:19 5,3 °C 94 % 1008,6 hPa 0,0 mm 0,0 km/h (0 Bft) W 269 ° 0 min 0,000 mm 0,0 UV-I 0 W/m² 4,4 °C 5,3 °C 0,0 km/h (0 Bft)
20.10.2019 03:20 5,3 °C 94 % 1008,6 hPa 0,0 mm 0,0 km/h (0 Bft) W 269 ° 0 min 0,000 mm 0,0 UV-I 0 W/m² 4,4 °C 5,3 °C 0,0 km/h (0 Bft)
20.10.2019 03:21 5,3 °C 95 % 1008,6 hPa 0,0 mm 0,0 km/h (0 Bft) W 269 ° 0 min 0,000 mm 0,0 UV-I 0 W/m² 4,6 °C 5,3 °C 0,0 km/h (0 Bft)
20.10.2019 03:22 5,3 °C 95 % 1008,6 hPa 0,0 mm 0,0 km/h (0 Bft) W 269 ° 0 min 0,000 mm 0,0 UV-I 0 W/m² 4,6 °C 5,3 °C 0,0 km/h (0 Bft)
20.10.2019 03:23 5,3 °C 95 % 1008,6 hPa 0,0 mm 0,0 km/h (0 Bft) W 269 ° 0 min 0,000 mm 0,0 UV-I 0 W/m² 4,6 °C 5,3 °C 0,0 km/h (0 Bft)
20.10.2019 03:24 5,4 °C 95 % 1008,6 hPa 0,0 mm 0,0 km/h (0 Bft) W 269 ° 0 min 0,000 mm 0,0 UV-I 0 W/m² 4,7 °C 5,4 °C 0,0 km/h (0 Bft)
20.10.2019 03:25 5,7 °C 95 % 1008,6 hPa 0,0 mm 0,0 km/h (0 Bft) W 269 ° 0 min 0,000 mm 0,0 UV-I 0 W/m² 5,0 °C 5,7 °C 0,0 km/h (0 Bft)
20.10.2019 03:26 5,8 °C 95 % 1008,6 hPa 0,0 mm 0,0 km/h (0 Bft) W 269 ° 0 min 0,000 mm 0,0 UV-I 0 W/m² 5,1 °C 5,8 °C 0,0 km/h (0 Bft)
20.10.2019 03:27 5,8 °C 95 % 1008,6 hPa 0,0 mm 0,0 km/h (0 Bft) W 269 ° 0 min 0,000 mm 0,0 UV-I 0 W/m² 5,1 °C 5,8 °C 0,0 km/h (0 Bft)
20.10.2019 03:28 5,8 °C 95 % 1008,6 hPa 0,0 mm 0,0 km/h (0 Bft) W 269 ° 0 min 0,000 mm 0,0 UV-I 0 W/m² 5,1 °C 5,8 °C 0,0 km/h (0 Bft)
20.10.2019 03:29 5,7 °C 95 % 1008,6 hPa 0,0 mm 0,0 km/h (0 Bft) W 269 ° 0 min 0,000 mm 0,0 UV-I 0 W/m² 5,0 °C 5,7 °C 0,0 km/h (0 Bft)
20.10.2019 03:30 5,7 °C 95 % 1008,5 hPa 0,0 mm 0,0 km/h (0 Bft) W 269 ° 0 min 0,000 mm 0,0 UV-I 0 W/m² 5,0 °C 5,7 °C 0,0 km/h (0 Bft)
20.10.2019 03:31 5,7 °C 95 % 1008,6 hPa 0,0 mm 0,0 km/h (0 Bft) W 269 ° 0 min 0,000 mm 0,0 UV-I 0 W/m² 5,0 °C 5,7 °C 0,0 km/h (0 Bft)
20.10.2019 03:32 5,6 °C 95 % 1008,5 hPa 0,0 mm 0,0 km/h (0 Bft) W 269 ° 0 min 0,000 mm 0,0 UV-I 0 W/m² 4,9 °C 5,6 °C 0,0 km/h (0 Bft)
20.10.2019 03:33 5,5 °C 95 % 1008,6 hPa 0,0 mm 0,0 km/h (0 Bft) W 269 ° 0 min 0,000 mm 0,0 UV-I 0 W/m² 4,8 °C 5,5 °C 0,0 km/h (0 Bft)
20.10.2019 03:34 5,4 °C 94 % 1008,6 hPa 0,0 mm 0,0 km/h (0 Bft) W 269 ° 0 min 0,000 mm 0,0 UV-I 0 W/m² 4,5 °C 5,4 °C 0,0 km/h (0 Bft)
20.10.2019 03:35 5,4 °C 94 % 1008,7 hPa 0,0 mm 0,0 km/h (0 Bft) W 269 ° 0 min 0,000 mm 0,0 UV-I 0 W/m² 4,5 °C 5,4 °C 0,0 km/h (0 Bft)
20.10.2019 03:36 5,4 °C 95 % 1008,7 hPa 0,0 mm 0,0 km/h (0 Bft) W 269 ° 0 min 0,000 mm 0,0 UV-I 0 W/m² 4,7 °C 5,4 °C 0,0 km/h (0 Bft)
20.10.2019 03:37 5,4 °C 95 % 1008,6 hPa 0,0 mm 0,0 km/h (0 Bft) W 269 ° 0 min 0,000 mm 0,0 UV-I 0 W/m² 4,7 °C 5,4 °C 0,0 km/h (0 Bft)
20.10.2019 03:38 5,3 °C 94 % 1008,5 hPa 0,0 mm 1,8 km/h (1 Bft) W 269 ° 0 min 0,000 mm 0,0 UV-I 0 W/m² 4,4 °C 5,3 °C 6,4 km/h (2 Bft)
20.10.2019 03:39 5,3 °C 94 % 1008,5 hPa 0,0 mm 4,1 km/h (1 Bft) W 269 ° 0 min 0,000 mm 0,0 UV-I 0 W/m² 4,4 °C 5,3 °C 4,8 km/h (1 Bft)
20.10.2019 03:40 5,4 °C 95 % 1008,6 hPa 0,0 mm 2,5 km/h (1 Bft) W 269 ° 0 min 0,000 mm 0,0 UV-I 0 W/m² 4,7 °C 5,4 °C 3,2 km/h (1 Bft)
20.10.2019 03:41 5,7 °C 95 % 1008,5 hPa 0,0 mm 0,8 km/h (0 Bft) W 269 ° 0 min 0,000 mm 0,0 UV-I 0 W/m² 5,0 °C 5,7 °C 3,2 km/h (1 Bft)
20.10.2019 03:42 5,7 °C 95 % 1008,6 hPa 0,0 mm 0,9 km/h (0 Bft) W 269 ° 0 min 0,000 mm 0,0 UV-I 0 W/m² 5,0 °C 5,7 °C 3,2 km/h (1 Bft)
20.10.2019 03:43 5,7 °C 95 % 1008,5 hPa 0,0 mm 4,4 km/h (1 Bft) W 269 ° 0 min 0,000 mm 0,0 UV-I 0 W/m² 5,0 °C 5,7 °C 6,4 km/h (2 Bft)
20.10.2019 03:44 5,6 °C 95 % 1008,6 hPa 0,0 mm 1,5 km/h (1 Bft) W 269 ° 0 min 0,000 mm 0,0 UV-I 0 W/m² 4,9 °C 5,6 °C 3,2 km/h (1 Bft)
20.10.2019 03:45 5,5 °C 95 % 1008,6 hPa 0,0 mm 1,8 km/h (1 Bft) W 269 ° 0 min 0,000 mm 0,0 UV-I 0 W/m² 4,8 °C 5,5 °C 3,2 km/h (1 Bft)
20.10.2019 03:46 5,5 °C 95 % 1008,6 hPa 0,0 mm 0,3 km/h (0 Bft) W 269 ° 0 min 0,000 mm 0,0 UV-I 0 W/m² 4,8 °C 5,5 °C 1,6 km/h (1 Bft)
20.10.2019 03:47 5,4 °C 95 % 1008,6 hPa 0,0 mm 0,0 km/h (0 Bft) W 269 ° 0 min 0,000 mm 0,0 UV-I 0 W/m² 4,7 °C 5,4 °C 0,0 km/h (0 Bft)
20.10.2019 03:48 5,4 °C 95 % 1008,6 hPa 0,0 mm 0,0 km/h (0 Bft) W 269 ° 0 min 0,000 mm 0,0 UV-I 0 W/m² 4,7 °C 5,4 °C 0,0 km/h (0 Bft)
20.10.2019 03:49 5,4 °C 95 % 1008,6 hPa 0,0 mm 0,0 km/h (0 Bft) W 269 ° 0 min 0,000 mm 0,0 UV-I 0 W/m² 4,7 °C 5,4 °C 0,0 km/h (0 Bft)
20.10.2019 03:50 5,4 °C 94 % 1008,6 hPa 0,0 mm 0,0 km/h (0 Bft) W 269 ° 0 min 0,000 mm 0,0 UV-I 0 W/m² 4,5 °C 5,4 °C 0,0 km/h (0 Bft)
20.10.2019 03:51 5,4 °C 95 % 1008,6 hPa 0,0 mm 0,0 km/h (0 Bft) W 269 ° 0 min 0,000 mm 0,0 UV-I 0 W/m² 4,7 °C 5,4 °C 0,0 km/h (0 Bft)
20.10.2019 03:52 5,3 °C 95 % 1008,5 hPa 0,0 mm 0,0 km/h (0 Bft) W 269 ° 0 min 0,000 mm 0,0 UV-I 0 W/m² 4,6 °C 5,3 °C 0,0 km/h (0 Bft)
20.10.2019 03:53 5,2 °C 95 % 1008,5 hPa 0,0 mm 0,0 km/h (0 Bft) W 269 ° 0 min 0,000 mm 0,0 UV-I 0 W/m² 4,5 °C 5,2 °C 0,0 km/h (0 Bft)
20.10.2019 03:54 5,2 °C 95 % 1008,5 hPa 0,0 mm 0,0 km/h (0 Bft) W 269 ° 0 min 0,000 mm 0,0 UV-I 0 W/m² 4,5 °C 5,2 °C 0,0 km/h (0 Bft)
20.10.2019 03:55 5,2 °C 95 % 1008,5 hPa 0,0 mm 0,0 km/h (0 Bft) W 269 ° 0 min 0,000 mm 0,0 UV-I 0 W/m² 4,5 °C 5,2 °C 0,0 km/h (0 Bft)
20.10.2019 03:56 5,1 °C 94 % 1008,5 hPa 0,0 mm 0,0 km/h (0 Bft) W 269 ° 0 min 0,000 mm 0,0 UV-I 0 W/m² 4,2 °C 5,1 °C 0,0 km/h (0 Bft)
20.10.2019 03:57 5,1 °C 95 % 1008,5 hPa 0,0 mm 0,0 km/h (0 Bft) W 269 ° 0 min 0,000 mm 0,0 UV-I 0 W/m² 4,4 °C 5,1 °C 0,0 km/h (0 Bft)
20.10.2019 03:58 5,1 °C 95 % 1008,5 hPa 0,0 mm 0,0 km/h (0 Bft) W 269 ° 0 min 0,000 mm 0,0 UV-I 0 W/m² 4,4 °C 5,1 °C 0,0 km/h (0 Bft)
20.10.2019 03:59 5,1 °C 95 % 1008,4 hPa 0,0 mm 0,4 km/h (0 Bft) W 269 ° 0 min 0,000 mm 0,0 UV-I 0 W/m² 4,4 °C 5,1 °C 1,6 km/h (1 Bft)
20.10.2019 04:00 5,0 °C 95 % 1008,5 hPa 0,0 mm 0,0 km/h (0 Bft) W 269 ° 0 min 0,000 mm 0,0 UV-I 0 W/m² 4,3 °C 5,0 °C 0,0 km/h (0 Bft)
20.10.2019 04:01 5,0 °C 95 % 1008,5 hPa 0,0 mm 0,0 km/h (0 Bft) W 269 ° 0 min 0,000 mm 0,0 UV-I 0 W/m² 4,3 °C 5,0 °C 0,0 km/h (0 Bft)
20.10.2019 04:02 5,0 °C 95 % 1008,5 hPa 0,0 mm 0,0 km/h (0 Bft) W 269 ° 0 min 0,000 mm 0,0 UV-I 0 W/m² 4,3 °C 5,0 °C 0,0 km/h (0 Bft)
20.10.2019 04:03 5,1 °C 95 % 1008,5 hPa 0,0 mm 0,0 km/h (0 Bft) W 269 ° 0 min 0,000 mm 0,0 UV-I 0 W/m² 4,4 °C 5,1 °C 0,0 km/h (0 Bft)
20.10.2019 04:04 4,9 °C 95 % 1008,5 hPa 0,0 mm 0,0 km/h (0 Bft) W 269 ° 0 min 0,000 mm 0,0 UV-I 0 W/m² 4,2 °C 4,9 °C 0,0 km/h (0 Bft)
20.10.2019 04:05 4,9 °C 95 % 1008,5 hPa 0,0 mm 0,0 km/h (0 Bft) W 269 ° 0 min 0,000 mm 0,0 UV-I 0 W/m² 4,2 °C 4,9 °C 0,0 km/h (0 Bft)
20.10.2019 04:06 4,9 °C 95 % 1008,5 hPa 0,0 mm 0,0 km/h (0 Bft) W 269 ° 0 min 0,000 mm 0,0 UV-I 0 W/m² 4,2 °C 4,9 °C 0,0 km/h (0 Bft)
20.10.2019 04:07 5,1 °C 95 % 1008,5 hPa 0,0 mm 1,3 km/h (1 Bft) W 269 ° 0 min 0,000 mm 0,0 UV-I 0 W/m² 4,4 °C 5,1 °C 3,2 km/h (1 Bft)
20.10.2019 04:08 5,4 °C 95 % 1008,4 hPa 0,0 mm 3,3 km/h (1 Bft) W 269 ° 0 min 0,000 mm 0,0 UV-I 0 W/m² 4,7 °C 5,4 °C 4,8 km/h (1 Bft)
20.10.2019 04:09 5,7 °C 95 % 1008,4 hPa 0,0 mm 1,9 km/h (1 Bft) W 269 ° 0 min 0,000 mm 0,0 UV-I 0 W/m² 5,0 °C 5,7 °C 3,2 km/h (1 Bft)
20.10.2019 04:10 5,8 °C 96 % 1008,4 hPa 0,0 mm 0,3 km/h (0 Bft) W 269 ° 0 min 0,000 mm 0,0 UV-I 0 W/m² 5,2 °C 5,8 °C 1,6 km/h (1 Bft)
20.10.2019 04:11 5,8 °C 95 % 1008,3 hPa 0,0 mm 0,0 km/h (0 Bft) W 269 ° 0 min 0,000 mm 0,0 UV-I 0 W/m² 5,1 °C 5,8 °C 0,0 km/h (0 Bft)
20.10.2019 04:12 5,8 °C 95 % 1008,3 hPa 0,0 mm 0,3 km/h (0 Bft) W 269 ° 0 min 0,000 mm 0,0 UV-I 0 W/m² 5,1 °C 5,8 °C 1,6 km/h (1 Bft)
20.10.2019 04:13 5,7 °C 95 % 1008,3 hPa 0,0 mm 1,8 km/h (1 Bft) W 269 ° 0 min 0,000 mm 0,0 UV-I 0 W/m² 5,0 °C 5,7 °C 3,2 km/h (1 Bft)
20.10.2019 04:14 5,6 °C 95 % 1008,4 hPa 0,0 mm 1,0 km/h (0 Bft) W 269 ° 0 min 0,000 mm 0,0 UV-I 0 W/m² 4,9 °C 5,6 °C 3,2 km/h (1 Bft)
20.10.2019 04:15 5,7 °C 95 % 1008,4 hPa 0,0 mm 0,1 km/h (0 Bft) W 269 ° 0 min 0,000 mm 0,0 UV-I 0 W/m² 5,0 °C 5,7 °C 1,6 km/h (1 Bft)
20.10.2019 04:16 5,7 °C 95 % 1008,4 hPa 0,0 mm 0,0 km/h (0 Bft) W 269 ° 0 min 0,000 mm 0,0 UV-I 0 W/m² 5,0 °C 5,7 °C 0,0 km/h (0 Bft)
20.10.2019 04:17 5,7 °C 95 % 1008,4 hPa 0,0 mm 0,0 km/h (0 Bft) W 269 ° 0 min 0,000 mm 0,0 UV-I 0 W/m² 5,0 °C 5,7 °C 0,0 km/h (0 Bft)
20.10.2019 04:18 5,6 °C 95 % 1008,4 hPa 0,0 mm 0,9 km/h (0 Bft) W 269 ° 0 min 0,000 mm 0,0 UV-I 0 W/m² 4,9 °C 5,6 °C 3,2 km/h (1 Bft)
20.10.2019 04:19 5,6 °C 95 % 1008,4 hPa 0,0 mm 0,1 km/h (0 Bft) W 269 ° 0 min 0,000 mm 0,0 UV-I 0 W/m² 4,9 °C 5,6 °C 1,6 km/h (1 Bft)
20.10.2019 04:20 5,5 °C 95 % 1008,4 hPa 0,0 mm 1,5 km/h (1 Bft) W 269 ° 0 min 0,000 mm 0,0 UV-I 0 W/m² 4,8 °C 5,5 °C 3,2 km/h (1 Bft)
20.10.2019 04:21 5,4 °C 95 % 1008,4 hPa 0,0 mm 0,1 km/h (0 Bft) W 269 ° 0 min 0,000 mm 0,0 UV-I 0 W/m² 4,7 °C 5,4 °C 1,6 km/h (1 Bft)
20.10.2019 04:22 5,4 °C 95 % 1008,4 hPa 0,0 mm 0,0 km/h (0 Bft) W 269 ° 0 min 0,000 mm 0,0 UV-I 0 W/m² 4,7 °C 5,4 °C 0,0 km/h (0 Bft)
20.10.2019 04:23 5,3 °C 95 % 1008,4 hPa 0,0 mm 0,0 km/h (0 Bft) W 269 ° 0 min 0,000 mm 0,0 UV-I 0 W/m² 4,6 °C 5,3 °C 0,0 km/h (0 Bft)
20.10.2019 04:24 5,3 °C 95 % 1008,5 hPa 0,0 mm 0,0 km/h (0 Bft) W 269 ° 0 min 0,000 mm 0,0 UV-I 0 W/m² 4,6 °C 5,3 °C 0,0 km/h (0 Bft)
20.10.2019 04:25 5,3 °C 95 % 1008,4 hPa 0,0 mm 0,0 km/h (0 Bft) W 269 ° 0 min 0,000 mm 0,0 UV-I 0 W/m² 4,6 °C 5,3 °C 0,0 km/h (0 Bft)
20.10.2019 04:26 5,3 °C 95 % 1008,4 hPa 0,0 mm 0,0 km/h (0 Bft) W 269 ° 0 min 0,000 mm 0,0 UV-I 0 W/m² 4,6 °C 5,3 °C 0,0 km/h (0 Bft)
20.10.2019 04:27 5,3 °C 95 % 1008,5 hPa 0,0 mm 0,0 km/h (0 Bft) W 269 ° 0 min 0,000 mm 0,0 UV-I 0 W/m² 4,6 °C 5,3 °C 0,0 km/h (0 Bft)
20.10.2019 04:28 5,3 °C 95 % 1008,5 hPa 0,0 mm 0,0 km/h (0 Bft) W 269 ° 0 min 0,000 mm 0,0 UV-I 0 W/m² 4,6 °C 5,3 °C 0,0 km/h (0 Bft)
20.10.2019 04:29 5,2 °C 95 % 1008,5 hPa 0,0 mm 0,0 km/h (0 Bft) W 269 ° 0 min 0,000 mm 0,0 UV-I 0 W/m² 4,5 °C 5,2 °C 0,0 km/h (0 Bft)
20.10.2019 04:30 5,2 °C 95 % 1008,5 hPa 0,0 mm 0,0 km/h (0 Bft) W 269 ° 0 min 0,000 mm 0,0 UV-I 0 W/m² 4,5 °C 5,2 °C 0,0 km/h (0 Bft)
20.10.2019 04:31 5,2 °C 95 % 1008,5 hPa 0,0 mm 0,0 km/h (0 Bft) W 269 ° 0 min 0,000 mm 0,0 UV-I 0 W/m² 4,5 °C 5,2 °C 0,0 km/h (0 Bft)
20.10.2019 04:32 5,2 °C 95 % 1008,4 hPa 0,0 mm 0,0 km/h (0 Bft) W 269 ° 0 min 0,000 mm 0,0 UV-I 0 W/m² 4,5 °C 5,2 °C 0,0 km/h (0 Bft)
20.10.2019 04:33 5,3 °C 95 % 1008,4 hPa 0,0 mm 0,0 km/h (0 Bft) W 269 ° 0 min 0,000 mm 0,0 UV-I 0 W/m² 4,6 °C 5,3 °C 0,0 km/h (0 Bft)
20.10.2019 04:34 5,3 °C 95 % 1008,4 hPa 0,0 mm 0,0 km/h (0 Bft) W 269 ° 0 min 0,000 mm 0,0 UV-I 0 W/m² 4,6 °C 5,3 °C 0,0 km/h (0 Bft)
20.10.2019 04:35 5,3 °C 95 % 1008,5 hPa 0,0 mm 0,0 km/h (0 Bft) W 269 ° 0 min 0,000 mm 0,0 UV-I 0 W/m² 4,6 °C 5,3 °C 0,0 km/h (0 Bft)
20.10.2019 04:36 5,3 °C 95 % 1008,5 hPa 0,0 mm 0,0 km/h (0 Bft) W 269 ° 0 min 0,000 mm 0,0 UV-I 0 W/m² 4,6 °C 5,3 °C 0,0 km/h (0 Bft)
20.10.2019 04:37 5,2 °C 95 % 1008,5 hPa 0,0 mm 0,0 km/h (0 Bft) W 269 ° 0 min 0,000 mm 0,0 UV-I 0 W/m² 4,5 °C 5,2 °C 0,0 km/h (0 Bft)
20.10.2019 04:38 5,2 °C 95 % 1008,5 hPa 0,0 mm 0,0 km/h (0 Bft) W 269 ° 0 min 0,000 mm 0,0 UV-I 0 W/m² 4,5 °C 5,2 °C 0,0 km/h (0 Bft)
20.10.2019 04:39 5,2 °C 95 % 1008,4 hPa 0,0 mm 0,7 km/h (0 Bft) W 269 ° 0 min 0,000 mm 0,0 UV-I 0 W/m² 4,5 °C 5,2 °C 1,6 km/h (1 Bft)
20.10.2019 04:40 5,2 °C 95 % 1008,4 hPa 0,0 mm 0,0 km/h (0 Bft) W 269 ° 0 min 0,000 mm 0,0 UV-I 0 W/m² 4,5 °C 5,2 °C 0,0 km/h (0 Bft)
20.10.2019 04:41 5,1 °C 95 % 1008,4 hPa 0,0 mm 0,0 km/h (0 Bft) W 269 ° 0 min 0,000 mm 0,0 UV-I 0 W/m² 4,4 °C 5,1 °C 0,0 km/h (0 Bft)
20.10.2019 04:42 5,0 °C 95 % 1008,4 hPa 0,0 mm 0,0 km/h (0 Bft) W 269 ° 0 min 0,000 mm 0,0 UV-I 0 W/m² 4,3 °C 5,0 °C 0,0 km/h (0 Bft)
20.10.2019 04:43 4,9 °C 95 % 1008,4 hPa 0,0 mm 0,0 km/h (0 Bft) W 269 ° 0 min 0,000 mm 0,0 UV-I 0 W/m² 4,2 °C 4,9 °C 0,0 km/h (0 Bft)
20.10.2019 04:44 4,8 °C 94 % 1008,4 hPa 0,0 mm 0,0 km/h (0 Bft) W 269 ° 0 min 0,000 mm 0,0 UV-I 0 W/m² 3,9 °C 4,8 °C 0,0 km/h (0 Bft)
20.10.2019 04:45 4,8 °C 94 % 1008,4 hPa 0,0 mm 0,0 km/h (0 Bft) W 269 ° 0 min 0,000 mm 0,0 UV-I 0 W/m² 3,9 °C 4,8 °C 0,0 km/h (0 Bft)
20.10.2019 04:46 4,7 °C 94 % 1008,4 hPa 0,0 mm 0,0 km/h (0 Bft) W 269 ° 0 min 0,000 mm 0,0 UV-I 0 W/m² 3,8 °C 4,7 °C 0,0 km/h (0 Bft)
20.10.2019 04:47 4,8 °C 95 % 1008,4 hPa 0,0 mm 0,7 km/h (0 Bft) W 269 ° 0 min 0,000 mm 0,0 UV-I 0 W/m² 4,1 °C 4,8 °C 3,2 km/h (1 Bft)
20.10.2019 04:48 4,9 °C 95 % 1008,3 hPa 0,0 mm 0,3 km/h (0 Bft) W 269 ° 0 min 0,000 mm 0,0 UV-I 0 W/m² 4,2 °C 4,9 °C 1,6 km/h (1 Bft)
20.10.2019 04:49 5,0 °C 95 % 1008,4 hPa 0,0 mm 1,7 km/h (1 Bft) W 269 ° 0 min 0,000 mm 0,0 UV-I 0 W/m² 4,3 °C 5,0 °C 3,2 km/h (1 Bft)
20.10.2019 04:50 5,1 °C 95 % 1008,4 hPa 0,0 mm 1,4 km/h (1 Bft) W 269 ° 0 min 0,000 mm 0,0 UV-I 0 W/m² 4,4 °C 5,1 °C 3,2 km/h (1 Bft)
20.10.2019 04:51 5,2 °C 95 % 1008,4 hPa 0,0 mm 0,1 km/h (0 Bft) W 269 ° 0 min 0,000 mm 0,0 UV-I 0 W/m² 4,5 °C 5,2 °C 1,6 km/h (1 Bft)
20.10.2019 04:52 5,1 °C 95 % 1008,4 hPa 0,0 mm 0,0 km/h (0 Bft) W 269 ° 0 min 0,000 mm 0,0 UV-I 0 W/m² 4,4 °C 5,1 °C 0,0 km/h (0 Bft)
20.10.2019 04:53 5,1 °C 95 % 1008,4 hPa 0,0 mm 0,0 km/h (0 Bft) W 269 ° 0 min 0,000 mm 0,0 UV-I 0 W/m² 4,4 °C 5,1 °C 0,0 km/h (0 Bft)
20.10.2019 04:54 5,0 °C 95 % 1008,4 hPa 0,0 mm 0,0 km/h (0 Bft) W 269 ° 0 min 0,000 mm 0,0 UV-I 0 W/m² 4,3 °C 5,0 °C 0,0 km/h (0 Bft)
20.10.2019 04:55 5,1 °C 95 % 1008,3 hPa 0,0 mm 0,0 km/h (0 Bft) W 269 ° 0 min 0,000 mm 0,0 UV-I 0 W/m² 4,4 °C 5,1 °C 0,0 km/h (0 Bft)
20.10.2019 04:56 5,1 °C 95 % 1008,3 hPa 0,0 mm 0,0 km/h (0 Bft) W 269 ° 0 min 0,000 mm 0,0 UV-I 0 W/m² 4,4 °C 5,1 °C 0,0 km/h (0 Bft)
20.10.2019 04:57 5,1 °C 95 % 1008,3 hPa 0,0 mm 0,0 km/h (0 Bft) W 269 ° 0 min 0,000 mm 0,0 UV-I 0 W/m² 4,4 °C 5,1 °C 0,0 km/h (0 Bft)
20.10.2019 04:58 5,1 °C 95 % 1008,3 hPa 0,0 mm 0,0 km/h (0 Bft) W 269 ° 0 min 0,000 mm 0,0 UV-I 0 W/m² 4,4 °C 5,1 °C 0,0 km/h (0 Bft)
20.10.2019 04:59 5,2 °C 95 % 1008,4 hPa 0,0 mm 0,0 km/h (0 Bft) W 269 ° 0 min 0,000 mm 0,0 UV-I 0 W/m² 4,5 °C 5,2 °C 0,0 km/h (0 Bft)
20.10.2019 05:00 5,1 °C 95 % 1008,4 hPa 0,0 mm 0,0 km/h (0 Bft) W 269 ° 0 min 0,000 mm 0,0 UV-I 0 W/m² 4,4 °C 5,1 °C 0,0 km/h (0 Bft)
20.10.2019 05:01 5,1 °C 95 % 1008,4 hPa 0,0 mm 0,0 km/h (0 Bft) W 269 ° 0 min 0,000 mm 0,0 UV-I 0 W/m² 4,4 °C 5,1 °C 0,0 km/h (0 Bft)
20.10.2019 05:02 5,1 °C 95 % 1008,4 hPa 0,0 mm 0,0 km/h (0 Bft) W 269 ° 0 min 0,000 mm 0,0 UV-I 0 W/m² 4,4 °C 5,1 °C 0,0 km/h (0 Bft)
20.10.2019 05:03 4,9 °C 95 % 1008,4 hPa 0,0 mm 0,0 km/h (0 Bft) W 269 ° 0 min 0,000 mm 0,0 UV-I 0 W/m² 4,2 °C 4,9 °C 0,0 km/h (0 Bft)
20.10.2019 05:04 4,9 °C 95 % 1008,4 hPa 0,0 mm 0,0 km/h (0 Bft) W 269 ° 0 min 0,000 mm 0,0 UV-I 0 W/m² 4,2 °C 4,9 °C 0,0 km/h (0 Bft)
20.10.2019 05:05 4,9 °C 95 % 1008,4 hPa 0,0 mm 0,0 km/h (0 Bft) W 269 ° 0 min 0,000 mm 0,0 UV-I 0 W/m² 4,2 °C 4,9 °C 0,0 km/h (0 Bft)
20.10.2019 05:06 4,8 °C 95 % 1008,3 hPa 0,0 mm 0,0 km/h (0 Bft) W 269 ° 0 min 0,000 mm 0,0 UV-I 0 W/m² 4,1 °C 4,8 °C 0,0 km/h (0 Bft)
20.10.2019 05:07 4,8 °C 95 % 1008,3 hPa 0,0 mm 0,1 km/h (0 Bft) W 269 ° 0 min 0,000 mm 0,0 UV-I 0 W/m² 4,1 °C 4,8 °C 1,6 km/h (1 Bft)
20.10.2019 05:08 4,8 °C 95 % 1008,4 hPa 0,0 mm 0,1 km/h (0 Bft) W 269 ° 0 min 0,000 mm 0,0 UV-I 0 W/m² 4,1 °C 4,8 °C 1,6 km/h (1 Bft)
20.10.2019 05:09 4,8 °C 95 % 1008,3 hPa 0,0 mm 0,1 km/h (0 Bft) W 269 ° 0 min 0,000 mm 0,0 UV-I 0 W/m² 4,1 °C 4,8 °C 1,6 km/h (1 Bft)
20.10.2019 05:10 4,8 °C 95 % 1008,4 hPa 0,0 mm 1,2 km/h (1 Bft) O 96 ° 0 min 0,000 mm 0,0 UV-I 0 W/m² 4,1 °C 4,8 °C 3,2 km/h (1 Bft)
20.10.2019 05:11 5,0 °C 95 % 1008,3 hPa 0,0 mm 2,5 km/h (1 Bft) O-SO 104 ° 0 min 0,000 mm 0,0 UV-I 0 W/m² 4,3 °C 5,0 °C 4,8 km/h (1 Bft)
20.10.2019 05:12 5,2 °C 95 % 1008,3 hPa 0,0 mm 1,3 km/h (1 Bft) O-SO 104 ° 0 min 0,000 mm 0,0 UV-I 0 W/m² 4,5 °C 5,2 °C 3,2 km/h (1 Bft)
20.10.2019 05:13 5,6 °C 96 % 1008,3 hPa 0,0 mm 0,1 km/h (0 Bft) O-SO 104 ° 0 min 0,000 mm 0,0 UV-I 0 W/m² 5,0 °C 5,6 °C 1,6 km/h (1 Bft)
20.10.2019 05:14 5,6 °C 96 % 1008,2 hPa 0,0 mm 0,3 km/h (0 Bft) O-SO 104 ° 0 min 0,000 mm 0,0 UV-I 0 W/m² 5,0 °C 5,6 °C 1,6 km/h (1 Bft)
20.10.2019 05:15 5,4 °C 96 % 1008,3 hPa 0,0 mm 1,0 km/h (0 Bft) O-SO 104 ° 0 min 0,000 mm 0,0 UV-I 0 W/m² 4,8 °C 5,4 °C 3,2 km/h (1 Bft)
20.10.2019 05:16 5,2 °C 95 % 1008,3 hPa 0,0 mm 1,0 km/h (0 Bft) O-SO 104 ° 0 min 0,000 mm 0,0 UV-I 0 W/m² 4,5 °C 5,2 °C 3,2 km/h (1 Bft)
20.10.2019 05:17 5,1 °C 95 % 1008,3 hPa 0,0 mm 0,0 km/h (0 Bft) O-SO 104 ° 0 min 0,000 mm 0,0 UV-I 0 W/m² 4,4 °C 5,1 °C 0,0 km/h (0 Bft)
20.10.2019 05:18 4,9 °C 95 % 1008,3 hPa 0,0 mm 0,0 km/h (0 Bft) O-SO 104 ° 0 min 0,000 mm 0,0 UV-I 0 W/m² 4,2 °C 4,9 °C 0,0 km/h (0 Bft)
20.10.2019 05:19 4,9 °C 95 % 1008,3 hPa 0,0 mm 0,0 km/h (0 Bft) O-SO 104 ° 0 min 0,000 mm 0,0 UV-I 0 W/m² 4,2 °C 4,9 °C 0,0 km/h (0 Bft)
20.10.2019 05:20 4,9 °C 95 % 1008,3 hPa 0,0 mm 0,0 km/h (0 Bft) O-SO 104 ° 0 min 0,000 mm 0,0 UV-I 0 W/m² 4,2 °C 4,9 °C 0,0 km/h (0 Bft)
20.10.2019 05:21 4,9 °C 95 % 1008,3 hPa 0,0 mm 0,0 km/h (0 Bft) O-SO 104 ° 0 min 0,000 mm 0,0 UV-I 0 W/m² 4,2 °C 4,9 °C 0,0 km/h (0 Bft)
20.10.2019 05:22 4,9 °C 95 % 1008,3 hPa 0,0 mm 0,0 km/h (0 Bft) O-SO 104 ° 0 min 0,000 mm 0,0 UV-I 0 W/m² 4,2 °C 4,9 °C 0,0 km/h (0 Bft)
20.10.2019 05:23 4,9 °C 95 % 1008,3 hPa 0,0 mm 0,3 km/h (0 Bft) O-SO 104 ° 0 min 0,000 mm 0,0 UV-I 0 W/m² 4,2 °C 4,9 °C 1,6 km/h (1 Bft)
20.10.2019 05:24 5,0 °C 95 % 1008,3 hPa 0,0 mm 0,0 km/h (0 Bft) O-SO 104 ° 0 min 0,000 mm 0,0 UV-I 0 W/m² 4,3 °C 5,0 °C 0,0 km/h (0 Bft)
20.10.2019 05:25 5,1 °C 95 % 1008,2 hPa 0,0 mm 0,0 km/h (0 Bft) O-SO 104 ° 0 min 0,000 mm 0,0 UV-I 0 W/m² 4,4 °C 5,1 °C 0,0 km/h (0 Bft)
20.10.2019 05:26 5,2 °C 95 % 1008,2 hPa 0,0 mm 0,0 km/h (0 Bft) O-SO 104 ° 0 min 0,000 mm 0,0 UV-I 0 W/m² 4,5 °C 5,2 °C 0,0 km/h (0 Bft)
20.10.2019 05:27 5,2 °C 95 % 1008,3 hPa 0,0 mm 0,6 km/h (0 Bft) O-SO 104 ° 0 min 0,000 mm 0,0 UV-I 0 W/m² 4,5 °C 5,2 °C 1,6 km/h (1 Bft)
20.10.2019 05:28 5,3 °C 95 % 1008,3 hPa 0,0 mm 0,0 km/h (0 Bft) O-SO 104 ° 0 min 0,000 mm 0,0 UV-I 0 W/m² 4,6 °C 5,3 °C 0,0 km/h (0 Bft)
20.10.2019 05:29 5,6 °C 95 % 1008,4 hPa 0,0 mm 2,8 km/h (1 Bft) SO 133 ° 0 min 0,000 mm 0,0 UV-I 0 W/m² 4,9 °C 5,6 °C 4,8 km/h (1 Bft)
20.10.2019 05:30 6,1 °C 95 % 1008,3 hPa 0,0 mm 1,1 km/h (1 Bft) SO 133 ° 0 min 0,000 mm 0,0 UV-I 0 W/m² 5,4 °C 6,1 °C 3,2 km/h (1 Bft)
20.10.2019 05:31 6,6 °C 96 % 1008,3 hPa 0,0 mm 1,9 km/h (1 Bft) SO 133 ° 0 min 0,000 mm 0,0 UV-I 0 W/m² 6,0 °C 6,6 °C 4,8 km/h (1 Bft)
20.10.2019 05:32 7,0 °C 96 % 1008,3 hPa 0,0 mm 1,2 km/h (1 Bft) SO 133 ° 0 min 0,000 mm 0,0 UV-I 0 W/m² 6,4 °C 7,0 °C 3,2 km/h (1 Bft)
20.10.2019 05:33 7,6 °C 96 % 1008,3 hPa 0,0 mm 0,5 km/h (0 Bft) SO 133 ° 0 min 0,000 mm 0,0 UV-I 0 W/m² 7,0 °C 7,6 °C 3,2 km/h (1 Bft)
20.10.2019 05:34 8,1 °C 96 % 1008,3 hPa 0,0 mm 0,0 km/h (0 Bft) SO 133 ° 0 min 0,000 mm 0,0 UV-I 0 W/m² 7,5 °C 8,1 °C 0,0 km/h (0 Bft)
20.10.2019 05:35 8,4 °C 96 % 1008,3 hPa 0,0 mm 0,4 km/h (0 Bft) SO 133 ° 0 min 0,000 mm 0,0 UV-I 0 W/m² 7,8 °C 8,4 °C 3,2 km/h (1 Bft)
20.10.2019 05:36 8,6 °C 97 % 1008,3 hPa 0,0 mm 5,2 km/h (1 Bft) S-SO 165 ° 0 min 0,000 mm 0,0 UV-I 0 W/m² 8,2 °C 8,1 °C 9,7 km/h (2 Bft)
20.10.2019 05:37 8,9 °C 97 % 1008,3 hPa 0,0 mm 2,7 km/h (1 Bft) O 80 ° 0 min 0,000 mm 0,0 UV-I 0 W/m² 8,4 °C 8,9 °C 8,0 km/h (2 Bft)
20.10.2019 05:38 9,2 °C 97 % 1008,3 hPa 0,0 mm 2,9 km/h (1 Bft) O-SO 117 ° 0 min 0,000 mm 0,0 UV-I 0 W/m² 8,7 °C 9,2 °C 4,8 km/h (1 Bft)
20.10.2019 05:39 9,4 °C 97 % 1008,3 hPa 0,0 mm 0,0 km/h (0 Bft) O-SO 117 ° 0 min 0,000 mm 0,0 UV-I 0 W/m² 8,9 °C 9,4 °C 0,0 km/h (0 Bft)
20.10.2019 05:40 9,9 °C 97 % 1008,3 hPa 0,0 mm 0,6 km/h (0 Bft) O-SO 113 ° 0 min 0,000 mm 0,0 UV-I 0 W/m² 9,4 °C 9,9 °C 3,2 km/h (1 Bft)
20.10.2019 05:41 10,1 °C 97 % 1008,3 hPa 0,0 mm 1,7 km/h (1 Bft) O-SO 113 ° 0 min 0,000 mm 0,0 UV-I 0 W/m² 9,6 °C 10,1 °C 3,2 km/h (1 Bft)
20.10.2019 05:42 10,3 °C 97 % 1008,3 hPa 0,0 mm 4,2 km/h (1 Bft) O-NO 75 ° 0 min 0,000 mm 0,0 UV-I 0 W/m² 9,8 °C 10,3 °C 9,7 km/h (2 Bft)
20.10.2019 05:43 10,4 °C 95 % 1008,3 hPa 0,0 mm 3,1 km/h (1 Bft) SO 134 ° 0 min 0,000 mm 0,0 UV-I 0 W/m² 9,6 °C 10,4 °C 4,8 km/h (1 Bft)
20.10.2019 05:44 10,5 °C 94 % 1008,3 hPa 0,0 mm 0,1 km/h (0 Bft) SO 129 ° 0 min 0,000 mm 0,0 UV-I 0 W/m² 9,6 °C 10,5 °C 1,6 km/h (1 Bft)
20.10.2019 05:45 10,7 °C 94 % 1008,3 hPa 0,0 mm 2,4 km/h (1 Bft) O-SO 113 ° 0 min 0,000 mm 0,0 UV-I 0 W/m² 9,8 °C 10,7 °C 4,8 km/h (1 Bft)
20.10.2019 05:46 10,8 °C 93 % 1008,3 hPa 0,0 mm 1,5 km/h (1 Bft) O 86 ° 0 min 0,000 mm 0,0 UV-I 0 W/m² 9,7 °C 10,8 °C 6,4 km/h (2 Bft)
20.10.2019 05:47 11,0 °C 92 % 1008,3 hPa 0,0 mm 2,2 km/h (1 Bft) O 96 ° 0 min 0,000 mm 0,0 UV-I 0 W/m² 9,8 °C 11,0 °C 3,2 km/h (1 Bft)
20.10.2019 05:48 11,1 °C 91 % 1008,3 hPa 0,0 mm 1,5 km/h (1 Bft) O 96 ° 0 min 0,000 mm 0,0 UV-I 0 W/m² 9,7 °C 11,1 °C 3,2 km/h (1 Bft)
20.10.2019 05:49 11,3 °C 91 % 1008,3 hPa 0,0 mm 2,9 km/h (1 Bft) O 96 ° 0 min 0,000 mm 0,0 UV-I 0 W/m² 9,9 °C 11,3 °C 3,2 km/h (1 Bft)
20.10.2019 05:50 11,4 °C 90 % 1008,3 hPa 0,0 mm 2,6 km/h (1 Bft) O 96 ° 0 min 0,000 mm 0,0 UV-I 0 W/m² 9,8 °C 11,4 °C 4,8 km/h (1 Bft)
20.10.2019 05:51 11,4 °C 89 % 1008,4 hPa 0,0 mm 1,5 km/h (1 Bft) O 96 ° 0 min 0,000 mm 0,0 UV-I 0 W/m² 9,7 °C 11,4 °C 3,2 km/h (1 Bft)
20.10.2019 05:52 11,4 °C 89 % 1008,4 hPa 0,0 mm 1,9 km/h (1 Bft) O 96 ° 0 min 0,000 mm 0,0 UV-I 0 W/m² 9,7 °C 11,4 °C 4,8 km/h (1 Bft)
20.10.2019 05:53 11,5 °C 88 % 1008,4 hPa 0,0 mm 1,0 km/h (0 Bft) O 96 ° 0 min 0,000 mm 0,0 UV-I 0 W/m² 9,6 °C 11,5 °C 3,2 km/h (1 Bft)
20.10.2019 05:54 11,5 °C 87 % 1008,4 hPa 0,0 mm 0,3 km/h (0 Bft) O 96 ° 0 min 0,000 mm 0,0 UV-I 0 W/m² 9,4 °C 11,5 °C 1,6 km/h (1 Bft)
20.10.2019 05:55 11,6 °C 86 % 1008,4 hPa 0,0 mm 0,9 km/h (0 Bft) O 96 ° 0 min 0,000 mm 0,0 UV-I 0 W/m² 9,3 °C 11,6 °C 3,2 km/h (1 Bft)
20.10.2019 05:56 11,8 °C 86 % 1008,4 hPa 0,0 mm 1,0 km/h (0 Bft) O 96 ° 0 min 0,000 mm 0,0 UV-I 0 W/m² 9,5 °C 11,8 °C 3,2 km/h (1 Bft)
20.10.2019 05:57 11,8 °C 84 % 1008,4 hPa 0,0 mm 1,1 km/h (1 Bft) O 96 ° 0 min 0,000 mm 0,0 UV-I 0 W/m² 9,2 °C 11,8 °C 3,2 km/h (1 Bft)
20.10.2019 05:58 11,7 °C 85 % 1008,4 hPa 0,0 mm 3,1 km/h (1 Bft) O 96 ° 0 min 0,000 mm 0,0 UV-I 0 W/m² 9,3 °C 11,7 °C 4,8 km/h (1 Bft)
20.10.2019 05:59 11,7 °C 84 % 1008,4 hPa 0,0 mm 2,9 km/h (1 Bft) O 96 ° 0 min 0,000 mm 0,0 UV-I 0 W/m² 9,1 °C 11,7 °C 4,8 km/h (1 Bft)
20.10.2019 06:00 11,7 °C 84 % 1008,3 hPa 0,0 mm 0,9 km/h (0 Bft) O 96 ° 0 min 0,000 mm 0,0 UV-I 0 W/m² 9,1 °C 11,7 °C 3,2 km/h (1 Bft)
20.10.2019 06:01 11,7 °C 84 % 1008,4 hPa 0,0 mm 3,0 km/h (1 Bft) O 96 ° 0 min 0,000 mm 0,0 UV-I 0 W/m² 9,1 °C 11,7 °C 4,8 km/h (1 Bft)
20.10.2019 06:02 11,7 °C 83 % 1008,4 hPa 0,0 mm 2,2 km/h (1 Bft) O 96 ° 0 min 0,000 mm 0,0 UV-I 0 W/m² 8,9 °C 11,7 °C 6,4 km/h (2 Bft)
20.10.2019 06:03 11,7 °C 83 % 1008,3 hPa 0,0 mm 2,8 km/h (1 Bft) O-NO 71 ° 0 min 0,000 mm 0,0 UV-I 0 W/m² 8,9 °C 11,7 °C 6,4 km/h (2 Bft)
20.10.2019 06:04 11,8 °C 82 % 1008,3 hPa 0,0 mm 1,1 km/h (1 Bft) O-NO 71 ° 0 min 0,000 mm 0,0 UV-I 0 W/m² 8,8 °C 11,8 °C 4,8 km/h (1 Bft)
20.10.2019 06:05 11,9 °C 82 % 1008,4 hPa 0,0 mm 1,1 km/h (1 Bft) O-NO 71 ° 0 min 0,000 mm 0,0 UV-I 0 W/m² 8,9 °C 11,9 °C 3,2 km/h (1 Bft)
20.10.2019 06:06 12,0 °C 81 % 1008,4 hPa 0,0 mm 1,7 km/h (1 Bft) O-NO 71 ° 0 min 0,000 mm 0,0 UV-I 0 W/m² 8,8 °C 12,0 °C 3,2 km/h (1 Bft)
20.10.2019 06:07 12,1 °C 81 % 1008,4 hPa 0,0 mm 0,6 km/h (0 Bft) O-NO 71 ° 0 min 0,000 mm 0,0 UV-I 0 W/m² 8,9 °C 12,1 °C 1,6 km/h (1 Bft)
20.10.2019 06:08 12,1 °C 81 % 1008,4 hPa 0,0 mm 1,5 km/h (1 Bft) O-NO 71 ° 0 min 0,000 mm 0,0 UV-I 0 W/m² 8,9 °C 12,1 °C 3,2 km/h (1 Bft)
20.10.2019 06:09 12,2 °C 80 % 1008,4 hPa 0,0 mm 1,8 km/h (1 Bft) O-NO 71 ° 0 min 0,000 mm 0,0 UV-I 0 W/m² 8,9 °C 12,2 °C 4,8 km/h (1 Bft)
20.10.2019 06:10 12,1 °C 80 % 1008,4 hPa 0,0 mm 2,1 km/h (1 Bft) O-NO 71 ° 0 min 0,000 mm 0,0 UV-I 0 W/m² 8,8 °C 12,1 °C 4,8 km/h (1 Bft)
20.10.2019 06:11 12,2 °C 80 % 1008,4 hPa 0,0 mm 2,7 km/h (1 Bft) O-NO 59 ° 0 min 0,000 mm 0,0 UV-I 0 W/m² 8,9 °C 12,2 °C 4,8 km/h (1 Bft)
20.10.2019 06:12 12,2 °C 80 % 1008,3 hPa 0,0 mm 2,8 km/h (1 Bft) O-NO 78 ° 0 min 0,000 mm 0,0 UV-I 0 W/m² 8,9 °C 12,2 °C 4,8 km/h (1 Bft)
20.10.2019 06:13 12,3 °C 80 % 1008,3 hPa 0,0 mm 3,1 km/h (1 Bft) O-NO 78 ° 0 min 0,000 mm 0,0 UV-I 0 W/m² 8,9 °C 12,3 °C 4,8 km/h (1 Bft)
20.10.2019 06:14 12,3 °C 79 % 1008,3 hPa 0,0 mm 1,8 km/h (1 Bft) O-NO 78 ° 0 min 0,000 mm 0,0 UV-I 0 W/m² 8,8 °C 12,3 °C 4,8 km/h (1 Bft)
20.10.2019 06:15 12,4 °C 79 % 1008,3 hPa 0,0 mm 1,9 km/h (1 Bft) O-SO 116 ° 0 min 0,000 mm 0,0 UV-I 0 W/m² 8,9 °C 12,4 °C 4,8 km/h (1 Bft)
20.10.2019 06:16 12,5 °C 78 % 1008,3 hPa 0,0 mm 1,5 km/h (1 Bft) O 84 ° 0 min 0,000 mm 0,0 UV-I 0 W/m² 8,8 °C 12,5 °C 4,8 km/h (1 Bft)
20.10.2019 06:17 12,5 °C 78 % 1008,3 hPa 0,0 mm 3,8 km/h (1 Bft) O 88 ° 0 min 0,000 mm 0,0 UV-I 0 W/m² 8,8 °C 12,5 °C 4,8 km/h (1 Bft)
20.10.2019 06:18 12,5 °C 78 % 1008,3 hPa 0,0 mm 4,8 km/h (1 Bft) O-SO 103 ° 0 min 0,000 mm 0,0 UV-I 0 W/m² 8,8 °C 12,5 °C 12,9 km/h (3 Bft)
20.10.2019 06:19 12,3 °C 78 % 1008,2 hPa 0,0 mm 4,8 km/h (1 Bft) O-SO 120 ° 0 min 0,000 mm 0,0 UV-I 0 W/m² 8,6 °C 12,3 °C 12,9 km/h (3 Bft)
20.10.2019 06:20 12,3 °C 78 % 1008,2 hPa 0,0 mm 3,0 km/h (1 Bft) O-SO 120 ° 0 min 0,000 mm 0,0 UV-I 0 W/m² 8,6 °C 12,3 °C 4,8 km/h (1 Bft)
20.10.2019 06:21 12,3 °C 78 % 1008,3 hPa 0,0 mm 1,6 km/h (1 Bft) O-SO 120 ° 0 min 0,000 mm 0,0 UV-I 0 W/m² 8,6 °C 12,3 °C 3,2 km/h (1 Bft)
20.10.2019 06:22 12,4 °C 78 % 1008,3 hPa 0,0 mm 1,6 km/h (1 Bft) O 93 ° 0 min 0,000 mm 0,0 UV-I 0 W/m² 8,7 °C 12,4 °C 4,8 km/h (1 Bft)
20.10.2019 06:23 12,4 °C 79 % 1008,3 hPa 0,0 mm 3,0 km/h (1 Bft) O-NO 74 ° 0 min 0,000 mm 0,0 UV-I 0 W/m² 8,9 °C 12,4 °C 4,8 km/h (1 Bft)
20.10.2019 06:24 12,4 °C 78 % 1008,3 hPa 0,0 mm 5,1 km/h (1 Bft) SO 136 ° 0 min 0,000 mm 0,0 UV-I 0 W/m² 8,7 °C 12,4 °C 8,0 km/h (2 Bft)
20.10.2019 06:25 12,4 °C 78 % 1008,2 hPa 0,0 mm 4,3 km/h (1 Bft) O-SO 118 ° 0 min 0,000 mm 0,0 UV-I 0 W/m² 8,7 °C 12,4 °C 6,4 km/h (2 Bft)
20.10.2019 06:26 12,4 °C 78 % 1008,3 hPa 0,0 mm 1,5 km/h (1 Bft) O-SO 118 ° 0 min 0,000 mm 0,0 UV-I 0 W/m² 8,7 °C 12,4 °C 4,8 km/h (1 Bft)
20.10.2019 06:27 12,6 °C 78 % 1008,3 hPa 0,0 mm 0,9 km/h (0 Bft) O-SO 118 ° 0 min 0,000 mm 0,0 UV-I 0 W/m² 8,9 °C 12,6 °C 3,2 km/h (1 Bft)
20.10.2019 06:28 12,6 °C 77 % 1008,4 hPa 0,0 mm 1,5 km/h (1 Bft) O-SO 112 ° 0 min 0,000 mm 0,0 UV-I 0 W/m² 8,7 °C 12,6 °C 3,2 km/h (1 Bft)
20.10.2019 06:29 12,6 °C 77 % 1008,4 hPa 0,0 mm 3,1 km/h (1 Bft) O 90 ° 0 min 0,000 mm 0,0 UV-I 0 W/m² 8,7 °C 12,6 °C 4,8 km/h (1 Bft)
20.10.2019 06:30 12,6 °C 77 % 1008,4 hPa 0,0 mm 2,6 km/h (1 Bft) O 90 ° 0 min 0,000 mm 0,0 UV-I 0 W/m² 8,7 °C 12,6 °C 4,8 km/h (1 Bft)
20.10.2019 06:31 12,7 °C 77 % 1008,4 hPa 0,0 mm 0,1 km/h (0 Bft) O 90 ° 0 min 0,000 mm 0,0 UV-I 0 W/m² 8,8 °C 12,7 °C 1,6 km/h (1 Bft)
20.10.2019 06:32 12,7 °C 76 % 1008,4 hPa 0,0 mm 1,8 km/h (1 Bft) O 90 ° 0 min 0,000 mm 0,0 UV-I 0 W/m² 8,6 °C 12,7 °C 4,8 km/h (1 Bft)
20.10.2019 06:33 12,7 °C 76 % 1008,5 hPa 0,0 mm 0,3 km/h (0 Bft) O 90 ° 0 min 0,000 mm 0,0 UV-I 0 W/m² 8,6 °C 12,7 °C 1,6 km/h (1 Bft)
20.10.2019 06:34 12,6 °C 76 % 1008,5 hPa 0,0 mm 0,0 km/h (0 Bft) O 90 ° 0 min 0,000 mm 0,0 UV-I 0 W/m² 8,5 °C 12,6 °C 0,0 km/h (0 Bft)
20.10.2019 06:35 12,5 °C 77 % 1008,5 hPa 0,0 mm 1,5 km/h (1 Bft) O 90 ° 0 min 0,000 mm 0,0 UV-I 0 W/m² 8,6 °C 12,5 °C 3,2 km/h (1 Bft)
20.10.2019 06:36 12,4 °C 78 % 1008,5 hPa 0,0 mm 3,4 km/h (1 Bft) O 90 ° 0 min 0,000 mm 0,0 UV-I 0 W/m² 8,7 °C 12,4 °C 4,8 km/h (1 Bft)
20.10.2019 06:37 12,4 °C 77 % 1008,5 hPa 0,0 mm 5,6 km/h (1 Bft) O-SO 114 ° 0 min 0,000 mm 0,0 UV-I 0 W/m² 8,5 °C 12,4 °C 11,3 km/h (2 Bft)
20.10.2019 06:38 12,5 °C 77 % 1008,5 hPa 0,0 mm 3,2 km/h (1 Bft) O-SO 114 ° 0 min 0,000 mm 0,0 UV-I 0 W/m² 8,6 °C 12,5 °C 4,8 km/h (1 Bft)
20.10.2019 06:39 12,6 °C 77 % 1008,5 hPa 0,0 mm 2,4 km/h (1 Bft) O-SO 114 ° 0 min 0,000 mm 0,0 UV-I 0 W/m² 8,7 °C 12,6 °C 3,2 km/h (1 Bft)
20.10.2019 06:40 12,7 °C 77 % 1008,5 hPa 0,0 mm 2,7 km/h (1 Bft) O-SO 114 ° 0 min 0,000 mm 0,0 UV-I 0 W/m² 8,8 °C 12,7 °C 4,8 km/h (1 Bft)
20.10.2019 06:41 12,8 °C 75 % 1008,5 hPa 0,0 mm 2,5 km/h (1 Bft) O-SO 114 ° 0 min 0,000 mm 0,0 UV-I 0 W/m² 8,5 °C 12,8 °C 4,8 km/h (1 Bft)
20.10.2019 06:42 13,0 °C 75 % 1008,5 hPa 0,0 mm 1,9 km/h (1 Bft) O-SO 114 ° 0 min 0,000 mm 0,0 UV-I 0 W/m² 8,7 °C 13,0 °C 3,2 km/h (1 Bft)
20.10.2019 06:43 13,2 °C 74 % 1008,5 hPa 0,0 mm 1,5 km/h (1 Bft) O-SO 114 ° 0 min 0,000 mm 0,0 UV-I 0 W/m² 8,7 °C 13,2 °C 1,6 km/h (1 Bft)
20.10.2019 06:44 13,3 °C 74 % 1008,5 hPa 0,0 mm 0,5 km/h (0 Bft) O-SO 114 ° 0 min 0,000 mm 0,0 UV-I 0 W/m² 8,8 °C 13,3 °C 3,2 km/h (1 Bft)
20.10.2019 06:45 13,2 °C 74 % 1008,5 hPa 0,0 mm 3,6 km/h (1 Bft) O-SO 114 ° 0 min 0,000 mm 0,0 UV-I 0 W/m² 8,7 °C 13,2 °C 4,8 km/h (1 Bft)
20.10.2019 06:46 13,2 °C 74 % 1008,5 hPa 0,0 mm 2,6 km/h (1 Bft) O-SO 114 ° 0 min 0,000 mm 0,0 UV-I 0 W/m² 8,7 °C 13,2 °C 3,2 km/h (1 Bft)
20.10.2019 06:47 13,2 °C 74 % 1008,5 hPa 0,0 mm 3,2 km/h (1 Bft) O-SO 114 ° 0 min 0,000 mm 0,0 UV-I 0 W/m² 8,7 °C 13,2 °C 4,8 km/h (1 Bft)
20.10.2019 06:48 13,3 °C 74 % 1008,5 hPa 0,0 mm 2,1 km/h (1 Bft) O-SO 114 ° 0 min 0,000 mm 0,0 UV-I 0 W/m² 8,8 °C 13,3 °C 3,2 km/h (1 Bft)
20.10.2019 06:49 13,3 °C 74 % 1008,5 hPa 0,0 mm 2,3 km/h (1 Bft) O-SO 114 ° 0 min 0,000 mm 0,0 UV-I 0 W/m² 8,8 °C 13,3 °C 4,8 km/h (1 Bft)
20.10.2019 06:50 13,2 °C 73 % 1008,5 hPa 0,0 mm 1,9 km/h (1 Bft) O-SO 114 ° 0 min 0,000 mm 0,0 UV-I 0 W/m² 8,5 °C 13,2 °C 3,2 km/h (1 Bft)
20.10.2019 06:51 13,2 °C 75 % 1008,5 hPa 0,0 mm 2,3 km/h (1 Bft) O-SO 114 ° 0 min 0,000 mm 0,0 UV-I 0 W/m² 8,9 °C 13,2 °C 4,8 km/h (1 Bft)
20.10.2019 06:52 13,2 °C 74 % 1008,5 hPa 0,0 mm 3,4 km/h (1 Bft) O-SO 114 ° 0 min 0,000 mm 0,0 UV-I 0 W/m² 8,7 °C 13,2 °C 4,8 km/h (1 Bft)
20.10.2019 06:53 13,2 °C 74 % 1008,5 hPa 0,0 mm 1,7 km/h (1 Bft) O-SO 114 ° 0 min 0,000 mm 0,0 UV-I 0 W/m² 8,7 °C 13,2 °C 3,2 km/h (1 Bft)
20.10.2019 06:54 13,3 °C 73 % 1008,5 hPa 0,0 mm 1,6 km/h (1 Bft) O-SO 114 ° 0 min 0,000 mm 0,0 UV-I 0 W/m² 8,6 °C 13,3 °C 3,2 km/h (1 Bft)
20.10.2019 06:55 13,2 °C 74 % 1008,4 hPa 0,0 mm 0,9 km/h (0 Bft) O-SO 114 ° 0 min 0,000 mm 0,0 UV-I 0 W/m² 8,7 °C 13,2 °C 3,2 km/h (1 Bft)
20.10.2019 06:56 13,2 °C 74 % 1008,4 hPa 0,0 mm 3,1 km/h (1 Bft) O-SO 114 ° 0 min 0,000 mm 0,0 UV-I 0 W/m² 8,7 °C 13,2 °C 4,8 km/h (1 Bft)
20.10.2019 06:57 13,1 °C 74 % 1008,4 hPa 0,0 mm 4,7 km/h (1 Bft) O-NO 71 ° 0 min 0,000 mm 0,0 UV-I 0 W/m² 8,6 °C 13,1 °C 6,4 km/h (2 Bft)
20.10.2019 06:58 13,1 °C 75 % 1008,4 hPa 0,0 mm 3,6 km/h (1 Bft) O-SO 102 ° 0 min 0,000 mm 0,0 UV-I 0 W/m² 8,8 °C 13,1 °C 6,4 km/h (2 Bft)
20.10.2019 06:59 13,1 °C 74 % 1008,4 hPa 0,0 mm 2,4 km/h (1 Bft) O-SO 102 ° 0 min 0,000 mm 0,0 UV-I 0 W/m² 8,6 °C 13,1 °C 3,2 km/h (1 Bft)
20.10.2019 07:00 13,1 °C 74 % 1008,3 hPa 0,0 mm 1,7 km/h (1 Bft) O-SO 102 ° 0 min 0,025 mm 0,0 UV-I 0 W/m² 8,6 °C 13,1 °C 3,2 km/h (1 Bft)
20.10.2019 07:01 13,1 °C 73 % 1008,3 hPa 0,0 mm 2,7 km/h (1 Bft) O-SO 102 ° 0 min 0,000 mm 0,0 UV-I 0 W/m² 8,4 °C 13,1 °C 3,2 km/h (1 Bft)
20.10.2019 07:02 13,0 °C 74 % 1008,3 hPa 0,0 mm 2,9 km/h (1 Bft) O-SO 102 ° 0 min 0,000 mm 0,0 UV-I 0 W/m² 8,5 °C 13,0 °C 3,2 km/h (1 Bft)
20.10.2019 07:03 13,1 °C 74 % 1008,3 hPa 0,0 mm 2,4 km/h (1 Bft) O-SO 102 ° 0 min 0,000 mm 0,0 UV-I 0 W/m² 8,6 °C 13,1 °C 3,2 km/h (1 Bft)
20.10.2019 07:04 13,0 °C 74 % 1008,3 hPa 0,0 mm 0,9 km/h (0 Bft) O-SO 102 ° 0 min 0,000 mm 0,0 UV-I 0 W/m² 8,5 °C 13,0 °C 3,2 km/h (1 Bft)
20.10.2019 07:05 12,9 °C 74 % 1008,3 hPa 0,0 mm 1,5 km/h (1 Bft) O-SO 102 ° 0 min 0,000 mm 0,0 UV-I 0 W/m² 8,4 °C 12,9 °C 4,8 km/h (1 Bft)
20.10.2019 07:06 12,8 °C 75 % 1008,4 hPa 0,0 mm 0,1 km/h (0 Bft) O-SO 102 ° 0 min 0,000 mm 0,0 UV-I 0 W/m² 8,5 °C 12,8 °C 1,6 km/h (1 Bft)
20.10.2019 07:07 12,7 °C 75 % 1008,4 hPa 0,0 mm 2,3 km/h (1 Bft) O-SO 102 ° 0 min 0,000 mm 0,0 UV-I 0 W/m² 8,4 °C 12,7 °C 6,4 km/h (2 Bft)
20.10.2019 07:08 12,7 °C 75 % 1008,4 hPa 0,0 mm 0,0 km/h (0 Bft) O 94 ° 0 min 0,000 mm 0,0 UV-I 0 W/m² 8,4 °C 12,7 °C 0,0 km/h (0 Bft)
20.10.2019 07:09 12,8 °C 75 % 1008,4 hPa 0,0 mm 2,6 km/h (1 Bft) O 100 ° 0 min 0,000 mm 0,0 UV-I 0 W/m² 8,5 °C 12,8 °C 4,8 km/h (1 Bft)
20.10.2019 07:10 12,8 °C 76 % 1008,4 hPa 0,0 mm 0,5 km/h (0 Bft) O 100 ° 0 min 0,000 mm 0,0 UV-I 0 W/m² 8,7 °C 12,8 °C 3,2 km/h (1 Bft)
20.10.2019 07:11 12,8 °C 75 % 1008,4 hPa 0,0 mm 2,6 km/h (1 Bft) O-SO 113 ° 0 min 0,000 mm 0,0 UV-I 0 W/m² 8,5 °C 12,8 °C 6,4 km/h (2 Bft)
20.10.2019 07:12 12,8 °C 75 % 1008,3 hPa 0,0 mm 6,4 km/h (2 Bft) SO 133 ° 0 min 0,000 mm 0,0 UV-I 0 W/m² 8,5 °C 12,8 °C 9,7 km/h (2 Bft)
20.10.2019 07:13 12,7 °C 75 % 1008,3 hPa 0,0 mm 3,9 km/h (1 Bft) NO 55 ° 0 min 0,000 mm 0,0 UV-I 0 W/m² 8,4 °C 12,7 °C 9,7 km/h (2 Bft)
20.10.2019 07:14 12,8 °C 75 % 1008,4 hPa 0,0 mm 5,6 km/h (1 Bft) SO 144 ° 0 min 0,000 mm 0,0 UV-I 0 W/m² 8,5 °C 12,8 °C 11,3 km/h (2 Bft)
20.10.2019 07:15 13,0 °C 75 % 1008,4 hPa 0,0 mm 0,3 km/h (0 Bft) SO 144 ° 0 min 0,000 mm 0,0 UV-I 0 W/m² 8,7 °C 13,0 °C 1,6 km/h (1 Bft)
20.10.2019 07:16 13,0 °C 75 % 1008,4 hPa 0,0 mm 0,0 km/h (0 Bft) SO 144 ° 0 min 0,000 mm 0,0 UV-I 0 W/m² 8,7 °C 13,0 °C 0,0 km/h (0 Bft)
20.10.2019 07:17 13,1 °C 74 % 1008,4 hPa 0,0 mm 1,8 km/h (1 Bft) O 101 ° 0 min 0,000 mm 0,0 UV-I 0 W/m² 8,6 °C 13,1 °C 6,4 km/h (2 Bft)
20.10.2019 07:18 13,2 °C 74 % 1008,4 hPa 0,0 mm 2,5 km/h (1 Bft) O 101 ° 0 min 0,000 mm 0,0 UV-I 0 W/m² 8,7 °C 13,2 °C 6,4 km/h (2 Bft)
20.10.2019 07:19 13,2 °C 74 % 1008,4 hPa 0,0 mm 1,7 km/h (1 Bft) O 97 ° 0 min 0,000 mm 0,0 UV-I 0 W/m² 8,7 °C 13,2 °C 4,8 km/h (1 Bft)
20.10.2019 07:20 13,2 °C 74 % 1008,4 hPa 0,0 mm 4,0 km/h (1 Bft) O 97 ° 0 min 0,000 mm 0,0 UV-I 0 W/m² 8,7 °C 13,2 °C 4,8 km/h (1 Bft)
20.10.2019 07:21 13,3 °C 73 % 1008,4 hPa 0,0 mm 4,6 km/h (1 Bft) O-SO 110 ° 0 min 0,000 mm 0,0 UV-I 0 W/m² 8,6 °C 13,3 °C 9,7 km/h (2 Bft)
20.10.2019 07:22 13,3 °C 73 % 1008,4 hPa 0,0 mm 2,3 km/h (1 Bft) O-SO 110 ° 0 min 0,000 mm 0,0 UV-I 0 W/m² 8,6 °C 13,3 °C 3,2 km/h (1 Bft)
20.10.2019 07:23 13,3 °C 73 % 1008,4 hPa 0,0 mm 3,2 km/h (1 Bft) O-NO 57 ° 0 min 0,000 mm 0,0 UV-I 0 W/m² 8,6 °C 13,3 °C 4,8 km/h (1 Bft)
20.10.2019 07:24 13,2 °C 74 % 1008,4 hPa 0,0 mm 5,0 km/h (1 Bft) O 86 ° 0 min 0,000 mm 0,0 UV-I 0 W/m² 8,7 °C 13,2 °C 6,4 km/h (2 Bft)
20.10.2019 07:25 13,1 °C 74 % 1008,3 hPa 0,0 mm 4,0 km/h (1 Bft) O 84 ° 0 min 0,000 mm 0,0 UV-I 0 W/m² 8,6 °C 13,1 °C 4,8 km/h (1 Bft)
20.10.2019 07:26 13,1 °C 74 % 1008,3 hPa 0,0 mm 4,1 km/h (1 Bft) O 80 ° 0 min 0,000 mm 0,0 UV-I 0 W/m² 8,6 °C 13,1 °C 6,4 km/h (2 Bft)
20.10.2019 07:27 13,0 °C 74 % 1008,3 hPa 0,0 mm 3,1 km/h (1 Bft) O 79 ° 0 min 0,000 mm 0,0 UV-I 0 W/m² 8,5 °C 13,0 °C 6,4 km/h (2 Bft)
20.10.2019 07:28 13,0 °C 74 % 1008,4 hPa 0,0 mm 2,9 km/h (1 Bft) O 79 ° 0 min 0,000 mm 0,0 UV-I 0 W/m² 8,5 °C 13,0 °C 3,2 km/h (1 Bft)
20.10.2019 07:29 13,0 °C 73 % 1008,3 hPa 0,0 mm 1,2 km/h (1 Bft) O 79 ° 0 min 0,000 mm 0,0 UV-I 0 W/m² 8,3 °C 13,0 °C 3,2 km/h (1 Bft)
20.10.2019 07:30 13,0 °C 74 % 1008,3 hPa 0,0 mm 0,5 km/h (0 Bft) O 79 ° 0 min 0,000 mm 0,0 UV-I 0 W/m² 8,5 °C 13,0 °C 3,2 km/h (1 Bft)
20.10.2019 07:31 13,0 °C 74 % 1008,3 hPa 0,0 mm 0,0 km/h (0 Bft) O 79 ° 0 min 0,000 mm 0,0 UV-I 0 W/m² 8,5 °C 13,0 °C 0,0 km/h (0 Bft)
20.10.2019 07:32 12,9 °C 74 % 1008,3 hPa 0,0 mm 0,0 km/h (0 Bft) O 79 ° 0 min 0,000 mm 0,0 UV-I 0 W/m² 8,4 °C 12,9 °C 0,0 km/h (0 Bft)
20.10.2019 07:33 12,9 °C 74 % 1008,2 hPa 0,0 mm 3,6 km/h (1 Bft) O-SO 106 ° 0 min 0,000 mm 0,0 UV-I 0 W/m² 8,4 °C 12,9 °C 4,8 km/h (1 Bft)
20.10.2019 07:34 12,9 °C 75 % 1008,3 hPa 0,0 mm 5,1 km/h (1 Bft) O 88 ° 0 min 0,000 mm 0,0 UV-I 0 W/m² 8,6 °C 12,9 °C 9,7 km/h (2 Bft)
20.10.2019 07:35 12,9 °C 75 % 1008,3 hPa 0,0 mm 4,2 km/h (1 Bft) O 94 ° 0 min 0,000 mm 0,0 UV-I 0 W/m² 8,6 °C 12,9 °C 6,4 km/h (2 Bft)
20.10.2019 07:36 13,1 °C 74 % 1008,3 hPa 0,0 mm 3,2 km/h (1 Bft) O 94 ° 0 min 0,000 mm 0,0 UV-I 0 W/m² 8,6 °C 13,1 °C 4,8 km/h (1 Bft)
20.10.2019 07:37 13,2 °C 73 % 1008,3 hPa 0,0 mm 2,0 km/h (1 Bft) O 94 ° 0 min 0,000 mm 0,0 UV-I 0 W/m² 8,5 °C 13,2 °C 4,8 km/h (1 Bft)
20.10.2019 07:38 13,2 °C 73 % 1008,3 hPa 0,0 mm 1,5 km/h (1 Bft) O 94 ° 0 min 0,000 mm 0,0 UV-I 0 W/m² 8,5 °C 13,2 °C 3,2 km/h (1 Bft)
20.10.2019 07:39 13,2 °C 73 % 1008,4 hPa 0,0 mm 1,6 km/h (1 Bft) O 94 ° 0 min 0,000 mm 0,0 UV-I 0 W/m² 8,5 °C 13,2 °C 3,2 km/h (1 Bft)
20.10.2019 07:40 13,3 °C 73 % 1008,4 hPa 0,0 mm 2,4 km/h (1 Bft) O 94 ° 0 min 0,000 mm 0,0 UV-I 0 W/m² 8,6 °C 13,3 °C 4,8 km/h (1 Bft)
20.10.2019 07:41 13,4 °C 73 % 1008,4 hPa 0,0 mm 0,4 km/h (0 Bft) O 94 ° 0 min 0,000 mm 0,0 UV-I 0 W/m² 8,7 °C 13,4 °C 3,2 km/h (1 Bft)
20.10.2019 07:42 13,3 °C 73 % 1008,4 hPa 0,0 mm 2,6 km/h (1 Bft) O-NO 68 ° 0 min 0,000 mm 0,0 UV-I 0 W/m² 8,6 °C 13,3 °C 4,8 km/h (1 Bft)
20.10.2019 07:43 13,1 °C 74 % 1008,3 hPa 0,0 mm 8,2 km/h (2 Bft) O-SO 119 ° 0 min 0,000 mm 0,0 UV-I 0 W/m² 8,6 °C 13,1 °C 14,5 km/h (3 Bft)
20.10.2019 07:44 13,1 °C 74 % 1008,3 hPa 0,0 mm 2,8 km/h (1 Bft) O-SO 119 ° 0 min 0,000 mm 0,0 UV-I 0 W/m² 8,6 °C 13,1 °C 4,8 km/h (1 Bft)
20.10.2019 07:45 13,1 °C 74 % 1008,3 hPa 0,0 mm 2,9 km/h (1 Bft) O-NO 71 ° 0 min 0,000 mm 0,0 UV-I 0 W/m² 8,6 °C 13,1 °C 4,8 km/h (1 Bft)
20.10.2019 07:46 13,2 °C 73 % 1008,3 hPa 0,0 mm 2,9 km/h (1 Bft) O-NO 71 ° 0 min 0,000 mm 0,0 UV-I 0 W/m² 8,5 °C 13,2 °C 4,8 km/h (1 Bft)
20.10.2019 07:47 13,4 °C 72 % 1008,3 hPa 0,0 mm 3,3 km/h (1 Bft) SO 138 ° 0 min 0,000 mm 0,0 UV-I 0 W/m² 8,5 °C 13,4 °C 4,8 km/h (1 Bft)
20.10.2019 07:48 13,4 °C 72 % 1008,3 hPa 0,0 mm 2,6 km/h (1 Bft) SO 138 ° 0 min 0,000 mm 0,0 UV-I 0 W/m² 8,5 °C 13,4 °C 6,4 km/h (2 Bft)
20.10.2019 07:49 13,4 °C 72 % 1008,3 hPa 0,0 mm 0,0 km/h (0 Bft) SO 138 ° 0 min 0,000 mm 0,0 UV-I 5 W/m² 8,5 °C 13,4 °C 0,0 km/h (0 Bft)
20.10.2019 07:50 13,4 °C 72 % 1008,3 hPa 0,0 mm 0,0 km/h (0 Bft) SO 138 ° 0 min 0,000 mm 0,0 UV-I 5 W/m² 8,5 °C 13,4 °C 0,0 km/h (0 Bft)
20.10.2019 07:51 13,3 °C 73 % 1008,3 hPa 0,0 mm 1,4 km/h (1 Bft) SO 138 ° 0 min 0,000 mm 0,0 UV-I 5 W/m² 8,6 °C 13,3 °C 4,8 km/h (1 Bft)
20.10.2019 07:52 13,1 °C 73 % 1008,2 hPa 0,0 mm 2,7 km/h (1 Bft) SO 138 ° 0 min 0,000 mm 0,0 UV-I 5 W/m² 8,4 °C 13,1 °C 4,8 km/h (1 Bft)
20.10.2019 07:53 13,1 °C 73 % 1008,2 hPa 0,0 mm 4,2 km/h (1 Bft) SO 138 ° 0 min 0,000 mm 0,0 UV-I 5 W/m² 8,4 °C 13,1 °C 4,8 km/h (1 Bft)
20.10.2019 07:54 13,2 °C 73 % 1008,3 hPa 0,0 mm 0,1 km/h (0 Bft) SO 138 ° 0 min 0,000 mm 0,0 UV-I 5 W/m² 8,5 °C 13,2 °C 1,6 km/h (1 Bft)
20.10.2019 07:55 13,4 °C 73 % 1008,3 hPa 0,0 mm 3,6 km/h (1 Bft) O-SO 116 ° 0 min 0,000 mm 0,0 UV-I 7 W/m² 8,7 °C 13,4 °C 6,4 km/h (2 Bft)
20.10.2019 07:56 13,5 °C 72 % 1008,3 hPa 0,0 mm 3,3 km/h (1 Bft) O-NO 72 ° 0 min 0,000 mm 0,0 UV-I 7 W/m² 8,6 °C 13,5 °C 4,8 km/h (1 Bft)
20.10.2019 07:57 13,5 °C 72 % 1008,3 hPa 0,0 mm 2,9 km/h (1 Bft) O-SO 106 ° 0 min 0,000 mm 0,0 UV-I 7 W/m² 8,6 °C 13,5 °C 4,8 km/h (1 Bft)
20.10.2019 07:58 13,4 °C 72 % 1008,3 hPa 0,0 mm 1,3 km/h (1 Bft) O-SO 106 ° 0 min 0,000 mm 0,0 UV-I 7 W/m² 8,5 °C 13,4 °C 3,2 km/h (1 Bft)
20.10.2019 07:59 13,3 °C 72 % 1008,3 hPa 0,0 mm 1,5 km/h (1 Bft) N 350 ° 0 min 0,000 mm 0,0 UV-I 9 W/m² 8,4 °C 13,3 °C 3,2 km/h (1 Bft)
20.10.2019 08:00 13,2 °C 73 % 1008,4 hPa 0,0 mm 0,0 km/h (0 Bft) N 351 ° 0 min 0,026 mm 0,0 UV-I 9 W/m² 8,5 °C 13,2 °C 0,0 km/h (0 Bft)
20.10.2019 08:01 13,2 °C 73 % 1008,4 hPa 0,0 mm 0,0 km/h (0 Bft) N 351 ° 0 min 0,000 mm 0,0 UV-I 9 W/m² 8,5 °C 13,2 °C 0,0 km/h (0 Bft)
20.10.2019 08:02 13,2 °C 73 % 1008,4 hPa 0,0 mm 0,0 km/h (0 Bft) N 351 ° 0 min 0,000 mm 0,0 UV-I 9 W/m² 8,5 °C 13,2 °C 0,0 km/h (0 Bft)
20.10.2019 08:03 13,2 °C 73 % 1008,4 hPa 0,0 mm 0,0 km/h (0 Bft) N 351 ° 0 min 0,000 mm 0,0 UV-I 11 W/m² 8,5 °C 13,2 °C 0,0 km/h (0 Bft)
20.10.2019 08:04 13,2 °C 73 % 1008,4 hPa 0,0 mm 0,0 km/h (0 Bft) N 351 ° 0 min 0,000 mm 0,0 UV-I 11 W/m² 8,5 °C 13,2 °C 0,0 km/h (0 Bft)
20.10.2019 08:05 13,1 °C 73 % 1008,4 hPa 0,0 mm 0,0 km/h (0 Bft) NO 44 ° 0 min 0,000 mm 0,0 UV-I 11 W/m² 8,4 °C 13,1 °C 0,0 km/h (0 Bft)
20.10.2019 08:06 13,0 °C 74 % 1008,4 hPa 0,0 mm 0,0 km/h (0 Bft) NO 44 ° 0 min 0,000 mm 0,0 UV-I 12 W/m² 8,5 °C 13,0 °C 0,0 km/h (0 Bft)
20.10.2019 08:07 12,9 °C 74 % 1008,4 hPa 0,0 mm 0,0 km/h (0 Bft) O-SO 123 ° 0 min 0,000 mm 0,0 UV-I 12 W/m² 8,4 °C 12,9 °C 0,0 km/h (0 Bft)
20.10.2019 08:08 13,1 °C 74 % 1008,4 hPa 0,0 mm 0,0 km/h (0 Bft) O-SO 107 ° 0 min 0,000 mm 0,0 UV-I 14 W/m² 8,6 °C 13,1 °C 0,0 km/h (0 Bft)
20.10.2019 08:09 13,2 °C 72 % 1008,4 hPa 0,0 mm 5,0 km/h (1 Bft) O 86 ° 0 min 0,000 mm 0,0 UV-I 14 W/m² 8,3 °C 13,2 °C 6,4 km/h (2 Bft)
20.10.2019 08:10 13,5 °C 72 % 1008,4 hPa 0,0 mm 2,4 km/h (1 Bft) O 86 ° 0 min 0,000 mm 0,0 UV-I 16 W/m² 8,6 °C 13,5 °C 3,2 km/h (1 Bft)
20.10.2019 08:11 13,8 °C 72 % 1008,4 hPa 0,0 mm 3,0 km/h (1 Bft) O 86 ° 0 min 0,000 mm 0,0 UV-I 18 W/m² 8,8 °C 13,8 °C 4,8 km/h (1 Bft)
20.10.2019 08:12 14,1 °C 70 % 1008,4 hPa 0,0 mm 2,5 km/h (1 Bft) O 86 ° 0 min 0,000 mm 0,0 UV-I 18 W/m² 8,7 °C 14,1 °C 3,2 km/h (1 Bft)
20.10.2019 08:13 14,3 °C 68 % 1008,5 hPa 0,0 mm 1,8 km/h (1 Bft) O 86 ° 0 min 0,000 mm 0,0 UV-I 19 W/m² 8,5 °C 14,3 °C 4,8 km/h (1 Bft)
20.10.2019 08:14 14,5 °C 68 % 1008,5 hPa 0,0 mm 2,0 km/h (1 Bft) O 86 ° 0 min 0,000 mm 0,0 UV-I 19 W/m² 8,7 °C 14,5 °C 3,2 km/h (1 Bft)
20.10.2019 08:15 14,7 °C 67 % 1008,5 hPa 0,0 mm 3,0 km/h (1 Bft) O 94 ° 0 min 0,000 mm 0,0 UV-I 19 W/m² 8,6 °C 14,7 °C 4,8 km/h (1 Bft)
20.10.2019 08:16 14,8 °C 68 % 1008,5 hPa 0,0 mm 0,1 km/h (0 Bft) O 94 ° 0 min 0,000 mm 0,0 UV-I 21 W/m² 9,0 °C 14,8 °C 1,6 km/h (1 Bft)
20.10.2019 08:17 14,6 °C 69 % 1008,5 hPa 0,0 mm 0,4 km/h (0 Bft) O 94 ° 0 min 0,000 mm 0,0 UV-I 23 W/m² 9,0 °C 14,6 °C 1,6 km/h (1 Bft)
20.10.2019 08:18 14,6 °C 68 % 1008,5 hPa 0,0 mm 1,0 km/h (0 Bft) O 94 ° 0 min 0,000 mm 0,0 UV-I 23 W/m² 8,8 °C 14,6 °C 3,2 km/h (1 Bft)
20.10.2019 08:19 14,4 °C 69 % 1008,4 hPa 0,0 mm 0,0 km/h (0 Bft) O 94 ° 0 min 0,000 mm 0,0 UV-I 25 W/m² 8,8 °C 14,4 °C 0,0 km/h (0 Bft)
20.10.2019 08:20 14,4 °C 69 % 1008,4 hPa 0,0 mm 0,1 km/h (0 Bft) NO 55 ° 0 min 0,000 mm 0,0 UV-I 25 W/m² 8,8 °C 14,4 °C 3,2 km/h (1 Bft)
20.10.2019 08:21 14,4 °C 68 % 1008,5 hPa 0,0 mm 3,2 km/h (1 Bft) O-NO 58 ° 0 min 0,000 mm 0,0 UV-I 26 W/m² 8,6 °C 14,4 °C 6,4 km/h (2 Bft)
20.10.2019 08:22 14,5 °C 68 % 1008,5 hPa 0,0 mm 3,3 km/h (1 Bft) S 171 ° 0 min 0,000 mm 0,0 UV-I 26 W/m² 8,7 °C 14,5 °C 6,4 km/h (2 Bft)
20.10.2019 08:23 14,6 °C 68 % 1008,5 hPa 0,0 mm 0,2 km/h (0 Bft) S 186 ° 0 min 0,000 mm 0,0 UV-I 28 W/m² 8,8 °C 14,6 °C 1,6 km/h (1 Bft)
20.10.2019 08:24 14,5 °C 69 % 1008,5 hPa 0,0 mm 0,0 km/h (0 Bft) S 186 ° 0 min 0,000 mm 0,0 UV-I 28 W/m² 8,9 °C 14,5 °C 0,0 km/h (0 Bft)
20.10.2019 08:25 14,4 °C 68 % 1008,5 hPa 0,0 mm 0,0 km/h (0 Bft) S 186 ° 0 min 0,000 mm 0,0 UV-I 28 W/m² 8,6 °C 14,4 °C 0,0 km/h (0 Bft)
20.10.2019 08:26 14,3 °C 70 % 1008,5 hPa 0,0 mm 0,0 km/h (0 Bft) S 186 ° 0 min 0,000 mm 0,0 UV-I 30 W/m² 8,9 °C 14,3 °C 0,0 km/h (0 Bft)
20.10.2019 08:27 14,3 °C 69 % 1008,5 hPa 0,0 mm 0,0 km/h (0 Bft) S 186 ° 0 min 0,000 mm 0,0 UV-I 30 W/m² 8,7 °C 14,3 °C 0,0 km/h (0 Bft)
20.10.2019 08:28 14,4 °C 69 % 1008,5 hPa 0,0 mm 0,0 km/h (0 Bft) S 186 ° 0 min 0,000 mm 0,0 UV-I 32 W/m² 8,8 °C 14,4 °C 0,0 km/h (0 Bft)
20.10.2019 08:29 14,6 °C 69 % 1008,5 hPa 0,0 mm 0,0 km/h (0 Bft) S 186 ° 0 min 0,000 mm 0,0 UV-I 35 W/m² 9,0 °C 14,6 °C 0,0 km/h (0 Bft)
20.10.2019 08:30 14,5 °C 69 % 1008,5 hPa 0,0 mm 0,0 km/h (0 Bft) S 186 ° 0 min 0,000 mm 0,0 UV-I 37 W/m² 8,9 °C 14,5 °C 0,0 km/h (0 Bft)
20.10.2019 08:31 14,6 °C 70 % 1008,5 hPa 0,0 mm 0,0 km/h (0 Bft) S 186 ° 0 min 0,000 mm 0,0 UV-I 39 W/m² 9,2 °C 14,6 °C 0,0 km/h (0 Bft)
20.10.2019 08:32 14,5 °C 69 % 1008,5 hPa 0,0 mm 0,0 km/h (0 Bft) S 186 ° 0 min 0,000 mm 0,0 UV-I 42 W/m² 8,9 °C 14,5 °C 0,0 km/h (0 Bft)
20.10.2019 08:33 14,3 °C 71 % 1008,5 hPa 0,0 mm 0,0 km/h (0 Bft) S 186 ° 0 min 0,000 mm 0,0 UV-I 42 W/m² 9,1 °C 14,3 °C 0,0 km/h (0 Bft)
20.10.2019 08:34 14,2 °C 71 % 1008,5 hPa 0,0 mm 0,0 km/h (0 Bft) S 186 ° 0 min 0,000 mm 0,0 UV-I 44 W/m² 9,0 °C 14,2 °C 0,0 km/h (0 Bft)
20.10.2019 08:35 14,3 °C 70 % 1008,5 hPa 0,0 mm 0,0 km/h (0 Bft) S 186 ° 0 min 0,000 mm 0,0 UV-I 46 W/m² 8,9 °C 14,3 °C 0,0 km/h (0 Bft)
20.10.2019 08:36 14,4 °C 70 % 1008,5 hPa 0,0 mm 0,0 km/h (0 Bft) S 186 ° 0 min 0,000 mm 0,0 UV-I 46 W/m² 9,0 °C 14,4 °C 0,0 km/h (0 Bft)
20.10.2019 08:37 14,6 °C 69 % 1008,5 hPa 0,0 mm 0,0 km/h (0 Bft) S 186 ° 0 min 0,000 mm 0,0 UV-I 47 W/m² 9,0 °C 14,6 °C 0,0 km/h (0 Bft)
20.10.2019 08:38 14,7 °C 69 % 1008,4 hPa 0,0 mm 0,0 km/h (0 Bft) S 185 ° 0 min 0,000 mm 0,0 UV-I 47 W/m² 9,1 °C 14,7 °C 0,0 km/h (0 Bft)
20.10.2019 08:39 14,8 °C 68 % 1008,4 hPa 0,0 mm 0,0 km/h (0 Bft) S 185 ° 0 min 0,000 mm 0,0 UV-I 47 W/m² 9,0 °C 14,8 °C 0,0 km/h (0 Bft)
20.10.2019 08:40 14,9 °C 68 % 1008,4 hPa 0,0 mm 0,0 km/h (0 Bft) S 185 ° 0 min 0,000 mm 0,0 UV-I 47 W/m² 9,0 °C 14,9 °C 0,0 km/h (0 Bft)
20.10.2019 08:41 15,1 °C 67 % 1008,4 hPa 0,0 mm 0,0 km/h (0 Bft) S 185 ° 0 min 0,000 mm 0,0 UV-I 49 W/m² 9,0 °C 15,1 °C 0,0 km/h (0 Bft)
20.10.2019 08:42 15,2 °C 67 % 1008,4 hPa 0,0 mm 0,0 km/h (0 Bft) S 185 ° 0 min 0,000 mm 0,0 UV-I 51 W/m² 9,1 °C 15,2 °C 0,0 km/h (0 Bft)
20.10.2019 08:43 15,3 °C 67 % 1008,4 hPa 0,0 mm 0,0 km/h (0 Bft) S 185 ° 0 min 0,000 mm 0,0 UV-I 51 W/m² 9,2 °C 15,3 °C 0,0 km/h (0 Bft)
20.10.2019 08:44 15,4 °C 67 % 1008,4 hPa 0,0 mm 0,0 km/h (0 Bft) S 185 ° 0 min 0,000 mm 0,0 UV-I 51 W/m² 9,3 °C 15,4 °C 0,0 km/h (0 Bft)
20.10.2019 08:45 15,4 °C 67 % 1008,4 hPa 0,0 mm 0,0 km/h (0 Bft) S 185 ° 0 min 0,000 mm 0,0 UV-I 49 W/m² 9,3 °C 15,4 °C 0,0 km/h (0 Bft)
20.10.2019 08:46 15,4 °C 67 % 1008,4 hPa 0,0 mm 0,0 km/h (0 Bft) S 185 ° 0 min 0,000 mm 0,0 UV-I 49 W/m² 9,3 °C 15,4 °C 0,0 km/h (0 Bft)
20.10.2019 08:47 15,4 °C 68 % 1008,5 hPa 0,0 mm 0,0 km/h (0 Bft) S 185 ° 0 min 0,000 mm 0,0 UV-I 47 W/m² 9,5 °C 15,4 °C 0,0 km/h (0 Bft)
20.10.2019 08:48 15,3 °C 67 % 1008,5 hPa 0,0 mm 0,0 km/h (0 Bft) S 185 ° 0 min 0,000 mm 0,0 UV-I 47 W/m² 9,2 °C 15,3 °C 0,0 km/h (0 Bft)
20.10.2019 08:49 15,3 °C 69 % 1008,5 hPa 0,0 mm 0,0 km/h (0 Bft) S 185 ° 0 min 0,000 mm 0,0 UV-I 46 W/m² 9,6 °C 15,3 °C 0,0 km/h (0 Bft)
20.10.2019 08:50 15,3 °C 66 % 1008,5 hPa 0,0 mm 0,0 km/h (0 Bft) S 185 ° 0 min 0,000 mm 0,0 UV-I 46 W/m² 9,0 °C 15,3 °C 0,0 km/h (0 Bft)
20.10.2019 08:51 15,2 °C 68 % 1008,5 hPa 0,0 mm 0,0 km/h (0 Bft) S 185 ° 0 min 0,000 mm 0,0 UV-I 46 W/m² 9,3 °C 15,2 °C 0,0 km/h (0 Bft)
20.10.2019 08:52 15,3 °C 67 % 1008,5 hPa 0,0 mm 0,0 km/h (0 Bft) S 185 ° 0 min 0,000 mm 0,0 UV-I 44 W/m² 9,2 °C 15,3 °C 0,0 km/h (0 Bft)
20.10.2019 08:53 15,3 °C 67 % 1008,5 hPa 0,0 mm 0,0 km/h (0 Bft) S-SO 159 ° 0 min 0,000 mm 0,0 UV-I 44 W/m² 9,2 °C 15,3 °C 0,0 km/h (0 Bft)
20.10.2019 08:54 15,3 °C 67 % 1008,5 hPa 0,0 mm 0,0 km/h (0 Bft) S-SO 159 ° 0 min 0,000 mm 0,0 UV-I 46 W/m² 9,2 °C 15,3 °C 0,0 km/h (0 Bft)
20.10.2019 08:55 15,3 °C 69 % 1008,5 hPa 0,0 mm 0,0 km/h (0 Bft) S-SO 159 ° 0 min 0,000 mm 0,0 UV-I 46 W/m² 9,6 °C 15,3 °C 0,0 km/h (0 Bft)
20.10.2019 08:56 15,2 °C 69 % 1008,5 hPa 0,0 mm 0,0 km/h (0 Bft) S-SO 159 ° 0 min 0,000 mm 0,0 UV-I 46 W/m² 9,6 °C 15,2 °C 0,0 km/h (0 Bft)
20.10.2019 08:57 15,1 °C 70 % 1008,4 hPa 0,0 mm 0,0 km/h (0 Bft) S-SO 158 ° 0 min 0,000 mm 0,0 UV-I 46 W/m² 9,7 °C 15,1 °C 0,0 km/h (0 Bft)
20.10.2019 08:58 15,1 °C 69 % 1008,4 hPa 0,0 mm 0,0 km/h (0 Bft) S-SO 155 ° 0 min 0,000 mm 0,0 UV-I 47 W/m² 9,5 °C 15,1 °C 0,0 km/h (0 Bft)
20.10.2019 08:59 15,1 °C 70 % 1008,4 hPa 0,0 mm 0,0 km/h (0 Bft) O-SO 103 ° 0 min 0,000 mm 0,0 UV-I 47 W/m² 9,7 °C 15,1 °C 0,0 km/h (0 Bft)
20.10.2019 09:00 15,1 °C 70 % 1008,4 hPa 0,0 mm 0,0 km/h (0 Bft) O-SO 103 ° 0 min 0,000 mm 0,0 UV-I 47 W/m² 9,7 °C 15,1 °C 0,0 km/h (0 Bft)
20.10.2019 09:01 14,9 °C 70 % 1008,4 hPa 0,0 mm 0,0 km/h (0 Bft) O-SO 103 ° 0 min 0,025 mm 0,0 UV-I 49 W/m² 9,5 °C 14,9 °C 0,0 km/h (0 Bft)
20.10.2019 09:02 14,9 °C 70 % 1008,4 hPa 0,0 mm 0,0 km/h (0 Bft) O-SO 103 ° 0 min 0,000 mm 0,0 UV-I 49 W/m² 9,5 °C 14,9 °C 0,0 km/h (0 Bft)
20.10.2019 09:03 14,9 °C 70 % 1008,4 hPa 0,0 mm 0,0 km/h (0 Bft) O-SO 103 ° 0 min 0,000 mm 0,0 UV-I 49 W/m² 9,5 °C 14,9 °C 0,0 km/h (0 Bft)
20.10.2019 09:04 15,1 °C 68 % 1008,3 hPa 0,0 mm 0,0 km/h (0 Bft) O-SO 103 ° 0 min 0,000 mm 0,0 UV-I 49 W/m² 9,2 °C 15,1 °C 0,0 km/h (0 Bft)
20.10.2019 09:05 15,1 °C 69 % 1008,3 hPa 0,0 mm 0,0 km/h (0 Bft) O-SO 103 ° 0 min 0,000 mm 0,0 UV-I 51 W/m² 9,5 °C 15,1 °C 0,0 km/h (0 Bft)
20.10.2019 09:06 15,1 °C 69 % 1008,4 hPa 0,0 mm 0,0 km/h (0 Bft) O-SO 103 ° 0 min 0,000 mm 0,0 UV-I 51 W/m² 9,5 °C 15,1 °C 0,0 km/h (0 Bft)
20.10.2019 09:07 15,2 °C 69 % 1008,4 hPa 0,0 mm 0,0 km/h (0 Bft) O-SO 103 ° 0 min 0,000 mm 0,0 UV-I 53 W/m² 9,6 °C 15,2 °C 0,0 km/h (0 Bft)
20.10.2019 09:08 15,1 °C 69 % 1008,4 hPa 0,0 mm 0,0 km/h (0 Bft) O-SO 103 ° 0 min 0,000 mm 0,0 UV-I 53 W/m² 9,5 °C 15,1 °C 0,0 km/h (0 Bft)
20.10.2019 09:09 15,2 °C 67 % 1008,4 hPa 0,0 mm 0,0 km/h (0 Bft) O-SO 103 ° 0 min 0,000 mm 0,0 UV-I 53 W/m² 9,1 °C 15,2 °C 0,0 km/h (0 Bft)
20.10.2019 09:10 15,3 °C 66 % 1008,4 hPa 0,0 mm 0,0 km/h (0 Bft) O-SO 103 ° 0 min 0,000 mm 0,0 UV-I 53 W/m² 9,0 °C 15,3 °C 0,0 km/h (0 Bft)
20.10.2019 09:11 15,5 °C 66 % 1008,4 hPa 0,0 mm 0,0 km/h (0 Bft) O-SO 103 ° 0 min 0,000 mm 0,0 UV-I 53 W/m² 9,2 °C 15,5 °C 0,0 km/h (0 Bft)
20.10.2019 09:12 15,4 °C 69 % 1008,3 hPa 0,0 mm 1,3 km/h (1 Bft) O-SO 105 ° 0 min 0,000 mm 0,0 UV-I 53 W/m² 9,7 °C 15,4 °C 3,2 km/h (1 Bft)
20.10.2019 09:13 15,6 °C 66 % 1008,3 hPa 0,0 mm 1,2 km/h (1 Bft) O 99 ° 0 min 0,000 mm 0,0 UV-I 51 W/m² 9,3 °C 15,6 °C 3,2 km/h (1 Bft)
20.10.2019 09:14 15,6 °C 66 % 1008,2 hPa 0,0 mm 3,6 km/h (1 Bft) NO 53 ° 0 min 0,000 mm 0,0 UV-I 51 W/m² 9,3 °C 15,6 °C 6,4 km/h (2 Bft)
20.10.2019 09:15 15,6 °C 67 % 1008,3 hPa 0,0 mm 1,2 km/h (1 Bft) O-NO 61 ° 0 min 0,000 mm 0,0 UV-I 49 W/m² 9,5 °C 15,6 °C 3,2 km/h (1 Bft)
20.10.2019 09:16 15,6 °C 67 % 1008,3 hPa 0,0 mm 1,0 km/h (0 Bft) O-NO 61 ° 0 min 0,000 mm 0,0 UV-I 49 W/m² 9,5 °C 15,6 °C 3,2 km/h (1 Bft)
20.10.2019 09:17 15,6 °C 68 % 1008,3 hPa 0,0 mm 0,4 km/h (0 Bft) O-NO 61 ° 0 min 0,000 mm 0,0 UV-I 47 W/m² 9,7 °C 15,6 °C 3,2 km/h (1 Bft)
20.10.2019 09:18 15,4 °C 68 % 1008,4 hPa 0,0 mm 2,0 km/h (1 Bft) O-NO 61 ° 0 min 0,000 mm 0,0 UV-I 47 W/m² 9,5 °C 15,4 °C 3,2 km/h (1 Bft)
20.10.2019 09:19 15,4 °C 67 % 1008,4 hPa 0,0 mm 0,5 km/h (0 Bft) O-NO 61 ° 0 min 0,000 mm 0,0 UV-I 46 W/m² 9,3 °C 15,4 °C 3,2 km/h (1 Bft)
20.10.2019 09:20 15,5 °C 65 % 1008,4 hPa 0,0 mm 0,2 km/h (0 Bft) O-NO 61 ° 0 min 0,000 mm 0,0 UV-I 46 W/m² 8,9 °C 15,5 °C 1,6 km/h (1 Bft)
20.10.2019 09:21 15,4 °C 67 % 1008,4 hPa 0,0 mm 0,0 km/h (0 Bft) O-NO 61 ° 0 min 0,000 mm 0,0 UV-I 46 W/m² 9,3 °C 15,4 °C 0,0 km/h (0 Bft)
20.10.2019 09:22 15,4 °C 68 % 1008,4 hPa 0,0 mm 1,7 km/h (1 Bft) O-NO 61 ° 0 min 0,000 mm 0,0 UV-I 44 W/m² 9,5 °C 15,4 °C 3,2 km/h (1 Bft)
20.10.2019 09:23 15,3 °C 67 % 1008,4 hPa 0,0 mm 2,0 km/h (1 Bft) O 94 ° 0 min 0,000 mm 0,0 UV-I 42 W/m² 9,2 °C 15,3 °C 4,8 km/h (1 Bft)
20.10.2019 09:24 15,2 °C 69 % 1008,4 hPa 0,0 mm 4,0 km/h (1 Bft) O 96 ° 0 min 0,000 mm 0,0 UV-I 42 W/m² 9,6 °C 15,2 °C 4,8 km/h (1 Bft)
20.10.2019 09:25 15,3 °C 68 % 1008,3 hPa 0,0 mm 2,5 km/h (1 Bft) O 96 ° 0 min 0,000 mm 0,0 UV-I 42 W/m² 9,4 °C 15,3 °C 4,8 km/h (1 Bft)
20.10.2019 09:26 15,2 °C 68 % 1008,4 hPa 0,0 mm 0,5 km/h (0 Bft) O 96 ° 0 min 0,000 mm 0,0 UV-I 42 W/m² 9,3 °C 15,2 °C 1,6 km/h (1 Bft)
20.10.2019 09:27 15,2 °C 68 % 1008,3 hPa 0,0 mm 0,5 km/h (0 Bft) O 96 ° 0 min 0,000 mm 0,0 UV-I 42 W/m² 9,3 °C 15,2 °C 1,6 km/h (1 Bft)
20.10.2019 09:28 15,1 °C 70 % 1008,3 hPa 0,0 mm 2,0 km/h (1 Bft) O-NO 67 ° 0 min 0,000 mm 0,0 UV-I 42 W/m² 9,7 °C 15,1 °C 3,2 km/h (1 Bft)
20.10.2019 09:29 15,0 °C 69 % 1008,3 hPa 0,0 mm 2,0 km/h (1 Bft) O-NO 67 ° 0 min 0,000 mm 0,0 UV-I 42 W/m² 9,4 °C 15,0 °C 4,8 km/h (1 Bft)
20.10.2019 09:30 15,1 °C 68 % 1008,3 hPa 0,0 mm 1,3 km/h (1 Bft) O-NO 67 ° 0 min 0,000 mm 0,0 UV-I 42 W/m² 9,2 °C 15,1 °C 3,2 km/h (1 Bft)
20.10.2019 09:31 15,1 °C 68 % 1008,4 hPa 0,0 mm 2,3 km/h (1 Bft) O-SO 117 ° 0 min 0,000 mm 0,0 UV-I 42 W/m² 9,2 °C 15,1 °C 3,2 km/h (1 Bft)
20.10.2019 09:32 15,1 °C 69 % 1008,4 hPa 0,0 mm 2,5 km/h (1 Bft) O-SO 117 ° 0 min 0,000 mm 0,0 UV-I 42 W/m² 9,5 °C 15,1 °C 4,8 km/h (1 Bft)
20.10.2019 09:33 15,2 °C 66 % 1008,4 hPa 0,0 mm 1,7 km/h (1 Bft) O-SO 117 ° 0 min 0,000 mm 0,0 UV-I 44 W/m² 8,9 °C 15,2 °C 3,2 km/h (1 Bft)
20.10.2019 09:34 15,2 °C 68 % 1008,4 hPa 0,0 mm 0,5 km/h (0 Bft) O-SO 116 ° 0 min 0,000 mm 0,0 UV-I 46 W/m² 9,3 °C 15,2 °C 3,2 km/h (1 Bft)
20.10.2019 09:35 15,1 °C 68 % 1008,4 hPa 0,0 mm 3,2 km/h (1 Bft) O-SO 117 ° 0 min 0,000 mm 0,0 UV-I 47 W/m² 9,2 °C 15,1 °C 4,8 km/h (1 Bft)
20.10.2019 09:36 15,1 °C 68 % 1008,4 hPa 0,0 mm 0,9 km/h (0 Bft) S 190 ° 0 min 0,000 mm 0,0 UV-I 49 W/m² 9,2 °C 15,1 °C 4,8 km/h (1 Bft)
20.10.2019 09:37 15,2 °C 67 % 1008,5 hPa 0,0 mm 3,9 km/h (1 Bft) S 190 ° 0 min 0,000 mm 0,0 UV-I 51 W/m² 9,1 °C 15,2 °C 8,0 km/h (2 Bft)
20.10.2019 09:38 15,2 °C 67 % 1008,5 hPa 0,0 mm 0,0 km/h (0 Bft) S 190 ° 0 min 0,000 mm 0,0 UV-I 51 W/m² 9,1 °C 15,2 °C 0,0 km/h (0 Bft)
20.10.2019 09:39 15,2 °C 68 % 1008,4 hPa 0,0 mm 0,0 km/h (0 Bft) S 190 ° 0 min 0,000 mm 0,0 UV-I 54 W/m² 9,3 °C 15,2 °C 0,0 km/h (0 Bft)
20.10.2019 09:40 15,2 °C 68 % 1008,4 hPa 0,0 mm 2,7 km/h (1 Bft) S 181 ° 0 min 0,000 mm 0,0 UV-I 54 W/m² 9,3 °C 15,2 °C 4,8 km/h (1 Bft)
20.10.2019 09:41 15,4 °C 65 % 1008,4 hPa 0,0 mm 3,1 km/h (1 Bft) S 181 ° 0 min 0,000 mm 0,0 UV-I 54 W/m² 8,9 °C 15,4 °C 4,8 km/h (1 Bft)
20.10.2019 09:42 15,6 °C 64 % 1008,4 hPa 0,0 mm 1,0 km/h (0 Bft) S 181 ° 0 min 0,000 mm 0,0 UV-I 54 W/m² 8,8 °C 15,6 °C 3,2 km/h (1 Bft)
20.10.2019 09:43 15,7 °C 65 % 1008,4 hPa 0,0 mm 4,1 km/h (1 Bft) S 180 ° 0 min 0,000 mm 0,0 UV-I 54 W/m² 9,1 °C 15,7 °C 4,8 km/h (1 Bft)
20.10.2019 09:44 15,7 °C 66 % 1008,4 hPa 0,0 mm 0,9 km/h (0 Bft) S 180 ° 0 min 0,000 mm 0,0 UV-I 53 W/m² 9,4 °C 15,7 °C 3,2 km/h (1 Bft)
20.10.2019 09:45 15,7 °C 67 % 1008,4 hPa 0,0 mm 1,5 km/h (1 Bft) S 180 ° 0 min 0,000 mm 0,0 UV-I 53 W/m² 9,6 °C 15,7 °C 3,2 km/h (1 Bft)
20.10.2019 09:46 15,6 °C 67 % 1008,3 hPa 0,0 mm 0,3 km/h (0 Bft) S 181 ° 0 min 0,000 mm 0,0 UV-I 54 W/m² 9,5 °C 15,6 °C 1,6 km/h (1 Bft)
20.10.2019 09:47 15,6 °C 66 % 1008,4 hPa 0,0 mm 0,3 km/h (0 Bft) S 181 ° 0 min 0,000 mm 0,0 UV-I 54 W/m² 9,3 °C 15,6 °C 1,6 km/h (1 Bft)
20.10.2019 09:48 15,7 °C 65 % 1008,4 hPa 0,0 mm 0,0 km/h (0 Bft) S 181 ° 0 min 0,000 mm 0,0 UV-I 54 W/m² 9,1 °C 15,7 °C 0,0 km/h (0 Bft)
20.10.2019 09:49 15,7 °C 65 % 1008,4 hPa 0,0 mm 2,2 km/h (1 Bft) S 181 ° 0 min 0,000 mm 0,0 UV-I 54 W/m² 9,1 °C 15,7 °C 4,8 km/h (1 Bft)
20.10.2019 09:50 15,8 °C 64 % 1008,4 hPa 0,0 mm 0,9 km/h (0 Bft) S 181 ° 0 min 0,000 mm 0,0 UV-I 54 W/m² 9,0 °C 15,8 °C 4,8 km/h (1 Bft)
20.10.2019 09:51 15,9 °C 63 % 1008,5 hPa 0,0 mm 2,7 km/h (1 Bft) S 181 ° 0 min 0,000 mm 0,8 UV-I 56 W/m² 8,9 °C 15,9 °C 4,8 km/h (1 Bft)
20.10.2019 09:52 15,9 °C 65 % 1008,4 hPa 0,0 mm 0,0 km/h (0 Bft) S 181 ° 0 min 0,000 mm 0,0 UV-I 54 W/m² 9,3 °C 15,9 °C 0,0 km/h (0 Bft)
20.10.2019 09:53 15,9 °C 64 % 1008,4 hPa 0,0 mm 0,0 km/h (0 Bft) S 181 ° 0 min 0,000 mm 0,0 UV-I 54 W/m² 9,1 °C 15,9 °C 0,0 km/h (0 Bft)
20.10.2019 09:54 15,8 °C 66 % 1008,4 hPa 0,0 mm 0,0 km/h (0 Bft) S 181 ° 0 min 0,000 mm 0,0 UV-I 54 W/m² 9,5 °C 15,8 °C 0,0 km/h (0 Bft)
20.10.2019 09:55 15,8 °C 66 % 1008,5 hPa 0,0 mm 0,0 km/h (0 Bft) S 181 ° 0 min 0,000 mm 0,0 UV-I 54 W/m² 9,5 °C 15,8 °C 0,0 km/h (0 Bft)
20.10.2019 09:56 15,8 °C 64 % 1008,4 hPa 0,0 mm 0,5 km/h (0 Bft) S 181 ° 0 min 0,000 mm 0,0 UV-I 54 W/m² 9,0 °C 15,8 °C 3,2 km/h (1 Bft)
20.10.2019 09:57 15,9 °C 63 % 1008,5 hPa 0,0 mm 0,0 km/h (0 Bft) S 181 ° 0 min 0,000 mm 0,0 UV-I 54 W/m² 8,9 °C 15,9 °C 0,0 km/h (0 Bft)
20.10.2019 09:58 16,0 °C 63 % 1008,4 hPa 0,0 mm 0,5 km/h (0 Bft) S 181 ° 0 min 0,000 mm 0,8 UV-I 56 W/m² 9,0 °C 16,0 °C 1,6 km/h (1 Bft)
20.10.2019 09:59 16,2 °C 62 % 1008,4 hPa 0,0 mm 0,3 km/h (0 Bft) S 181 ° 0 min 0,000 mm 0,8 UV-I 56 W/m² 8,9 °C 16,2 °C 3,2 km/h (1 Bft)
20.10.2019 10:00 16,3 °C 62 % 1008,3 hPa 0,0 mm 2,5 km/h (1 Bft) S 181 ° 0 min 0,000 mm 0,8 UV-I 58 W/m² 9,0 °C 16,3 °C 3,2 km/h (1 Bft)
20.10.2019 10:01 16,3 °C 64 % 1008,3 hPa 0,0 mm 6,2 km/h (2 Bft) S-SO 147 ° 0 min 0,026 mm 0,8 UV-I 60 W/m² 9,5 °C 16,3 °C 12,9 km/h (3 Bft)
20.10.2019 10:02 16,4 °C 64 % 1008,4 hPa 0,0 mm 5,0 km/h (1 Bft) S 171 ° 0 min 0,000 mm 0,8 UV-I 63 W/m² 9,6 °C 16,4 °C 8,0 km/h (2 Bft)
20.10.2019 10:03 16,7 °C 61 % 1008,4 hPa 0,0 mm 1,3 km/h (1 Bft) O 85 ° 0 min 0,000 mm 0,8 UV-I 65 W/m² 9,1 °C 16,7 °C 1,6 km/h (1 Bft)
20.10.2019 10:04 16,7 °C 63 % 1008,3 hPa 0,0 mm 1,5 km/h (1 Bft) SO 135 ° 0 min 0,000 mm 0,8 UV-I 67 W/m² 9,6 °C 16,7 °C 4,8 km/h (1 Bft)
20.10.2019 10:05 16,8 °C 62 % 1008,4 hPa 0,0 mm 3,6 km/h (1 Bft) O 99 ° 0 min 0,000 mm 0,9 UV-I 70 W/m² 9,5 °C 16,8 °C 4,8 km/h (1 Bft)
20.10.2019 10:06 16,7 °C 62 % 1008,4 hPa 0,0 mm 0,5 km/h (0 Bft) O 99 ° 0 min 0,000 mm 0,9 UV-I 74 W/m² 9,4 °C 16,7 °C 3,2 km/h (1 Bft)
20.10.2019 10:07 16,7 °C 62 % 1008,4 hPa 0,0 mm 0,1 km/h (0 Bft) O 99 ° 0 min 0,000 mm 0,9 UV-I 77 W/m² 9,4 °C 16,7 °C 1,6 km/h (1 Bft)
20.10.2019 10:08 16,8 °C 59 % 1008,4 hPa 0,0 mm 0,2 km/h (0 Bft) O 98 ° 0 min 0,000 mm 0,9 UV-I 83 W/m² 8,7 °C 16,8 °C 1,6 km/h (1 Bft)
20.10.2019 10:09 16,9 °C 57 % 1008,3 hPa 0,0 mm 3,4 km/h (1 Bft) SO 142 ° 0 min 0,000 mm 0,9 UV-I 83 W/m² 8,3 °C 16,9 °C 6,4 km/h (2 Bft)
20.10.2019 10:10 17,1 °C 58 % 1008,4 hPa 0,0 mm 3,6 km/h (1 Bft) NO 39 ° 0 min 0,000 mm 0,9 UV-I 86 W/m² 8,8 °C 17,1 °C 4,8 km/h (1 Bft)
20.10.2019 10:11 17,1 °C 60 % 1008,4 hPa 0,0 mm 2,3 km/h (1 Bft) NO 38 ° 0 min 0,000 mm 0,9 UV-I 90 W/m² 9,3 °C 17,1 °C 4,8 km/h (1 Bft)
20.10.2019 10:12 16,8 °C 62 % 1008,3 hPa 0,0 mm 8,9 km/h (2 Bft) S-SW 198 ° 0 min 0,000 mm 0,9 UV-I 91 W/m² 9,5 °C 16,8 °C 12,9 km/h (3 Bft)
20.10.2019 10:13 16,8 °C 58 % 1008,4 hPa 0,0 mm 3,5 km/h (1 Bft) O-SO 123 ° 0 min 0,000 mm 0,9 UV-I 95 W/m² 8,5 °C 16,8 °C 8,0 km/h (2 Bft)
20.10.2019 10:14 17,0 °C 60 % 1008,4 hPa 0,0 mm 3,0 km/h (1 Bft) O-SO 119 ° 0 min 0,000 mm 0,9 UV-I 97 W/m² 9,2 °C 17,0 °C 4,8 km/h (1 Bft)
20.10.2019 10:15 17,0 °C 61 % 1008,4 hPa 0,0 mm 2,5 km/h (1 Bft) NO 38 ° 0 min 0,000 mm 1,0 UV-I 97 W/m² 9,4 °C 17,0 °C 4,8 km/h (1 Bft)
20.10.2019 10:16 17,0 °C 62 % 1008,4 hPa 0,0 mm 3,7 km/h (1 Bft) SO 126 ° 0 min 0,000 mm 1,0 UV-I 97 W/m² 9,7 °C 17,0 °C 6,4 km/h (2 Bft)
20.10.2019 10:17 17,0 °C 61 % 1008,4 hPa 0,0 mm 2,9 km/h (1 Bft) SO 126 ° 0 min 0,000 mm 1,0 UV-I 97 W/m² 9,4 °C 17,0 °C 4,8 km/h (1 Bft)
20.10.2019 10:18 17,1 °C 59 % 1008,4 hPa 0,0 mm 2,2 km/h (1 Bft) O-NO 62 ° 0 min 0,000 mm 1,0 UV-I 97 W/m² 9,0 °C 17,1 °C 6,4 km/h (2 Bft)
20.10.2019 10:19 17,3 °C 57 % 1008,4 hPa 0,0 mm 2,6 km/h (1 Bft) SO 144 ° 0 min 0,000 mm 1,0 UV-I 98 W/m² 8,7 °C 17,3 °C 4,8 km/h (1 Bft)
20.10.2019 10:20 17,5 °C 57 % 1008,3 hPa 0,0 mm 0,8 km/h (0 Bft) SO 144 ° 0 min 0,000 mm 1,0 UV-I 100 W/m² 8,9 °C 17,5 °C 1,6 km/h (1 Bft)
20.10.2019 10:21 17,6 °C 58 % 1008,4 hPa 0,0 mm 5,8 km/h (2 Bft) O-NO 61 ° 0 min 0,000 mm 1,0 UV-I 102 W/m² 9,2 °C 17,6 °C 14,5 km/h (3 Bft)
20.10.2019 10:22 17,7 °C 59 % 1008,3 hPa 0,0 mm 5,5 km/h (1 Bft) S-SO 167 ° 0 min 0,000 mm 1,0 UV-I 104 W/m² 9,6 °C 17,7 °C 12,9 km/h (3 Bft)
20.10.2019 10:23 17,8 °C 56 % 1008,4 hPa 0,0 mm 4,8 km/h (1 Bft) N 5 ° 0 min 0,000 mm 1,0 UV-I 107 W/m² 8,9 °C 17,8 °C 6,4 km/h (2 Bft)
20.10.2019 10:24 17,7 °C 57 % 1008,4 hPa 0,0 mm 0,9 km/h (0 Bft) N 5 ° 0 min 0,000 mm 1,1 UV-I 111 W/m² 9,1 °C 17,7 °C 3,2 km/h (1 Bft)
20.10.2019 10:25 17,7 °C 58 % 1008,4 hPa 0,0 mm 0,0 km/h (0 Bft) N 5 ° 0 min 0,000 mm 1,1 UV-I 116 W/m² 9,3 °C 17,7 °C 0,0 km/h (0 Bft)
20.10.2019 10:26 17,7 °C 58 % 1008,4 hPa 0,0 mm 0,0 km/h (0 Bft) N 5 ° 0 min 0,000 mm 1,1 UV-I 123 W/m² 9,3 °C 17,7 °C 0,0 km/h (0 Bft)
20.10.2019 10:27 17,8 °C 57 % 1008,3 hPa 0,0 mm 0,5 km/h (0 Bft) N 5 ° 0 min 0,000 mm 1,1 UV-I 123 W/m² 9,2 °C 17,8 °C 1,6 km/h (1 Bft)
20.10.2019 10:28 17,9 °C 56 % 1008,4 hPa 0,0 mm 0,0 km/h (0 Bft) N 5 ° 0 min 0,000 mm 1,2 UV-I 128 W/m² 9,0 °C 17,9 °C 0,0 km/h (0 Bft)
20.10.2019 10:29 17,9 °C 58 % 1008,4 hPa 0,0 mm 0,3 km/h (0 Bft) O-NO 68 ° 0 min 0,000 mm 1,2 UV-I 128 W/m² 9,5 °C 17,9 °C 1,6 km/h (1 Bft)
20.10.2019 10:30 17,9 °C 61 % 1008,3 hPa 0,0 mm 1,8 km/h (1 Bft) S-SO 157 ° 0 min 0,000 mm 1,2 UV-I 128 W/m² 10,3 °C 17,9 °C 8,0 km/h (2 Bft)
20.10.2019 10:31 17,7 °C 60 % 1008,4 hPa 0,0 mm 3,2 km/h (1 Bft) S-SO 147 ° 0 min 0,000 mm 1,2 UV-I 132 W/m² 9,8 °C 17,7 °C 8,0 km/h (2 Bft)
20.10.2019 10:32 17,6 °C 62 % 1008,5 hPa 0,0 mm 0,0 km/h (0 Bft) O 98 ° 0 min 0,000 mm 1,2 UV-I 128 W/m² 10,2 °C 17,6 °C 0,0 km/h (0 Bft)
20.10.2019 10:33 17,5 °C 61 % 1008,5 hPa 0,0 mm 0,0 km/h (0 Bft) O 98 ° 0 min 0,000 mm 1,2 UV-I 125 W/m² 9,9 °C 17,5 °C 0,0 km/h (0 Bft)
20.10.2019 10:34 17,6 °C 60 % 1008,5 hPa 0,0 mm 2,7 km/h (1 Bft) O 97 ° 0 min 0,000 mm 1,2 UV-I 125 W/m² 9,7 °C 17,6 °C 4,8 km/h (1 Bft)
20.10.2019 10:35 17,7 °C 57 % 1008,5 hPa 0,0 mm 3,5 km/h (1 Bft) O 98 ° 0 min 0,000 mm 1,2 UV-I 123 W/m² 9,1 °C 17,7 °C 4,8 km/h (1 Bft)
20.10.2019 10:36 17,7 °C 61 % 1008,5 hPa 0,0 mm 2,4 km/h (1 Bft) O 82 ° 0 min 0,000 mm 1,2 UV-I 118 W/m² 10,1 °C 17,7 °C 4,8 km/h (1 Bft)
20.10.2019 10:37 17,7 °C 60 % 1008,5 hPa 0,0 mm 3,3 km/h (1 Bft) O-NO 72 ° 0 min 0,000 mm 1,2 UV-I 114 W/m² 9,8 °C 17,7 °C 6,4 km/h (2 Bft)
20.10.2019 10:38 17,8 °C 57 % 1008,5 hPa 0,0 mm 1,1 km/h (1 Bft) O-SO 123 ° 0 min 0,000 mm 1,2 UV-I 104 W/m² 9,2 °C 17,8 °C 4,8 km/h (1 Bft)
20.10.2019 10:39 17,9 °C 57 % 1008,5 hPa 0,0 mm 4,0 km/h (1 Bft) NO 38 ° 0 min 0,000 mm 1,2 UV-I 104 W/m² 9,3 °C 17,9 °C 9,7 km/h (2 Bft)
20.10.2019 10:40 18,1 °C 59 % 1008,5 hPa 0,0 mm 3,6 km/h (1 Bft) O 96 ° 0 min 0,000 mm 1,2 UV-I 104 W/m² 10,0 °C 18,1 °C 8,0 km/h (2 Bft)
20.10.2019 10:41 18,2 °C 56 % 1008,6 hPa 0,0 mm 2,7 km/h (1 Bft) O 96 ° 0 min 0,000 mm 1,2 UV-I 104 W/m² 9,3 °C 18,2 °C 4,8 km/h (1 Bft)
20.10.2019 10:42 18,3 °C 58 % 1008,5 hPa 0,0 mm 5,5 km/h (1 Bft) N 5 ° 0 min 0,000 mm 1,2 UV-I 105 W/m² 9,9 °C 18,3 °C 8,0 km/h (2 Bft)
20.10.2019 10:43 18,2 °C 58 % 1008,4 hPa 0,0 mm 4,6 km/h (1 Bft) SO 131 ° 0 min 0,000 mm 1,3 UV-I 105 W/m² 9,8 °C 18,2 °C 9,7 km/h (2 Bft)
20.10.2019 10:44 18,3 °C 53 % 1008,5 hPa 0,2 mm 4,2 km/h (1 Bft) S-SW 202 ° 0 min 0,000 mm 1,3 UV-I 107 W/m² 8,6 °C 18,3 °C 8,0 km/h (2 Bft)
20.10.2019 10:45 18,4 °C 55 % 1008,5 hPa 0,0 mm 7,8 km/h (2 Bft) NW 311 ° 0 min 0,000 mm 1,3 UV-I 107 W/m² 9,2 °C 18,4 °C 16,1 km/h (3 Bft)
20.10.2019 10:46 18,6 °C 53 % 1008,4 hPa 0,0 mm 3,9 km/h (1 Bft) W-NW 296 ° 0 min 0,000 mm 1,3 UV-I 109 W/m² 8,8 °C 18,6 °C 14,5 km/h (3 Bft)
20.10.2019 10:47 18,8 °C 52 % 1008,5 hPa 0,0 mm 5,5 km/h (1 Bft) O 81 ° 0 min 0,000 mm 1,3 UV-I 109 W/m² 8,7 °C 18,8 °C 9,7 km/h (2 Bft)
20.10.2019 10:48 18,9 °C 52 % 1008,6 hPa 0,0 mm 4,7 km/h (1 Bft) O 101 ° 0 min 0,000 mm 1,3 UV-I 107 W/m² 8,8 °C 18,9 °C 6,4 km/h (2 Bft)
20.10.2019 10:49 19,0 °C 52 % 1008,5 hPa 0,0 mm 5,7 km/h (1 Bft) SO 135 ° 0 min 0,000 mm 1,3 UV-I 102 W/m² 8,9 °C 19,0 °C 9,7 km/h (2 Bft)
20.10.2019 10:50 19,0 °C 51 % 1008,5 hPa 0,0 mm 3,4 km/h (1 Bft) SO 128 ° 0 min 0,000 mm 1,3 UV-I 98 W/m² 8,6 °C 19,0 °C 4,8 km/h (1 Bft)
20.10.2019 10:51 19,0 °C 51 % 1008,5 hPa 0,0 mm 0,6 km/h (0 Bft) SO 128 ° 0 min 0,000 mm 1,3 UV-I 97 W/m² 8,6 °C 19,0 °C 3,2 km/h (1 Bft)
20.10.2019 10:52 19,1 °C 51 % 1008,6 hPa 0,0 mm 0,7 km/h (0 Bft) SO 128 ° 0 min 0,000 mm 1,3 UV-I 95 W/m² 8,7 °C 19,1 °C 1,6 km/h (1 Bft)
20.10.2019 10:53 18,9 °C 54 % 1008,6 hPa 0,0 mm 0,9 km/h (0 Bft) SO 128 ° 0 min 0,000 mm 1,3 UV-I 93 W/m² 9,4 °C 18,9 °C 3,2 km/h (1 Bft)
20.10.2019 10:54 18,8 °C 53 % 1008,5 hPa 0,0 mm 0,0 km/h (0 Bft) O-SO 104 ° 0 min 0,000 mm 1,3 UV-I 91 W/m² 9,0 °C 18,8 °C 0,0 km/h (0 Bft)
20.10.2019 10:55 18,7 °C 56 % 1008,6 hPa 0,0 mm 2,1 km/h (1 Bft) O 94 ° 0 min 0,000 mm 1,3 UV-I 90 W/m² 9,7 °C 18,7 °C 4,8 km/h (1 Bft)
20.10.2019 10:56 18,5 °C 55 % 1008,6 hPa 0,0 mm 0,9 km/h (0 Bft) O 94 ° 0 min 0,000 mm 1,3 UV-I 90 W/m² 9,3 °C 18,5 °C 1,6 km/h (1 Bft)
20.10.2019 10:57 18,5 °C 52 % 1008,6 hPa 0,0 mm 3,6 km/h (1 Bft) O 89 ° 0 min 0,000 mm 1,3 UV-I 91 W/m² 8,5 °C 18,5 °C 4,8 km/h (1 Bft)
20.10.2019 10:58 18,4 °C 54 % 1008,5 hPa 0,0 mm 2,6 km/h (1 Bft) NO 38 ° 0 min 0,000 mm 1,3 UV-I 93 W/m² 8,9 °C 18,4 °C 6,4 km/h (2 Bft)
20.10.2019 10:59 18,4 °C 54 % 1008,5 hPa 0,0 mm 0,6 km/h (0 Bft) SO 142 ° 0 min 0,000 mm 1,4 UV-I 98 W/m² 8,9 °C 18,4 °C 4,8 km/h (1 Bft)
20.10.2019 11:00 18,6 °C 54 % 1008,5 hPa 0,0 mm 2,0 km/h (1 Bft) O 91 ° 0 min 0,076 mm 1,4 UV-I 107 W/m² 9,1 °C 18,6 °C 4,8 km/h (1 Bft)
20.10.2019 11:01 18,6 °C 54 % 1008,5 hPa 0,0 mm 4,3 km/h (1 Bft) O 96 ° 0 min 0,000 mm 1,4 UV-I 120 W/m² 9,1 °C 18,6 °C 4,8 km/h (1 Bft)
20.10.2019 11:02 18,7 °C 53 % 1008,5 hPa 0,0 mm 3,5 km/h (1 Bft) O 96 ° 0 min 0,000 mm 1,5 UV-I 121 W/m² 8,9 °C 18,7 °C 4,8 km/h (1 Bft)
20.10.2019 11:03 18,9 °C 50 % 1008,6 hPa 0,0 mm 2,1 km/h (1 Bft) O 92 ° 0 min 0,000 mm 1,5 UV-I 121 W/m² 8,2 °C 18,9 °C 4,8 km/h (1 Bft)
20.10.2019 11:04 19,1 °C 54 % 1008,5 hPa 0,0 mm 2,5 km/h (1 Bft) O 94 ° 0 min 0,000 mm 1,6 UV-I 141 W/m² 9,6 °C 19,1 °C 4,8 km/h (1 Bft)
20.10.2019 11:05 19,3 °C 48 % 1008,5 hPa 0,0 mm 2,8 km/h (1 Bft) S-SW 202 ° 0 min 0,000 mm 1,7 UV-I 169 W/m² 8,0 °C 19,3 °C 4,8 km/h (1 Bft)
20.10.2019 11:06 19,6 °C 49 % 1008,5 hPa 0,0 mm 8,6 km/h (2 Bft) NW 326 ° 0 min 0,000 mm 1,8 UV-I 209 W/m² 8,6 °C 19,6 °C 22,5 km/h (4 Bft)
20.10.2019 11:07 19,9 °C 44 % 1008,4 hPa 0,0 mm 8,6 km/h (2 Bft) N 360 ° 0 min 0,000 mm 1,8 UV-I 264 W/m² 7,3 °C 19,9 °C 19,3 km/h (3 Bft)
20.10.2019 11:08 20,2 °C 46 % 1008,4 hPa 0,0 mm 5,2 km/h (1 Bft) S 180 ° 0 min 0,000 mm 2,0 UV-I 271 W/m² 8,2 °C 20,2 °C 8,0 km/h (2 Bft)
20.10.2019 11:09 20,3 °C 47 % 1008,3 hPa 0,0 mm 7,5 km/h (2 Bft) S 187 ° 0 min 0,000 mm 1,9 UV-I 244 W/m² 8,6 °C 20,3 °C 11,3 km/h (2 Bft)
20.10.2019 11:10 20,4 °C 45 % 1008,5 hPa 0,0 mm 6,4 km/h (2 Bft) W-SW 239 ° 0 min 0,000 mm 1,9 UV-I 229 W/m² 8,1 °C 20,4 °C 12,9 km/h (3 Bft)
20.10.2019 11:11 20,5 °C 45 % 1008,4 hPa 0,0 mm 2,6 km/h (1 Bft) W-SW 239 ° 0 min 0,000 mm 1,8 UV-I 195 W/m² 8,2 °C 20,5 °C 6,4 km/h (2 Bft)
20.10.2019 11:12 20,5 °C 49 % 1008,4 hPa 0,0 mm 4,4 km/h (1 Bft) SW 223 ° 0 min 0,000 mm 1,8 UV-I 192 W/m² 9,4 °C 20,5 °C 8,0 km/h (2 Bft)
20.10.2019 11:13 20,5 °C 43 % 1008,4 hPa 0,0 mm 6,7 km/h (2 Bft) S-SO 155 ° 0 min 0,000 mm 1,8 UV-I 190 W/m² 7,5 °C 20,5 °C 12,9 km/h (3 Bft)
20.10.2019 11:14 20,4 °C 45 % 1008,4 hPa 0,0 mm 0,9 km/h (0 Bft) S-SO 157 ° 0 min 0,000 mm 1,8 UV-I 167 W/m² 8,1 °C 20,4 °C 3,2 km/h (1 Bft)
20.10.2019 11:15 20,3 °C 48 % 1008,4 hPa 0,0 mm 2,3 km/h (1 Bft) O-SO 113 ° 0 min 0,000 mm 1,7 UV-I 135 W/m² 8,9 °C 20,3 °C 4,8 km/h (1 Bft)
20.10.2019 11:16 20,2 °C 50 % 1008,4 hPa 0,0 mm 0,5 km/h (0 Bft) O-SO 113 ° 0 min 0,000 mm 1,6 UV-I 123 W/m² 9,4 °C 20,2 °C 3,2 km/h (1 Bft)
20.10.2019 11:17 20,0 °C 51 % 1008,5 hPa 0,0 mm 4,0 km/h (1 Bft) O-NO 69 ° 0 min 0,000 mm 1,6 UV-I 114 W/m² 9,6 °C 20,0 °C 8,0 km/h (2 Bft)
20.10.2019 11:18 20,0 °C 51 % 1008,4 hPa 0,0 mm 4,1 km/h (1 Bft) N-NW 338 ° 0 min 0,000 mm 1,5 UV-I 109 W/m² 9,6 °C 20,0 °C 9,7 km/h (2 Bft)
20.10.2019 11:19 20,1 °C 50 % 1008,4 hPa 0,0 mm 0,1 km/h (0 Bft) N-NW 338 ° 0 min 0,000 mm 1,5 UV-I 100 W/m² 9,3 °C 20,1 °C 1,6 km/h (1 Bft)
20.10.2019 11:20 20,1 °C 49 % 1008,4 hPa 0,0 mm 3,5 km/h (1 Bft) N 5 ° 0 min 0,000 mm 1,5 UV-I 102 W/m² 9,0 °C 20,1 °C 6,4 km/h (2 Bft)
20.10.2019 11:21 20,0 °C 51 % 1008,4 hPa 0,0 mm 1,9 km/h (1 Bft) O-NO 61 ° 0 min 0,000 mm 1,5 UV-I 102 W/m² 9,6 °C 20,0 °C 3,2 km/h (1 Bft)
20.10.2019 11:22 19,9 °C 51 % 1008,3 hPa 0,0 mm 0,6 km/h (0 Bft) O-NO 61 ° 0 min 0,000 mm 1,5 UV-I 97 W/m² 9,5 °C 19,9 °C 1,6 km/h (1 Bft)
20.10.2019 11:23 19,8 °C 53 % 1008,3 hPa 0,0 mm 0,0 km/h (0 Bft) O-NO 61 ° 0 min 0,000 mm 1,5 UV-I 95 W/m² 9,9 °C 19,8 °C 0,0 km/h (0 Bft)
20.10.2019 11:24 19,8 °C 47 % 1008,4 hPa 0,0 mm 4,0 km/h (1 Bft) W-SW 244 ° 0 min 0,000 mm 1,5 UV-I 95 W/m² 8,2 °C 19,8 °C 12,9 km/h (3 Bft)
20.10.2019 11:25 20,1 °C 46 % 1008,4 hPa 0,0 mm 5,5 km/h (1 Bft) NO 55 ° 0 min 0,000 mm 1,5 UV-I 93 W/m² 8,1 °C 20,1 °C 11,3 km/h (2 Bft)
20.10.2019 11:26 20,1 °C 51 % 1008,3 hPa 0,0 mm 5,1 km/h (1 Bft) NO 49 ° 0 min 0,000 mm 1,5 UV-I 98 W/m² 9,6 °C 20,1 °C 11,3 km/h (2 Bft)
20.10.2019 11:27 20,1 °C 49 % 1008,4 hPa 0,0 mm 2,2 km/h (1 Bft) NO 51 ° 0 min 0,000 mm 1,5 UV-I 104 W/m² 9,0 °C 20,1 °C 4,8 km/h (1 Bft)
20.10.2019 11:28 19,9 °C 50 % 1008,4 hPa 0,0 mm 4,6 km/h (1 Bft) N-NO 25 ° 0 min 0,000 mm 1,5 UV-I 109 W/m² 9,2 °C 19,9 °C 11,3 km/h (2 Bft)
20.10.2019 11:29 19,9 °C 48 % 1008,4 hPa 0,0 mm 1,5 km/h (1 Bft) N-NO 27 ° 0 min 0,000 mm 1,5 UV-I 114 W/m² 8,6 °C 19,9 °C 4,8 km/h (1 Bft)
20.10.2019 11:30 19,9 °C 52 % 1008,4 hPa 0,0 mm 0,4 km/h (0 Bft) N-NO 27 ° 0 min 0,000 mm 1,5 UV-I 123 W/m² 9,7 °C 19,9 °C 1,6 km/h (1 Bft)
20.10.2019 11:31 19,8 °C 54 % 1008,4 hPa 0,0 mm 6,2 km/h (2 Bft) O 82 ° 0 min 0,000 mm 1,5 UV-I 123 W/m² 10,2 °C 19,8 °C 12,9 km/h (3 Bft)
20.10.2019 11:32 19,8 °C 54 % 1008,4 hPa 0,0 mm 4,5 km/h (1 Bft) S-SW 193 ° 0 min 0,000 mm 1,5 UV-I 137 W/m² 10,2 °C 19,8 °C 8,0 km/h (2 Bft)
20.10.2019 11:33 19,8 °C 49 % 1008,5 hPa 0,0 mm 3,2 km/h (1 Bft) N-NO 12 ° 0 min 0,000 mm 1,6 UV-I 149 W/m² 8,8 °C 19,8 °C 11,3 km/h (2 Bft)
20.10.2019 11:34 19,8 °C 52 % 1008,4 hPa 0,0 mm 2,9 km/h (1 Bft) S 175 ° 0 min 0,000 mm 1,6 UV-I 156 W/m² 9,7 °C 19,8 °C 6,4 km/h (2 Bft)
20.10.2019 11:35 19,8 °C 50 % 1008,5 hPa 0,0 mm 1,5 km/h (1 Bft) W 279 ° 0 min 0,000 mm 1,6 UV-I 174 W/m² 9,1 °C 19,8 °C 4,8 km/h (1 Bft)
20.10.2019 11:36 19,8 °C 52 % 1008,5 hPa 0,0 mm 2,7 km/h (1 Bft) O-NO 67 ° 0 min 0,000 mm 1,7 UV-I 179 W/m² 9,7 °C 19,8 °C 4,8 km/h (1 Bft)
20.10.2019 11:37 19,8 °C 51 % 1008,5 hPa 0,0 mm 6,6 km/h (2 Bft) O-NO 66 ° 0 min 0,000 mm 1,8 UV-I 190 W/m² 9,4 °C 19,8 °C 14,5 km/h (3 Bft)
20.10.2019 11:38 19,7 °C 50 % 1008,5 hPa 0,0 mm 4,3 km/h (1 Bft) N-NO 26 ° 0 min 0,000 mm 1,8 UV-I 202 W/m² 9,0 °C 19,7 °C 8,0 km/h (2 Bft)
20.10.2019 11:39 19,8 °C 52 % 1008,5 hPa 0,0 mm 2,1 km/h (1 Bft) NO 36 ° 0 min 0,000 mm 1,8 UV-I 202 W/m² 9,7 °C 19,8 °C 4,8 km/h (1 Bft)
20.10.2019 11:40 19,8 °C 49 % 1008,5 hPa 0,0 mm 4,3 km/h (1 Bft) O-SO 102 ° 0 min 0,000 mm 1,8 UV-I 202 W/m² 8,8 °C 19,8 °C 6,4 km/h (2 Bft)
20.10.2019 11:41 19,7 °C 53 % 1008,5 hPa 0,0 mm 3,7 km/h (1 Bft) O 98 ° 0 min 0,000 mm 1,8 UV-I 193 W/m² 9,8 °C 19,7 °C 6,4 km/h (2 Bft)
20.10.2019 11:42 19,7 °C 52 % 1008,4 hPa 0,0 mm 0,9 km/h (0 Bft) O 98 ° 0 min 0,000 mm 1,8 UV-I 209 W/m² 9,6 °C 19,7 °C 1,6 km/h (1 Bft)
20.10.2019 11:43 19,7 °C 53 % 1008,4 hPa 0,0 mm 2,4 km/h (1 Bft) O-SO 103 ° 0 min 0,000 mm 1,9 UV-I 211 W/m² 9,8 °C 19,7 °C 4,8 km/h (1 Bft)
20.10.2019 11:44 19,7 °C 49 % 1008,5 hPa 0,0 mm 3,0 km/h (1 Bft) O-SO 109 ° 0 min 0,000 mm 1,9 UV-I 227 W/m² 8,7 °C 19,7 °C 4,8 km/h (1 Bft)
20.10.2019 11:45 19,7 °C 52 % 1008,5 hPa 0,0 mm 2,3 km/h (1 Bft) S 175 ° 0 min 0,000 mm 1,9 UV-I 229 W/m² 9,6 °C 19,7 °C 4,8 km/h (1 Bft)
20.10.2019 11:46 19,8 °C 52 % 1008,5 hPa 0,0 mm 4,4 km/h (1 Bft) O-NO 75 ° 0 min 0,000 mm 1,9 UV-I 220 W/m² 9,7 °C 19,8 °C 6,4 km/h (2 Bft)
20.10.2019 11:47 19,9 °C 46 % 1008,4 hPa 0,0 mm 3,2 km/h (1 Bft) N 355 ° 0 min 0,000 mm 2,0 UV-I 250 W/m² 7,9 °C 19,9 °C 4,8 km/h (1 Bft)
20.10.2019 11:48 20,1 °C 48 % 1008,5 hPa 0,0 mm 0,7 km/h (0 Bft) N 355 ° 0 min 0,000 mm 2,1 UV-I 336 W/m² 8,7 °C 20,1 °C 1,6 km/h (1 Bft)
20.10.2019 11:49 20,2 °C 47 % 1008,5 hPa 0,0 mm 0,0 km/h (0 Bft) N 355 ° 0 min 0,000 mm 2,7 UV-I 336 W/m² 8,5 °C 20,2 °C 0,0 km/h (0 Bft)
20.10.2019 11:50 20,4 °C 46 % 1008,5 hPa 0,0 mm 0,0 km/h (0 Bft) N 355 ° 0 min 0,000 mm 2,7 UV-I 471 W/m² 8,4 °C 20,4 °C 0,0 km/h (0 Bft)
20.10.2019 11:51 20,5 °C 46 % 1008,5 hPa 0,0 mm 0,2 km/h (0 Bft) N 355 ° 0 min 0,000 mm 2,9 UV-I 564 W/m² 8,5 °C 20,5 °C 1,6 km/h (1 Bft)
20.10.2019 11:52 20,4 °C 46 % 1008,5 hPa 0,0 mm 2,4 km/h (1 Bft) N 355 ° 0 min 0,000 mm 2,8 UV-I 564 W/m² 8,4 °C 20,4 °C 4,8 km/h (1 Bft)
20.10.2019 11:53 20,5 °C 46 % 1008,6 hPa 0,0 mm 1,3 km/h (1 Bft) N-NO 17 ° 0 min 0,000 mm 2,7 UV-I 417 W/m² 8,5 °C 20,5 °C 3,2 km/h (1 Bft)
20.10.2019 11:54 20,4 °C 54 % 1008,7 hPa 0,0 mm 2,4 km/h (1 Bft) N-NO 17 ° 0 min 0,000 mm 3,1 UV-I 536 W/m² 10,8 °C 20,4 °C 3,2 km/h (1 Bft)
20.10.2019 11:55 20,2 °C 56 % 1008,5 hPa 0,0 mm 3,0 km/h (1 Bft) N-NO 17 ° 0 min 0,000 mm 3,1 UV-I 561 W/m² 11,1 °C 20,2 °C 4,8 km/h (1 Bft)
20.10.2019 11:56 20,1 °C 51 % 1008,6 hPa 0,0 mm 1,9 km/h (1 Bft) O-NO 69 ° 0 min 0,000 mm 2,9 UV-I 541 W/m² 9,6 °C 20,1 °C 3,2 km/h (1 Bft)
20.10.2019 11:57 20,0 °C 54 % 1008,6 hPa 0,0 mm 3,0 km/h (1 Bft) O 90 ° 0 min 0,000 mm 2,8 UV-I 541 W/m² 10,4 °C 20,0 °C 4,8 km/h (1 Bft)
20.10.2019 11:58 20,0 °C 50 % 1008,6 hPa 0,0 mm 6,5 km/h (2 Bft) NO 55 ° 0 min 0,000 mm 3,1 UV-I 476 W/m² 9,3 °C 20,0 °C 12,9 km/h (3 Bft)
20.10.2019 11:59 20,2 °C 51 % 1008,6 hPa 0,0 mm 6,0 km/h (2 Bft) NO 48 ° 0 min 0,000 mm 3,0 UV-I 547 W/m² 9,7 °C 20,2 °C 8,0 km/h (2 Bft)
20.10.2019 12:00 20,2 °C 52 % 1008,6 hPa 0,0 mm 2,8 km/h (1 Bft) S-SO 157 ° 0 min 0,000 mm 3,0 UV-I 461 W/m² 10,0 °C 20,2 °C 4,8 km/h (1 Bft)
20.10.2019 12:01 20,4 °C 46 % 1008,6 hPa 0,0 mm 1,6 km/h (1 Bft) O-SO 104 ° 0 min 0,152 mm 2,8 UV-I 431 W/m² 8,4 °C 20,4 °C 3,2 km/h (1 Bft)
20.10.2019 12:02 20,5 °C 51 % 1008,6 hPa 0,0 mm 0,5 km/h (0 Bft) O-SO 103 ° 0 min 0,000 mm 2,5 UV-I 376 W/m² 10,0 °C 20,5 °C 1,6 km/h (1 Bft)
20.10.2019 12:03 20,5 °C 50 % 1008,6 hPa 0,0 mm 2,4 km/h (1 Bft) O 90 ° 0 min 0,000 mm 3,0 UV-I 376 W/m² 9,7 °C 20,5 °C 3,2 km/h (1 Bft)
20.10.2019 12:04 20,6 °C 48 % 1008,6 hPa 0,0 mm 0,3 km/h (0 Bft) O 90 ° 0 min 0,000 mm 3,0 UV-I 541 W/m² 9,2 °C 20,6 °C 1,6 km/h (1 Bft)
20.10.2019 12:05 20,7 °C 50 % 1008,6 hPa 0,0 mm 0,0 km/h (0 Bft) O 90 ° 0 min 0,000 mm 3,0 UV-I 478 W/m² 9,9 °C 20,7 °C 0,0 km/h (0 Bft)
20.10.2019 12:06 20,7 °C 53 % 1008,7 hPa 0,0 mm 0,5 km/h (0 Bft) O-NO 72 ° 0 min 0,000 mm 2,9 UV-I 413 W/m² 10,8 °C 20,7 °C 3,2 km/h (1 Bft)
20.10.2019 12:07 20,5 °C 53 % 1008,6 hPa 0,0 mm 0,6 km/h (0 Bft) NO 51 ° 0 min 0,000 mm 2,7 UV-I 434 W/m² 10,6 °C 20,5 °C 3,2 km/h (1 Bft)
20.10.2019 12:08 20,3 °C 51 % 1008,6 hPa 0,0 mm 3,9 km/h (1 Bft) NO 47 ° 0 min 0,000 mm 2,7 UV-I 350 W/m² 9,8 °C 20,3 °C 9,7 km/h (2 Bft)
20.10.2019 12:09 20,1 °C 53 % 1008,6 hPa 0,0 mm 0,2 km/h (0 Bft) NO 47 ° 0 min 0,000 mm 2,5 UV-I 332 W/m² 10,2 °C 20,1 °C 1,6 km/h (1 Bft)
20.10.2019 12:10 20,0 °C 56 % 1008,6 hPa 0,0 mm 1,8 km/h (1 Bft) NO 47 ° 0 min 0,000 mm 2,4 UV-I 295 W/m² 11,0 °C 20,0 °C 3,2 km/h (1 Bft)
20.10.2019 12:11 20,1 °C 54 % 1008,7 hPa 0,0 mm 4,2 km/h (1 Bft) N 9 ° 0 min 0,000 mm 2,2 UV-I 311 W/m² 10,5 °C 20,1 °C 11,3 km/h (2 Bft)
20.10.2019 12:12 20,3 °C 49 % 1008,6 hPa 0,0 mm 7,2 km/h (2 Bft) O-NO 62 ° 0 min 0,000 mm 2,2 UV-I 169 W/m² 9,2 °C 20,3 °C 12,9 km/h (3 Bft)
20.10.2019 12:13 20,4 °C 49 % 1008,7 hPa 0,0 mm 2,5 km/h (1 Bft) O-NO 64 ° 0 min 0,000 mm 1,8 UV-I 162 W/m² 9,3 °C 20,4 °C 3,2 km/h (1 Bft)
20.10.2019 12:14 20,4 °C 51 % 1008,7 hPa 0,0 mm 2,2 km/h (1 Bft) O-NO 64 ° 0 min 0,000 mm 1,8 UV-I 171 W/m² 9,9 °C 20,4 °C 4,8 km/h (1 Bft)
20.10.2019 12:15 20,1 °C 53 % 1008,6 hPa 0,0 mm 4,6 km/h (1 Bft) NO 42 ° 0 min 0,000 mm 1,7 UV-I 171 W/m² 10,2 °C 20,1 °C 6,4 km/h (2 Bft)
20.10.2019 12:16 20,0 °C 52 % 1008,6 hPa 0,0 mm 5,4 km/h (1 Bft) O 83 ° 0 min 0,000 mm 1,8 UV-I 149 W/m² 9,8 °C 20,0 °C 8,0 km/h (2 Bft)
20.10.2019 12:17 19,8 °C 55 % 1008,5 hPa 0,0 mm 5,9 km/h (2 Bft) N-NO 17 ° 0 min 0,000 mm 2,0 UV-I 185 W/m² 10,5 °C 19,8 °C 9,7 km/h (2 Bft)
20.10.2019 12:18 19,6 °C 56 % 1008,5 hPa 0,0 mm 0,0 km/h (0 Bft) N-NO 17 ° 0 min 0,000 mm 1,6 UV-I 121 W/m² 10,6 °C 19,6 °C 0,0 km/h (0 Bft)
20.10.2019 12:19 19,6 °C 54 % 1008,5 hPa 0,0 mm 0,3 km/h (0 Bft) NO 39 ° 0 min 0,000 mm 1,5 UV-I 121 W/m² 10,0 °C 19,6 °C 1,6 km/h (1 Bft)
20.10.2019 12:20 19,6 °C 51 % 1008,6 hPa 0,0 mm 3,3 km/h (1 Bft) S-SO 159 ° 0 min 0,000 mm 1,5 UV-I 114 W/m² 9,2 °C 19,6 °C 4,8 km/h (1 Bft)
20.10.2019 12:21 19,4 °C 56 % 1008,6 hPa 0,0 mm 1,5 km/h (1 Bft) W-SW 240 ° 0 min 0,000 mm 1,5 UV-I 114 W/m² 10,4 °C 19,4 °C 4,8 km/h (1 Bft)
20.10.2019 12:22 19,3 °C 54 % 1008,6 hPa 0,0 mm 2,3 km/h (1 Bft) NO 53 ° 0 min 0,000 mm 1,4 UV-I 114 W/m² 9,8 °C 19,3 °C 4,8 km/h (1 Bft)
20.10.2019 12:23 19,3 °C 54 % 1008,6 hPa 0,0 mm 1,4 km/h (1 Bft) W-SW 257 ° 0 min 0,000 mm 1,5 UV-I 121 W/m² 9,8 °C 19,3 °C 3,2 km/h (1 Bft)
20.10.2019 12:24 19,3 °C 53 % 1008,6 hPa 0,0 mm 1,6 km/h (1 Bft) W-SW 257 ° 0 min 0,000 mm 1,4 UV-I 120 W/m² 9,5 °C 19,3 °C 3,2 km/h (1 Bft)
20.10.2019 12:25 19,3 °C 56 % 1008,6 hPa 0,0 mm 0,0 km/h (0 Bft) W-SW 257 ° 0 min 0,000 mm 1,4 UV-I 118 W/m² 10,3 °C 19,3 °C 0,0 km/h (0 Bft)
20.10.2019 12:26 19,3 °C 56 % 1008,7 hPa 0,0 mm 0,0 km/h (0 Bft) W-SW 257 ° 0 min 0,000 mm 1,4 UV-I 116 W/m² 10,3 °C 19,3 °C 0,0 km/h (0 Bft)
20.10.2019 12:27 19,2 °C 57 % 1008,7 hPa 0,0 mm 1,6 km/h (1 Bft) S 187 ° 0 min 0,000 mm 1,4 UV-I 116 W/m² 10,5 °C 19,2 °C 6,4 km/h (2 Bft)
20.10.2019 12:28 19,1 °C 53 % 1008,8 hPa 0,0 mm 2,6 km/h (1 Bft) S 187 ° 0 min 0,000 mm 1,4 UV-I 116 W/m² 9,3 °C 19,1 °C 6,4 km/h (2 Bft)
20.10.2019 12:29 19,1 °C 57 % 1008,8 hPa 0,0 mm 2,8 km/h (1 Bft) S 185 ° 0 min 0,000 mm 1,4 UV-I 120 W/m² 10,4 °C 19,1 °C 6,4 km/h (2 Bft)
20.10.2019 12:30 18,9 °C 59 % 1008,8 hPa 0,0 mm 5,8 km/h (2 Bft) S 184 ° 0 min 0,000 mm 1,4 UV-I 121 W/m² 10,7 °C 18,9 °C 11,3 km/h (2 Bft)
20.10.2019 12:31 18,9 °C 52 % 1008,8 hPa 0,0 mm 3,2 km/h (1 Bft) W-SW 240 ° 0 min 0,000 mm 1,4 UV-I 123 W/m² 8,8 °C 18,9 °C 8,0 km/h (2 Bft)
20.10.2019 12:32 18,8 °C 57 % 1008,8 hPa 0,0 mm 0,6 km/h (0 Bft) S 180 ° 0 min 0,000 mm 1,4 UV-I 127 W/m² 10,1 °C 18,8 °C 1,6 km/h (1 Bft)
20.10.2019 12:33 18,8 °C 56 % 1008,9 hPa 0,0 mm 1,0 km/h (0 Bft) S 180 ° 0 min 0,000 mm 1,4 UV-I 127 W/m² 9,8 °C 18,8 °C 3,2 km/h (1 Bft)
20.10.2019 12:34 18,7 °C 55 % 1008,8 hPa 0,0 mm 2,1 km/h (1 Bft) S 180 ° 0 min 0,000 mm 1,4 UV-I 134 W/m² 9,5 °C 18,7 °C 3,2 km/h (1 Bft)
20.10.2019 12:35 18,7 °C 54 % 1008,8 hPa 0,0 mm 2,4 km/h (1 Bft) S 179 ° 0 min 0,000 mm 1,4 UV-I 142 W/m² 9,2 °C 18,7 °C 3,2 km/h (1 Bft)
20.10.2019 12:36 18,6 °C 56 % 1008,8 hPa 0,0 mm 2,2 km/h (1 Bft) S 179 ° 0 min 0,000 mm 1,5 UV-I 146 W/m² 9,6 °C 18,6 °C 3,2 km/h (1 Bft)
20.10.2019 12:37 18,6 °C 55 % 1008,8 hPa 0,0 mm 1,8 km/h (1 Bft) S 179 ° 0 min 0,000 mm 1,5 UV-I 151 W/m² 9,4 °C 18,6 °C 3,2 km/h (1 Bft)
20.10.2019 12:38 18,6 °C 55 % 1008,8 hPa 0,0 mm 0,5 km/h (0 Bft) S 179 ° 0 min 0,000 mm 1,5 UV-I 155 W/m² 9,4 °C 18,6 °C 3,2 km/h (1 Bft)
20.10.2019 12:39 18,6 °C 56 % 1008,8 hPa 0,0 mm 0,0 km/h (0 Bft) S 179 ° 0 min 0,000 mm 1,5 UV-I 156 W/m² 9,6 °C 18,6 °C 0,0 km/h (0 Bft)
20.10.2019 12:40 18,6 °C 59 % 1008,8 hPa 0,0 mm 0,0 km/h (0 Bft) S 179 ° 0 min 0,000 mm 1,5 UV-I 156 W/m² 10,4 °C 18,6 °C 0,0 km/h (0 Bft)
20.10.2019 12:41 18,7 °C 58 % 1008,8 hPa 0,0 mm 0,0 km/h (0 Bft) S 179 ° 0 min 0,000 mm 1,5 UV-I 160 W/m² 10,3 °C 18,7 °C 0,0 km/h (0 Bft)
20.10.2019 12:42 18,6 °C 62 % 1008,8 hPa 0,0 mm 0,0 km/h (0 Bft) S 179 ° 0 min 0,000 mm 1,6 UV-I 165 W/m² 11,2 °C 18,6 °C 0,0 km/h (0 Bft)
20.10.2019 12:43 18,5 °C 61 % 1008,8 hPa 0,0 mm 3,7 km/h (1 Bft) SO 138 ° 0 min 0,000 mm 1,6 UV-I 171 W/m² 10,8 °C 18,5 °C 6,4 km/h (2 Bft)
20.10.2019 12:44 18,6 °C 54 % 1008,8 hPa 0,0 mm 6,8 km/h (2 Bft) NO 53 ° 0 min 0,000 mm 1,6 UV-I 178 W/m² 9,1 °C 18,6 °C 14,5 km/h (3 Bft)
20.10.2019 12:45 18,7 °C 55 % 1008,7 hPa 0,0 mm 5,8 km/h (2 Bft) SO 126 ° 0 min 0,000 mm 1,6 UV-I 179 W/m² 9,5 °C 18,7 °C 8,0 km/h (2 Bft)
20.10.2019 12:46 18,9 °C 53 % 1008,8 hPa 0,0 mm 2,8 km/h (1 Bft) O-NO 76 ° 0 min 0,000 mm 1,7 UV-I 181 W/m² 9,1 °C 18,9 °C 4,8 km/h (1 Bft)
20.10.2019 12:47 18,9 °C 57 % 1008,7 hPa 0,0 mm 3,5 km/h (1 Bft) O-NO 57 ° 0 min 0,000 mm 1,7 UV-I 181 W/m² 10,2 °C 18,9 °C 8,0 km/h (2 Bft)
20.10.2019 12:48 19,0 °C 56 % 1008,7 hPa 0,0 mm 1,6 km/h (1 Bft) NO 50 ° 0 min 0,000 mm 1,7 UV-I 181 W/m² 10,0 °C 19,0 °C 3,2 km/h (1 Bft)
20.10.2019 12:49 18,9 °C 59 % 1008,7 hPa 0,0 mm 2,2 km/h (1 Bft) SO 126 ° 0 min 0,000 mm 1,6 UV-I 179 W/m² 10,7 °C 18,9 °C 4,8 km/h (1 Bft)
20.10.2019 12:50 18,9 °C 60 % 1008,7 hPa 0,0 mm 3,6 km/h (1 Bft) O 83 ° 0 min 0,000 mm 1,6 UV-I 179 W/m² 11,0 °C 18,9 °C 4,8 km/h (1 Bft)
20.10.2019 12:51 18,9 °C 60 % 1008,7 hPa 0,0 mm 3,0 km/h (1 Bft) N-NO 18 ° 0 min 0,000 mm 1,6 UV-I 179 W/m² 11,0 °C 18,9 °C 6,4 km/h (2 Bft)
20.10.2019 12:52 18,8 °C 58 % 1008,7 hPa 0,0 mm 1,3 km/h (1 Bft) N-NO 22 ° 0 min 0,000 mm 1,6 UV-I 178 W/m² 10,4 °C 18,8 °C 3,2 km/h (1 Bft)
20.10.2019 12:53 18,8 °C 58 % 1008,7 hPa 0,0 mm 0,5 km/h (0 Bft) O 83 ° 0 min 0,000 mm 1,6 UV-I 181 W/m² 10,4 °C 18,8 °C 3,2 km/h (1 Bft)
20.10.2019 12:54 18,9 °C 55 % 1008,7 hPa 0,0 mm 0,1 km/h (0 Bft) O 83 ° 0 min 0,000 mm 1,6 UV-I 185 W/m² 9,7 °C 18,9 °C 1,6 km/h (1 Bft)
20.10.2019 12:55 19,0 °C 57 % 1008,8 hPa 0,0 mm 0,0 km/h (0 Bft) O 83 ° 0 min 0,000 mm 1,7 UV-I 188 W/m² 10,3 °C 19,0 °C 0,0 km/h (0 Bft)
20.10.2019 12:56 19,0 °C 57 % 1008,7 hPa 0,0 mm 0,7 km/h (0 Bft) NO 54 ° 0 min 0,000 mm 1,7 UV-I 192 W/m² 10,3 °C 19,0 °C 3,2 km/h (1 Bft)
20.10.2019 12:57 18,9 °C 61 % 1008,8 hPa 0,0 mm 1,4 km/h (1 Bft) O 96 ° 0 min 0,000 mm 1,7 UV-I 197 W/m² 11,2 °C 18,9 °C 4,8 km/h (1 Bft)
20.10.2019 12:58 18,8 °C 59 % 1008,8 hPa 0,0 mm 3,4 km/h (1 Bft) O 90 ° 0 min 0,000 mm 1,7 UV-I 209 W/m² 10,6 °C 18,8 °C 4,8 km/h (1 Bft)
20.10.2019 12:59 18,8 °C 60 % 1008,7 hPa 0,0 mm 1,7 km/h (1 Bft) O 88 ° 0 min 0,000 mm 1,8 UV-I 209 W/m² 10,9 °C 18,8 °C 4,8 km/h (1 Bft)
20.10.2019 13:00 18,8 °C 58 % 1008,7 hPa 0,0 mm 0,3 km/h (0 Bft) O 88 ° 0 min 0,000 mm 1,8 UV-I 211 W/m² 10,4 °C 18,8 °C 1,6 km/h (1 Bft)
20.10.2019 13:01 18,8 °C 60 % 1008,8 hPa 0,0 mm 1,3 km/h (1 Bft) O 88 ° 0 min 0,127 mm 1,8 UV-I 216 W/m² 10,9 °C 18,8 °C 3,2 km/h (1 Bft)
20.10.2019 13:02 18,8 °C 57 % 1008,8 hPa 0,0 mm 2,1 km/h (1 Bft) O 87 ° 0 min 0,000 mm 1,8 UV-I 220 W/m² 10,1 °C 18,8 °C 3,2 km/h (1 Bft)
20.10.2019 13:03 18,9 °C 60 % 1008,8 hPa 0,0 mm 3,7 km/h (1 Bft) O-NO 60 ° 0 min 0,000 mm 1,8 UV-I 221 W/m² 11,0 °C 18,9 °C 4,8 km/h (1 Bft)
20.10.2019 13:04 18,9 °C 60 % 1008,8 hPa 0,0 mm 2,0 km/h (1 Bft) O 91 ° 0 min 0,000 mm 1,8 UV-I 218 W/m² 11,0 °C 18,9 °C 3,2 km/h (1 Bft)
20.10.2019 13:05 18,9 °C 62 % 1008,8 hPa 0,0 mm 0,4 km/h (0 Bft) O 91 ° 0 min 0,000 mm 1,8 UV-I 214 W/m² 11,5 °C 18,9 °C 1,6 km/h (1 Bft)
20.10.2019 13:06 18,9 °C 63 % 1008,8 hPa 0,0 mm 6,4 km/h (2 Bft) SO 138 ° 0 min 0,000 mm 1,8 UV-I 213 W/m² 11,7 °C 18,9 °C 14,5 km/h (3 Bft)
20.10.2019 13:07 18,8 °C 62 % 1008,8 hPa 0,0 mm 6,1 km/h (2 Bft) O 81 ° 0 min 0,000 mm 1,7 UV-I 209 W/m² 11,4 °C 18,8 °C 6,4 km/h (2 Bft)
20.10.2019 13:08 18,8 °C 62 % 1008,8 hPa 0,0 mm 3,6 km/h (1 Bft) O-SO 115 ° 0 min 0,000 mm 1,7 UV-I 206 W/m² 11,4 °C 18,8 °C 9,7 km/h (2 Bft)
20.10.2019 13:09 18,8 °C 62 % 1008,7 hPa 0,0 mm 9,3 km/h (2 Bft) SO 136 ° 0 min 0,000 mm 1,7 UV-I 206 W/m² 11,4 °C 18,8 °C 17,7 km/h (3 Bft)
20.10.2019 13:10 18,9 °C 56 % 1008,8 hPa 0,0 mm 5,8 km/h (2 Bft) O-NO 73 ° 0 min 0,000 mm 1,7 UV-I 200 W/m² 9,9 °C 18,9 °C 9,7 km/h (2 Bft)
20.10.2019 13:11 18,9 °C 61 % 1008,7 hPa 0,0 mm 5,2 km/h (1 Bft) O-NO 67 ° 0 min 0,000 mm 1,7 UV-I 199 W/m² 11,2 °C 18,9 °C 8,0 km/h (2 Bft)
20.10.2019 13:12 18,9 °C 59 % 1008,7 hPa 0,0 mm 8,0 km/h (2 Bft) O 88 ° 0 min 0,000 mm 1,7 UV-I 199 W/m² 10,7 °C 18,9 °C 16,1 km/h (3 Bft)
20.10.2019 13:13 19,0 °C 58 % 1008,7 hPa 0,0 mm 8,9 km/h (2 Bft) O-SO 103 ° 0 min 0,000 mm 1,6 UV-I 200 W/m² 10,5 °C 19,0 °C 12,9 km/h (3 Bft)
20.10.2019 13:14 19,1 °C 55 % 1008,7 hPa 0,0 mm 7,0 km/h (2 Bft) O-NO 67 ° 0 min 0,000 mm 1,6 UV-I 200 W/m² 9,8 °C 19,1 °C 9,7 km/h (2 Bft)
20.10.2019 13:15 19,1 °C 60 % 1008,7 hPa 0,0 mm 8,1 km/h (2 Bft) O-NO 69 ° 0 min 0,000 mm 1,6 UV-I 200 W/m² 11,1 °C 19,1 °C 11,3 km/h (2 Bft)
20.10.2019 13:16 19,1 °C 60 % 1008,7 hPa 0,0 mm 7,4 km/h (2 Bft) O-NO 65 ° 0 min 0,000 mm 1,6 UV-I 200 W/m² 11,1 °C 19,1 °C 14,5 km/h (3 Bft)
20.10.2019 13:17 19,0 °C 59 % 1008,7 hPa 0,0 mm 2,1 km/h (1 Bft) O 97 ° 0 min 0,000 mm 1,6 UV-I 200 W/m² 10,8 °C 19,0 °C 4,8 km/h (1 Bft)
20.10.2019 13:18 19,1 °C 55 % 1008,8 hPa 0,0 mm 5,5 km/h (1 Bft) O-NO 74 ° 0 min 0,000 mm 1,6 UV-I 200 W/m² 9,8 °C 19,1 °C 6,4 km/h (2 Bft)
20.10.2019 13:19 19,3 °C 53 % 1008,7 hPa 0,0 mm 7,0 km/h (2 Bft) O-NO 65 ° 0 min 0,000 mm 1,6 UV-I 200 W/m² 9,5 °C 19,3 °C 9,7 km/h (2 Bft)
20.10.2019 13:20 19,2 °C 59 % 1008,7 hPa 0,0 mm 4,3 km/h (1 Bft) O-NO 67 ° 0 min 0,000 mm 1,6 UV-I 199 W/m² 11,0 °C 19,2 °C 6,4 km/h (2 Bft)
20.10.2019 13:21 19,1 °C 59 % 1008,6 hPa 0,0 mm 5,2 km/h (1 Bft) O-NO 69 ° 0 min 0,000 mm 1,6 UV-I 200 W/m² 10,9 °C 19,1 °C 6,4 km/h (2 Bft)
20.10.2019 13:22 19,1 °C 60 % 1008,6 hPa 0,0 mm 2,7 km/h (1 Bft) O-SO 107 ° 0 min 0,000 mm 1,6 UV-I 204 W/m² 11,1 °C 19,1 °C 4,8 km/h (1 Bft)
20.10.2019 13:23 19,2 °C 57 % 1008,6 hPa 0,0 mm 4,8 km/h (1 Bft) O-SO 113 ° 0 min 0,000 mm 1,6 UV-I 206 W/m² 10,5 °C 19,2 °C 6,4 km/h (2 Bft)
20.10.2019 13:24 19,2 °C 54 % 1008,6 hPa 0,0 mm 5,4 km/h (1 Bft) O-NO 76 ° 0 min 0,000 mm 1,6 UV-I 211 W/m² 9,7 °C 19,2 °C 11,3 km/h (2 Bft)
20.10.2019 13:25 19,3 °C 52 % 1008,6 hPa 0,0 mm 8,3 km/h (2 Bft) SO 135 ° 0 min 0,000 mm 1,6 UV-I 216 W/m² 9,2 °C 19,3 °C 12,9 km/h (3 Bft)
20.10.2019 13:26 19,5 °C 54 % 1008,6 hPa 0,0 mm 7,3 km/h (2 Bft) NO 56 ° 0 min 0,000 mm 1,7 UV-I 225 W/m² 9,9 °C 19,5 °C 12,9 km/h (3 Bft)
20.10.2019 13:27 19,6 °C 55 % 1008,6 hPa 0,0 mm 7,2 km/h (2 Bft) O-NO 65 ° 0 min 0,000 mm 1,7 UV-I 225 W/m² 10,3 °C 19,6 °C 8,0 km/h (2 Bft)
20.10.2019 13:28 19,6 °C 52 % 1008,6 hPa 0,0 mm 4,7 km/h (1 Bft) O-NO 77 ° 0 min 0,000 mm 1,7 UV-I 223 W/m² 9,5 °C 19,6 °C 9,7 km/h (2 Bft)
20.10.2019 13:29 19,7 °C 52 % 1008,6 hPa 0,0 mm 8,4 km/h (2 Bft) O 101 ° 0 min 0,000 mm 1,7 UV-I 221 W/m² 9,6 °C 19,7 °C 14,5 km/h (3 Bft)
20.10.2019 13:30 19,7 °C 51 % 1008,6 hPa 0,0 mm 5,7 km/h (1 Bft) O-NO 67 ° 0 min 0,000 mm 1,7 UV-I 221 W/m² 9,3 °C 19,7 °C 9,7 km/h (2 Bft)
20.10.2019 13:31 19,7 °C 52 % 1008,6 hPa 0,0 mm 6,5 km/h (2 Bft) O-NO 61 ° 0 min 0,000 mm 1,7 UV-I 221 W/m² 9,6 °C 19,7 °C 9,7 km/h (2 Bft)
20.10.2019 13:32 19,7 °C 51 % 1008,5 hPa 0,0 mm 7,2 km/h (2 Bft) O-NO 78 ° 0 min 0,000 mm 1,7 UV-I 221 W/m² 9,3 °C 19,7 °C 14,5 km/h (3 Bft)
20.10.2019 13:33 19,8 °C 51 % 1008,6 hPa 0,0 mm 9,3 km/h (2 Bft) O-NO 67 ° 0 min 0,000 mm 1,7 UV-I 223 W/m² 9,4 °C 19,8 °C 16,1 km/h (3 Bft)
20.10.2019 13:34 19,8 °C 52 % 1008,5 hPa 0,0 mm 10,2 km/h (2 Bft) O 87 ° 0 min 0,000 mm 1,7 UV-I 225 W/m² 9,7 °C 19,8 °C 19,3 km/h (3 Bft)
20.10.2019 13:35 19,8 °C 50 % 1008,5 hPa 0,0 mm 7,3 km/h (2 Bft) O-NO 75 ° 0 min 0,000 mm 1,7 UV-I 225 W/m² 9,1 °C 19,8 °C 11,3 km/h (2 Bft)
20.10.2019 13:36 19,8 °C 50 % 1008,6 hPa 0,0 mm 7,6 km/h (2 Bft) O-NO 78 ° 0 min 0,000 mm 1,7 UV-I 225 W/m² 9,1 °C 19,8 °C 11,3 km/h (2 Bft)
20.10.2019 13:37 19,8 °C 51 % 1008,6 hPa 0,0 mm 5,0 km/h (1 Bft) NO 55 ° 0 min 0,000 mm 1,7 UV-I 229 W/m² 9,4 °C 19,8 °C 12,9 km/h (3 Bft)
20.10.2019 13:38 19,8 °C 51 % 1008,6 hPa 0,0 mm 7,1 km/h (2 Bft) O-NO 71 ° 0 min 0,000 mm 1,8 UV-I 230 W/m² 9,4 °C 19,8 °C 11,3 km/h (2 Bft)
20.10.2019 13:39 19,8 °C 51 % 1008,5 hPa 0,0 mm 5,4 km/h (1 Bft) O-NO 65 ° 0 min 0,000 mm 1,8 UV-I 236 W/m² 9,4 °C 19,8 °C 8,0 km/h (2 Bft)
20.10.2019 13:40 19,8 °C 54 % 1008,5 hPa 0,0 mm 4,1 km/h (1 Bft) O-SO 105 ° 0 min 0,000 mm 1,8 UV-I 239 W/m² 10,2 °C 19,8 °C 11,3 km/h (2 Bft)
20.10.2019 13:41 19,8 °C 53 % 1008,5 hPa 0,0 mm 9,1 km/h (2 Bft) O-NO 74 ° 0 min 0,000 mm 1,8 UV-I 241 W/m² 9,9 °C 19,8 °C 14,5 km/h (3 Bft)
20.10.2019 13:42 19,8 °C 51 % 1008,5 hPa 0,0 mm 5,9 km/h (2 Bft) O 96 ° 0 min 0,000 mm 1,9 UV-I 246 W/m² 9,4 °C 19,8 °C 6,4 km/h (2 Bft)
20.10.2019 13:43 19,7 °C 53 % 1008,5 hPa 0,0 mm 6,2 km/h (2 Bft) O-NO 64 ° 0 min 0,000 mm 1,9 UV-I 250 W/m² 9,8 °C 19,7 °C 9,7 km/h (2 Bft)
20.10.2019 13:44 19,7 °C 53 % 1008,5 hPa 0,0 mm 6,5 km/h (2 Bft) O-NO 74 ° 0 min 0,000 mm 1,9 UV-I 258 W/m² 9,8 °C 19,7 °C 9,7 km/h (2 Bft)
20.10.2019 13:45 19,7 °C 53 % 1008,5 hPa 0,0 mm 5,3 km/h (1 Bft) O-NO 76 ° 0 min 0,000 mm 1,9 UV-I 258 W/m² 9,8 °C 19,7 °C 8,0 km/h (2 Bft)
20.10.2019 13:46 19,8 °C 52 % 1008,5 hPa 0,0 mm 10,2 km/h (2 Bft) O-NO 59 ° 0 min 0,000 mm 1,9 UV-I 257 W/m² 9,7 °C 19,8 °C 16,1 km/h (3 Bft)
20.10.2019 13:47 19,8 °C 53 % 1008,5 hPa 0,0 mm 6,4 km/h (2 Bft) O-NO 71 ° 0 min 0,000 mm 1,9 UV-I 251 W/m² 9,9 °C 19,8 °C 9,7 km/h (2 Bft)
20.10.2019 13:48 19,9 °C 52 % 1008,5 hPa 0,0 mm 8,1 km/h (2 Bft) NO 55 ° 0 min 0,000 mm 1,9 UV-I 251 W/m² 9,7 °C 19,9 °C 12,9 km/h (3 Bft)
20.10.2019 13:49 19,9 °C 53 % 1008,5 hPa 0,0 mm 4,4 km/h (1 Bft) O-NO 61 ° 0 min 0,000 mm 1,9 UV-I 248 W/m² 10,0 °C 19,9 °C 9,7 km/h (2 Bft)
20.10.2019 13:50 19,9 °C 57 % 1008,5 hPa 0,0 mm 2,1 km/h (1 Bft) O-NO 58 ° 0 min 0,000 mm 1,9 UV-I 250 W/m² 11,1 °C 19,9 °C 4,8 km/h (1 Bft)
20.10.2019 13:51 19,8 °C 60 % 1008,6 hPa 0,0 mm 1,5 km/h (1 Bft) O-NO 76 ° 0 min 0,000 mm 1,9 UV-I 246 W/m² 11,8 °C 19,8 °C 6,4 km/h (2 Bft)
20.10.2019 13:52 19,7 °C 58 % 1008,6 hPa 0,0 mm 5,3 km/h (1 Bft) O-NO 69 ° 0 min 0,000 mm 1,9 UV-I 248 W/m² 11,2 °C 19,7 °C 6,4 km/h (2 Bft)
20.10.2019 13:53 19,6 °C 58 % 1008,6 hPa 0,0 mm 3,8 km/h (1 Bft) O 94 ° 0 min 0,000 mm 1,9 UV-I 246 W/m² 11,1 °C 19,6 °C 6,4 km/h (2 Bft)
20.10.2019 13:54 19,7 °C 57 % 1008,5 hPa 0,0 mm 10,8 km/h (2 Bft) O 87 ° 0 min 0,000 mm 1,9 UV-I 246 W/m² 10,9 °C 19,7 °C 16,1 km/h (3 Bft)
20.10.2019 13:55 19,7 °C 59 % 1008,5 hPa 0,0 mm 5,2 km/h (1 Bft) O-NO 78 ° 0 min 0,000 mm 1,9 UV-I 243 W/m² 11,5 °C 19,7 °C 6,4 km/h (2 Bft)
20.10.2019 13:56 19,6 °C 57 % 1008,5 hPa 0,0 mm 4,1 km/h (1 Bft) O-NO 66 ° 0 min 0,000 mm 1,9 UV-I 241 W/m² 10,8 °C 19,6 °C 6,4 km/h (2 Bft)
20.10.2019 13:57 19,7 °C 56 % 1008,5 hPa 0,0 mm 3,6 km/h (1 Bft) O-NO 67 ° 0 min 0,000 mm 1,8 UV-I 227 W/m² 10,7 °C 19,7 °C 4,8 km/h (1 Bft)
20.10.2019 13:58 19,7 °C 58 % 1008,5 hPa 0,0 mm 3,9 km/h (1 Bft) O-SO 115 ° 0 min 0,000 mm 1,8 UV-I 223 W/m² 11,2 °C 19,7 °C 11,3 km/h (2 Bft)
20.10.2019 13:59 19,8 °C 54 % 1008,4 hPa 0,0 mm 1,9 km/h (1 Bft) O-NO 66 ° 0 min 0,000 mm 1,8 UV-I 221 W/m² 10,2 °C 19,8 °C 4,8 km/h (1 Bft)
20.10.2019 14:00 19,9 °C 54 % 1008,4 hPa 0,0 mm 2,8 km/h (1 Bft) O-NO 69 ° 0 min 0,178 mm 1,7 UV-I 218 W/m² 10,3 °C 19,9 °C 4,8 km/h (1 Bft)
20.10.2019 14:01 19,9 °C 57 % 1008,4 hPa 0,0 mm 2,2 km/h (1 Bft) O-NO 67 ° 0 min 0,000 mm 1,7 UV-I 216 W/m² 11,1 °C 19,9 °C 4,8 km/h (1 Bft)
20.10.2019 14:02 19,9 °C 59 % 1008,4 hPa 0,0 mm 0,0 km/h (0 Bft) O-NO 67 ° 0 min 0,000 mm 1,7 UV-I 216 W/m² 11,6 °C 19,9 °C 0,0 km/h (0 Bft)
20.10.2019 14:03 19,8 °C 53 % 1008,5 hPa 0,0 mm 0,0 km/h (0 Bft) O-NO 67 ° 0 min 0,000 mm 1,7 UV-I 230 W/m² 9,9 °C 19,8 °C 0,0 km/h (0 Bft)
20.10.2019 14:04 19,9 °C 54 % 1008,5 hPa 0,0 mm 0,9 km/h (0 Bft) O-NO 68 ° 0 min 0,000 mm 1,8 UV-I 237 W/m² 10,3 °C 19,9 °C 4,8 km/h (1 Bft)
20.10.2019 14:05 19,8 °C 59 % 1008,4 hPa 0,0 mm 1,5 km/h (1 Bft) O-NO 68 ° 0 min 0,000 mm 1,9 UV-I 279 W/m² 11,6 °C 19,8 °C 3,2 km/h (1 Bft)
20.10.2019 14:06 19,8 °C 59 % 1008,4 hPa 0,0 mm 2,8 km/h (1 Bft) O-NO 68 ° 0 min 0,000 mm 1,9 UV-I 255 W/m² 11,6 °C 19,8 °C 4,8 km/h (1 Bft)
20.10.2019 14:07 19,7 °C 58 % 1008,5 hPa 0,0 mm 4,9 km/h (1 Bft) S-SO 163 ° 0 min 0,000 mm 2,0 UV-I 276 W/m² 11,2 °C 19,7 °C 8,0 km/h (2 Bft)
20.10.2019 14:08 19,7 °C 55 % 1008,5 hPa 0,0 mm 1,6 km/h (1 Bft) SO 132 ° 0 min 0,000 mm 1,9 UV-I 274 W/m² 10,4 °C 19,7 °C 4,8 km/h (1 Bft)
20.10.2019 14:09 19,7 °C 55 % 1008,5 hPa 0,0 mm 5,1 km/h (1 Bft) O-NO 72 ° 0 min 0,000 mm 1,8 UV-I 241 W/m² 10,4 °C 19,7 °C 9,7 km/h (2 Bft)
20.10.2019 14:10 19,8 °C 54 % 1008,5 hPa 0,0 mm 3,6 km/h (1 Bft) O 91 ° 0 min 0,000 mm 1,8 UV-I 234 W/m² 10,2 °C 19,8 °C 4,8 km/h (1 Bft)
20.10.2019 14:11 19,8 °C 53 % 1008,5 hPa 0,0 mm 2,6 km/h (1 Bft) O 91 ° 0 min 0,000 mm 1,8 UV-I 229 W/m² 9,9 °C 19,8 °C 4,8 km/h (1 Bft)
20.10.2019 14:12 19,7 °C 55 % 1008,4 hPa 0,0 mm 0,3 km/h (0 Bft) O 91 ° 0 min 0,000 mm 1,7 UV-I 225 W/m² 10,4 °C 19,7 °C 3,2 km/h (1 Bft)
20.10.2019 14:13 19,7 °C 58 % 1008,4 hPa 0,0 mm 1,2 km/h (1 Bft) O 92 ° 0 min 0,000 mm 1,7 UV-I 218 W/m² 11,2 °C 19,7 °C 3,2 km/h (1 Bft)
20.10.2019 14:14 19,7 °C 55 % 1008,4 hPa 0,0 mm 2,9 km/h (1 Bft) SO 142 ° 0 min 0,000 mm 1,7 UV-I 214 W/m² 10,4 °C 19,7 °C 4,8 km/h (1 Bft)
20.10.2019 14:15 19,7 °C 60 % 1008,4 hPa 0,0 mm 0,0 km/h (0 Bft) SO 142 ° 0 min 0,000 mm 1,7 UV-I 213 W/m² 11,7 °C 19,7 °C 0,0 km/h (0 Bft)
20.10.2019 14:16 19,6 °C 57 % 1008,4 hPa 0,0 mm 4,7 km/h (1 Bft) O 87 ° 0 min 0,000 mm 1,7 UV-I 207 W/m² 10,8 °C 19,6 °C 6,4 km/h (2 Bft)
20.10.2019 14:17 19,4 °C 61 % 1008,4 hPa 0,0 mm 7,3 km/h (2 Bft) O-SO 121 ° 0 min 0,000 mm 1,6 UV-I 202 W/m² 11,7 °C 19,4 °C 11,3 km/h (2 Bft)
20.10.2019 14:18 19,4 °C 57 % 1008,4 hPa 0,0 mm 7,4 km/h (2 Bft) O-NO 76 ° 0 min 0,000 mm 1,6 UV-I 200 W/m² 10,7 °C 19,4 °C 11,3 km/h (2 Bft)
20.10.2019 14:19 19,4 °C 58 % 1008,4 hPa 0,0 mm 6,4 km/h (2 Bft) NO 54 ° 0 min 0,000 mm 1,6 UV-I 199 W/m² 10,9 °C 19,4 °C 8,0 km/h (2 Bft)
20.10.2019 14:20 19,6 °C 55 % 1008,4 hPa 0,0 mm 5,8 km/h (2 Bft) SO 137 ° 0 min 0,000 mm 1,6 UV-I 197 W/m² 10,3 °C 19,6 °C 8,0 km/h (2 Bft)
20.10.2019 14:21 19,6 °C 55 % 1008,4 hPa 0,0 mm 7,2 km/h (2 Bft) O-NO 75 ° 0 min 0,000 mm 1,6 UV-I 197 W/m² 10,3 °C 19,6 °C 14,5 km/h (3 Bft)
20.10.2019 14:22 19,7 °C 56 % 1008,4 hPa 0,0 mm 4,6 km/h (1 Bft) O-NO 74 ° 0 min 0,000 mm 1,6 UV-I 193 W/m² 10,7 °C 19,7 °C 8,0 km/h (2 Bft)
20.10.2019 14:23 19,7 °C 57 % 1008,5 hPa 0,0 mm 3,2 km/h (1 Bft) O-NO 72 ° 0 min 0,000 mm 1,5 UV-I 190 W/m² 10,9 °C 19,7 °C 4,8 km/h (1 Bft)
20.10.2019 14:24 19,7 °C 56 % 1008,4 hPa 0,0 mm 3,2 km/h (1 Bft) O-NO 72 ° 0 min 0,000 mm 1,5 UV-I 186 W/m² 10,7 °C 19,7 °C 4,8 km/h (1 Bft)
20.10.2019 14:25 19,6 °C 59 % 1008,4 hPa 0,0 mm 4,2 km/h (1 Bft) O-NO 73 ° 0 min 0,000 mm 1,5 UV-I 181 W/m² 11,4 °C 19,6 °C 4,8 km/h (1 Bft)
20.10.2019 14:26 19,4 °C 60 % 1008,3 hPa 0,0 mm 5,6 km/h (1 Bft) O-SO 105 ° 0 min 0,000 mm 1,5 UV-I 174 W/m² 11,4 °C 19,4 °C 9,7 km/h (2 Bft)
20.10.2019 14:27 19,3 °C 60 % 1008,4 hPa 0,0 mm 4,0 km/h (1 Bft) O-SO 105 ° 0 min 0,000 mm 1,4 UV-I 169 W/m² 11,3 °C 19,3 °C 6,4 km/h (2 Bft)
20.10.2019 14:28 19,2 °C 60 % 1008,4 hPa 0,0 mm 5,2 km/h (1 Bft) O 92 ° 0 min 0,000 mm 1,4 UV-I 163 W/m² 11,2 °C 19,2 °C 6,4 km/h (2 Bft)
20.10.2019 14:29 19,1 °C 60 % 1008,4 hPa 0,0 mm 5,3 km/h (1 Bft) O-NO 78 ° 0 min 0,000 mm 1,4 UV-I 158 W/m² 11,1 °C 19,1 °C 8,0 km/h (2 Bft)
20.10.2019 14:30 19,1 °C 60 % 1008,4 hPa 0,0 mm 4,8 km/h (1 Bft) O-NO 78 ° 0 min 0,000 mm 1,3 UV-I 156 W/m² 11,1 °C 19,1 °C 6,4 km/h (2 Bft)
20.10.2019 14:31 19,2 °C 57 % 1008,4 hPa 0,0 mm 3,2 km/h (1 Bft) O-NO 78 ° 0 min 0,000 mm 1,3 UV-I 153 W/m² 10,5 °C 19,2 °C 4,8 km/h (1 Bft)
20.10.2019 14:32 19,2 °C 62 % 1008,4 hPa 0,0 mm 1,4 km/h (1 Bft) O-NO 78 ° 0 min 0,000 mm 1,3 UV-I 148 W/m² 11,7 °C 19,2 °C 3,2 km/h (1 Bft)
20.10.2019 14:33 19,0 °C 61 % 1008,4 hPa 0,0 mm 2,3 km/h (1 Bft) SO 125 ° 0 min 0,000 mm 1,3 UV-I 146 W/m² 11,3 °C 19,0 °C 4,8 km/h (1 Bft)
20.10.2019 14:34 18,9 °C 63 % 1008,4 hPa 0,0 mm 3,4 km/h (1 Bft) O-NO 71 ° 0 min 0,000 mm 1,3 UV-I 144 W/m² 11,7 °C 18,9 °C 4,8 km/h (1 Bft)
20.10.2019 14:35 18,8 °C 61 % 1008,4 hPa 0,0 mm 2,0 km/h (1 Bft) O-NO 71 ° 0 min 0,000 mm 1,2 UV-I 142 W/m² 11,1 °C 18,8 °C 4,8 km/h (1 Bft)
20.10.2019 14:36 18,7 °C 61 % 1008,4 hPa 0,0 mm 2,8 km/h (1 Bft) O 81 ° 0 min 0,000 mm 1,2 UV-I 141 W/m² 11,0 °C 18,7 °C 4,8 km/h (1 Bft)
20.10.2019 14:37 18,7 °C 60 % 1008,3 hPa 0,0 mm 0,6 km/h (0 Bft) O 81 ° 0 min 0,000 mm 1,2 UV-I 139 W/m² 10,8 °C 18,7 °C 3,2 km/h (1 Bft)
20.10.2019 14:38 18,7 °C 63 % 1008,4 hPa 0,0 mm 0,0 km/h (0 Bft) O 81 ° 0 min 0,000 mm 1,2 UV-I 139 W/m² 11,5 °C 18,7 °C 0,0 km/h (0 Bft)
20.10.2019 14:39 18,7 °C 62 % 1008,4 hPa 0,0 mm 0,7 km/h (0 Bft) O 81 ° 0 min 0,000 mm 1,2 UV-I 137 W/m² 11,3 °C 18,7 °C 1,6 km/h (1 Bft)
20.10.2019 14:40 18,7 °C 61 % 1008,3 hPa 0,0 mm 3,0 km/h (1 Bft) O 89 ° 0 min 0,000 mm 1,2 UV-I 137 W/m² 11,0 °C 18,7 °C 4,8 km/h (1 Bft)
20.10.2019 14:41 18,7 °C 64 % 1008,4 hPa 0,0 mm 4,4 km/h (1 Bft) O-NO 73 ° 0 min 0,000 mm 1,2 UV-I 137 W/m² 11,7 °C 18,7 °C 6,4 km/h (2 Bft)
20.10.2019 14:42 18,7 °C 57 % 1008,3 hPa 0,0 mm 2,6 km/h (1 Bft) O-NO 73 ° 0 min 0,000 mm 1,2 UV-I 135 W/m² 10,0 °C 18,7 °C 3,2 km/h (1 Bft)
20.10.2019 14:43 18,7 °C 64 % 1008,3 hPa 0,0 mm 3,6 km/h (1 Bft) O-NO 74 ° 0 min 0,000 mm 1,1 UV-I 135 W/m² 11,7 °C 18,7 °C 4,8 km/h (1 Bft)
20.10.2019 14:44 18,6 °C 61 % 1008,3 hPa 0,0 mm 4,1 km/h (1 Bft) O-NO 71 ° 0 min 0,000 mm 1,1 UV-I 134 W/m² 10,9 °C 18,6 °C 6,4 km/h (2 Bft)
20.10.2019 14:45 18,6 °C 65 % 1008,3 hPa 0,0 mm 4,9 km/h (1 Bft) O-NO 57 ° 0 min 0,000 mm 1,1 UV-I 134 W/m² 11,9 °C 18,6 °C 6,4 km/h (2 Bft)
20.10.2019 14:46 18,5 °C 62 % 1008,4 hPa 0,0 mm 0,8 km/h (0 Bft) O-NO 57 ° 0 min 0,000 mm 1,1 UV-I 135 W/m² 11,1 °C 18,5 °C 3,2 km/h (1 Bft)
20.10.2019 14:47 18,4 °C 63 % 1008,4 hPa 0,0 mm 0,7 km/h (0 Bft) O-NO 57 ° 0 min 0,000 mm 1,1 UV-I 135 W/m² 11,2 °C 18,4 °C 1,6 km/h (1 Bft)
20.10.2019 14:48 18,5 °C 63 % 1008,4 hPa 0,0 mm 0,3 km/h (0 Bft) O-NO 57 ° 0 min 0,000 mm 1,1 UV-I 135 W/m² 11,3 °C 18,5 °C 1,6 km/h (1 Bft)
20.10.2019 14:49 18,4 °C 65 % 1008,4 hPa 0,0 mm 2,5 km/h (1 Bft) O-NO 69 ° 0 min 0,000 mm 1,1 UV-I 135 W/m² 11,7 °C 18,4 °C 6,4 km/h (2 Bft)
20.10.2019 14:50 18,4 °C 63 % 1008,3 hPa 0,0 mm 3,2 km/h (1 Bft) NO 55 ° 0 min 0,000 mm 1,1 UV-I 134 W/m² 11,2 °C 18,4 °C 4,8 km/h (1 Bft)
20.10.2019 14:51 18,4 °C 65 % 1008,3 hPa 0,0 mm 4,9 km/h (1 Bft) O 88 ° 0 min 0,000 mm 1,0 UV-I 134 W/m² 11,7 °C 18,4 °C 9,7 km/h (2 Bft)
20.10.2019 14:52 18,3 °C 65 % 1008,3 hPa 0,0 mm 2,8 km/h (1 Bft) O-NO 78 ° 0 min 0,000 mm 1,0 UV-I 132 W/m² 11,6 °C 18,3 °C 4,8 km/h (1 Bft)
20.10.2019 14:53 18,2 °C 64 % 1008,3 hPa 0,0 mm 2,7 km/h (1 Bft) O 79 ° 0 min 0,000 mm 1,0 UV-I 130 W/m² 11,3 °C 18,2 °C 4,8 km/h (1 Bft)
20.10.2019 14:54 18,2 °C 66 % 1008,4 hPa 0,0 mm 3,2 km/h (1 Bft) O 79 ° 0 min 0,000 mm 1,0 UV-I 127 W/m² 11,7 °C 18,2 °C 4,8 km/h (1 Bft)
20.10.2019 14:55 18,2 °C 64 % 1008,4 hPa 0,0 mm 1,7 km/h (1 Bft) O 79 ° 0 min 0,000 mm 1,0 UV-I 123 W/m² 11,3 °C 18,2 °C 3,2 km/h (1 Bft)
20.10.2019 14:56 18,2 °C 66 % 1008,4 hPa 0,0 mm 5,2 km/h (1 Bft) O 97 ° 0 min 0,000 mm 1,0 UV-I 123 W/m² 11,7 °C 18,2 °C 9,7 km/h (2 Bft)
20.10.2019 14:57 18,2 °C 63 % 1008,4 hPa 0,0 mm 2,9 km/h (1 Bft) O 82 ° 0 min 0,000 mm 1,0 UV-I 120 W/m² 11,0 °C 18,2 °C 4,8 km/h (1 Bft)
20.10.2019 14:58 18,3 °C 60 % 1008,4 hPa 0,0 mm 2,9 km/h (1 Bft) O 82 ° 0 min 0,000 mm 0,9 UV-I 118 W/m² 10,4 °C 18,3 °C 4,8 km/h (1 Bft)
20.10.2019 14:59 18,3 °C 62 % 1008,4 hPa 0,0 mm 0,2 km/h (0 Bft) O 82 ° 0 min 0,000 mm 0,9 UV-I 116 W/m² 10,9 °C 18,3 °C 1,6 km/h (1 Bft)
20.10.2019 15:00 18,4 °C 59 % 1008,4 hPa 0,0 mm 0,0 km/h (0 Bft) O 82 ° 0 min 0,000 mm 0,9 UV-I 114 W/m² 10,2 °C 18,4 °C 0,0 km/h (0 Bft)
20.10.2019 15:01 18,5 °C 59 % 1008,3 hPa 0,0 mm 0,0 km/h (0 Bft) O 84 ° 0 min 0,127 mm 0,9 UV-I 113 W/m² 10,3 °C 18,5 °C 0,0 km/h (0 Bft)
20.10.2019 15:02 18,6 °C 59 % 1008,4 hPa 0,0 mm 5,6 km/h (1 Bft) NO 52 ° 0 min 0,000 mm 0,9 UV-I 111 W/m² 10,4 °C 18,6 °C 9,7 km/h (2 Bft)
20.10.2019 15:03 18,6 °C 60 % 1008,4 hPa 0,0 mm 2,1 km/h (1 Bft) O-NO 58 ° 0 min 0,000 mm 0,9 UV-I 109 W/m² 10,7 °C 18,6 °C 4,8 km/h (1 Bft)
20.10.2019 15:04 18,6 °C 59 % 1008,4 hPa 0,0 mm 0,0 km/h (0 Bft) O-NO 58 ° 0 min 0,000 mm 0,9 UV-I 109 W/m² 10,4 °C 18,6 °C 0,0 km/h (0 Bft)
20.10.2019 15:05 18,6 °C 62 % 1008,4 hPa 0,0 mm 0,0 km/h (0 Bft) O-NO 58 ° 0 min 0,000 mm 0,9 UV-I 107 W/m² 11,2 °C 18,6 °C 0,0 km/h (0 Bft)
20.10.2019 15:06 18,4 °C 63 % 1008,4 hPa 0,0 mm 0,3 km/h (0 Bft) O-NO 58 ° 0 min 0,000 mm 0,8 UV-I 107 W/m² 11,2 °C 18,4 °C 4,8 km/h (1 Bft)
20.10.2019 15:07 18,3 °C 64 % 1008,3 hPa 0,0 mm 4,0 km/h (1 Bft) O 82 ° 0 min 0,000 mm 0,8 UV-I 104 W/m² 11,4 °C 18,3 °C 6,4 km/h (2 Bft)
20.10.2019 15:08 18,2 °C 65 % 1008,4 hPa 0,0 mm 4,0 km/h (1 Bft) O 84 ° 0 min 0,000 mm 0,8 UV-I 102 W/m² 11,5 °C 18,2 °C 9,7 km/h (2 Bft)
20.10.2019 15:09 18,1 °C 63 % 1008,4 hPa 0,0 mm 0,9 km/h (0 Bft) O 84 ° 0 min 0,000 mm 0,8 UV-I 100 W/m² 10,9 °C 18,1 °C 3,2 km/h (1 Bft)
20.10.2019 15:10 18,0 °C 63 % 1008,4 hPa 0,0 mm 0,0 km/h (0 Bft) O 84 ° 0 min 0,000 mm 0,8 UV-I 98 W/m² 10,8 °C 18,0 °C 0,0 km/h (0 Bft)
20.10.2019 15:11 17,9 °C 68 % 1008,4 hPa 0,0 mm 0,0 km/h (0 Bft) O 84 ° 0 min 0,000 mm 0,8 UV-I 98 W/m² 11,9 °C 17,9 °C 0,0 km/h (0 Bft)
20.10.2019 15:12 17,9 °C 65 % 1008,4 hPa 0,0 mm 0,2 km/h (0 Bft) O 84 ° 0 min 0,000 mm 0,8 UV-I 97 W/m² 11,2 °C 17,9 °C 1,6 km/h (1 Bft)
20.10.2019 15:13 17,8 °C 67 % 1008,4 hPa 0,0 mm 0,0 km/h (0 Bft) O 84 ° 0 min 0,000 mm 0,8 UV-I 93 W/m² 11,6 °C 17,8 °C 0,0 km/h (0 Bft)
20.10.2019 15:14 17,8 °C 64 % 1008,4 hPa 0,0 mm 0,0 km/h (0 Bft) O 84 ° 0 min 0,000 mm 0,7 UV-I 93 W/m² 10,9 °C 17,8 °C 0,0 km/h (0 Bft)
20.10.2019 15:15 17,8 °C 63 % 1008,5 hPa 0,0 mm 0,0 km/h (0 Bft) O 84 ° 0 min 0,000 mm 0,7 UV-I 90 W/m² 10,7 °C 17,8 °C 0,0 km/h (0 Bft)
20.10.2019 15:16 17,8 °C 63 % 1008,4 hPa 0,0 mm 2,1 km/h (1 Bft) O 82 ° 0 min 0,000 mm 0,7 UV-I 88 W/m² 10,7 °C 17,8 °C 6,4 km/h (2 Bft)
20.10.2019 15:17 17,8 °C 64 % 1008,4 hPa 0,0 mm 6,6 km/h (2 Bft) NO 53 ° 0 min 0,000 mm 0,7 UV-I 86 W/m² 10,9 °C 17,8 °C 11,3 km/h (2 Bft)
20.10.2019 15:18 17,8 °C 66 % 1008,4 hPa 0,0 mm 4,1 km/h (1 Bft) O-NO 77 ° 0 min 0,000 mm 0,7 UV-I 86 W/m² 11,4 °C 17,8 °C 6,4 km/h (2 Bft)
20.10.2019 15:19 17,7 °C 65 % 1008,4 hPa 0,0 mm 5,3 km/h (1 Bft) S-SO 153 ° 0 min 0,000 mm 0,7 UV-I 84 W/m² 11,0 °C 17,7 °C 6,4 km/h (2 Bft)
20.10.2019 15:20 17,7 °C 63 % 1008,5 hPa 0,0 mm 1,4 km/h (1 Bft) S-SO 153 ° 0 min 0,000 mm 0,6 UV-I 83 W/m² 10,6 °C 17,7 °C 4,8 km/h (1 Bft)
20.10.2019 15:21 17,7 °C 66 % 1008,5 hPa 0,0 mm 1,0 km/h (0 Bft) NO 51 ° 0 min 0,000 mm 0,6 UV-I 81 W/m² 11,3 °C 17,7 °C 8,0 km/h (2 Bft)
20.10.2019 15:22 17,6 °C 65 % 1008,5 hPa 0,0 mm 4,9 km/h (1 Bft) O 88 ° 0 min 0,000 mm 0,6 UV-I 81 W/m² 10,9 °C 17,6 °C 6,4 km/h (2 Bft)
20.10.2019 15:23 17,6 °C 63 % 1008,5 hPa 0,0 mm 2,8 km/h (1 Bft) O 88 ° 0 min 0,000 mm 0,6 UV-I 79 W/m² 10,5 °C 17,6 °C 4,8 km/h (1 Bft)
20.10.2019 15:24 17,6 °C 66 % 1008,5 hPa 0,0 mm 0,3 km/h (0 Bft) O 88 ° 0 min 0,000 mm 0,6 UV-I 77 W/m² 11,2 °C 17,6 °C 1,6 km/h (1 Bft)
20.10.2019 15:25 17,5 °C 69 % 1008,6 hPa 0,0 mm 0,0 km/h (0 Bft) O 88 ° 0 min 0,000 mm 0,6 UV-I 77 W/m² 11,7 °C 17,5 °C 0,0 km/h (0 Bft)
20.10.2019 15:26 17,4 °C 69 % 1008,5 hPa 0,0 mm 0,0 km/h (0 Bft) O 88 ° 0 min 0,000 mm 0,6 UV-I 76 W/m² 11,7 °C 17,4 °C 0,0 km/h (0 Bft)
20.10.2019 15:27 17,3 °C 66 % 1008,4 hPa 0,0 mm 7,2 km/h (2 Bft) O-NO 71 ° 0 min 0,000 mm 0,6 UV-I 76 W/m² 10,9 °C 17,3 °C 12,9 km/h (3 Bft)
20.10.2019 15:28 17,3 °C 65 % 1008,3 hPa 0,0 mm 10,1 km/h (2 Bft) O-SO 103 ° 0 min 0,000 mm 0,6 UV-I 76 W/m² 10,7 °C 17,3 °C 12,9 km/h (3 Bft)
20.10.2019 15:29 17,3 °C 65 % 1008,4 hPa 0,0 mm 2,2 km/h (1 Bft) O-SO 103 ° 0 min 0,000 mm 0,6 UV-I 74 W/m² 10,7 °C 17,3 °C 4,8 km/h (1 Bft)
20.10.2019 15:30 17,4 °C 63 % 1008,4 hPa 0,0 mm 0,0 km/h (0 Bft) O-SO 103 ° 0 min 0,000 mm 0,5 UV-I 74 W/m² 10,3 °C 17,4 °C 0,0 km/h (0 Bft)
20.10.2019 15:31 17,4 °C 67 % 1008,4 hPa 0,0 mm 1,0 km/h (0 Bft) NO 53 ° 0 min 0,000 mm 0,5 UV-I 70 W/m² 11,2 °C 17,4 °C 8,0 km/h (2 Bft)
20.10.2019 15:32 17,3 °C 67 % 1008,4 hPa 0,0 mm 6,7 km/h (2 Bft) O-NO 65 ° 0 min 0,000 mm 0,5 UV-I 70 W/m² 11,1 °C 17,3 °C 9,7 km/h (2 Bft)
20.10.2019 15:33 17,3 °C 66 % 1008,4 hPa 0,0 mm 6,5 km/h (2 Bft) O-NO 74 ° 0 min 0,000 mm 0,5 UV-I 69 W/m² 10,9 °C 17,3 °C 11,3 km/h (2 Bft)
20.10.2019 15:34 17,2 °C 65 % 1008,5 hPa 0,0 mm 2,7 km/h (1 Bft) O-NO 74 ° 0 min 0,000 mm 0,5 UV-I 67 W/m² 10,6 °C 17,2 °C 6,4 km/h (2 Bft)
20.10.2019 15:35 17,2 °C 66 % 1008,4 hPa 0,0 mm 2,4 km/h (1 Bft) O 94 ° 0 min 0,000 mm 0,5 UV-I 65 W/m² 10,8 °C 17,2 °C 4,8 km/h (1 Bft)
20.10.2019 15:36 17,2 °C 67 % 1008,4 hPa 0,0 mm 1,7 km/h (1 Bft) O 94 ° 0 min 0,000 mm 0,5 UV-I 63 W/m² 11,0 °C 17,2 °C 3,2 km/h (1 Bft)
20.10.2019 15:37 17,2 °C 66 % 1008,4 hPa 0,0 mm 0,0 km/h (0 Bft) O 94 ° 0 min 0,000 mm 0,5 UV-I 63 W/m² 10,8 °C 17,2 °C 0,0 km/h (0 Bft)
20.10.2019 15:38 17,2 °C 67 % 1008,4 hPa 0,0 mm 0,0 km/h (0 Bft) O 94 ° 0 min 0,000 mm 0,5 UV-I 63 W/m² 11,0 °C 17,2 °C 0,0 km/h (0 Bft)
20.10.2019 15:39 17,2 °C 64 % 1008,4 hPa 0,0 mm 0,0 km/h (0 Bft) O 94 ° 0 min 0,000 mm 0,0 UV-I 62 W/m² 10,3 °C 17,2 °C 0,0 km/h (0 Bft)
20.10.2019 15:40 17,2 °C 64 % 1008,4 hPa 0,0 mm 0,0 km/h (0 Bft) O 94 ° 0 min 0,000 mm 0,0 UV-I 62 W/m² 10,3 °C 17,2 °C 0,0 km/h (0 Bft)
20.10.2019 15:41 17,2 °C 67 % 1008,4 hPa 0,0 mm 0,0 km/h (0 Bft) O-NO 68 ° 0 min 0,000 mm 0,0 UV-I 62 W/m² 11,0 °C 17,2 °C 0,0 km/h (0 Bft)
20.10.2019 15:42 17,1 °C 67 % 1008,4 hPa 0,0 mm 0,0 km/h (0 Bft) O-NO 68 ° 0 min 0,000 mm 0,0 UV-I 62 W/m² 10,9 °C 17,1 °C 0,0 km/h (0 Bft)
20.10.2019 15:43 16,9 °C 67 % 1008,4 hPa 0,0 mm 0,0 km/h (0 Bft) O-NO 69 ° 0 min 0,000 mm 0,0 UV-I 63 W/m² 10,7 °C 16,9 °C 0,0 km/h (0 Bft)
20.10.2019 15:44 16,8 °C 68 % 1008,3 hPa 0,0 mm 0,0 km/h (0 Bft) O-NO 69 ° 0 min 0,000 mm 0,0 UV-I 63 W/m² 10,9 °C 16,8 °C 0,0 km/h (0 Bft)
20.10.2019 15:45 16,8 °C 66 % 1008,3 hPa 0,0 mm 4,0 km/h (1 Bft) O-NO 66 ° 0 min 0,000 mm 0,5 UV-I 65 W/m² 10,4 °C 16,8 °C 6,4 km/h (2 Bft)
20.10.2019 15:46 16,9 °C 65 % 1008,4 hPa 0,0 mm 2,6 km/h (1 Bft) O-NO 74 ° 0 min 0,000 mm 0,5 UV-I 65 W/m² 10,3 °C 16,9 °C 6,4 km/h (2 Bft)
20.10.2019 15:47 16,9 °C 65 % 1008,4 hPa 0,0 mm 0,9 km/h (0 Bft) O-NO 74 ° 0 min 0,000 mm 0,5 UV-I 67 W/m² 10,3 °C 16,9 °C 3,2 km/h (1 Bft)
20.10.2019 15:48 16,9 °C 64 % 1008,4 hPa 0,0 mm 0,0 km/h (0 Bft) O-NO 74 ° 0 min 0,000 mm 0,5 UV-I 69 W/m² 10,0 °C 16,9 °C 0,0 km/h (0 Bft)
20.10.2019 15:49 16,9 °C 66 % 1008,4 hPa 0,0 mm 0,1 km/h (0 Bft) O-NO 74 ° 0 min 0,000 mm 0,5 UV-I 69 W/m² 10,5 °C 16,9 °C 1,6 km/h (1 Bft)
20.10.2019 15:50 17,0 °C 64 % 1008,4 hPa 0,0 mm 0,0 km/h (0 Bft) O-NO 74 ° 0 min 0,000 mm 0,5 UV-I 69 W/m² 10,1 °C 17,0 °C 0,0 km/h (0 Bft)
20.10.2019 15:51 17,1 °C 64 % 1008,4 hPa 0,0 mm 0,0 km/h (0 Bft) O-NO 74 ° 0 min 0,000 mm 0,5 UV-I 70 W/m² 10,2 °C 17,1 °C 0,0 km/h (0 Bft)
20.10.2019 15:52 17,2 °C 63 % 1008,4 hPa 0,0 mm 0,0 km/h (0 Bft) O-NO 74 ° 0 min 0,000 mm 0,5 UV-I 70 W/m² 10,1 °C 17,2 °C 0,0 km/h (0 Bft)
20.10.2019 15:53 17,1 °C 68 % 1008,4 hPa 0,0 mm 0,0 km/h (0 Bft) O-NO 74 ° 0 min 0,000 mm 0,5 UV-I 70 W/m² 11,1 °C 17,1 °C 0,0 km/h (0 Bft)
20.10.2019 15:54 17,0 °C 67 % 1008,4 hPa 0,0 mm 4,4 km/h (1 Bft) O-NO 58 ° 0 min 0,000 mm 0,5 UV-I 70 W/m² 10,8 °C 17,0 °C 9,7 km/h (2 Bft)
20.10.2019 15:55 16,9 °C 67 % 1008,4 hPa 0,0 mm 3,1 km/h (1 Bft) O 98 ° 0 min 0,000 mm 0,5 UV-I 72 W/m² 10,7 °C 16,9 °C 6,4 km/h (2 Bft)
20.10.2019 15:56 16,9 °C 66 % 1008,5 hPa 0,0 mm 1,2 km/h (1 Bft) O 98 ° 0 min 0,000 mm 0,5 UV-I 72 W/m² 10,5 °C 16,9 °C 3,2 km/h (1 Bft)
20.10.2019 15:57 16,9 °C 66 % 1008,5 hPa 0,0 mm 0,0 km/h (0 Bft) O 98 ° 0 min 0,000 mm 0,5 UV-I 72 W/m² 10,5 °C 16,9 °C 0,0 km/h (0 Bft)
20.10.2019 15:58 16,9 °C 67 % 1008,5 hPa 0,0 mm 0,0 km/h (0 Bft) O 98 ° 0 min 0,000 mm 0,5 UV-I 74 W/m² 10,7 °C 16,9 °C 0,0 km/h (0 Bft)
20.10.2019 15:59 16,9 °C 66 % 1008,4 hPa 0,0 mm 0,0 km/h (0 Bft) O 98 ° 0 min 0,000 mm 0,5 UV-I 74 W/m² 10,5 °C 16,9 °C 0,0 km/h (0 Bft)
20.10.2019 16:00 16,9 °C 65 % 1008,4 hPa 0,0 mm 0,0 km/h (0 Bft) O 98 ° 0 min 0,000 mm 0,5 UV-I 76 W/m² 10,3 °C 16,9 °C 0,0 km/h (0 Bft)
20.10.2019 16:01 16,9 °C 64 % 1008,4 hPa 0,0 mm 2,0 km/h (1 Bft) S-SO 155 ° 0 min 0,051 mm 0,5 UV-I 76 W/m² 10,0 °C 16,9 °C 8,0 km/h (2 Bft)
20.10.2019 16:02 16,9 °C 67 % 1008,3 hPa 0,0 mm 6,9 km/h (2 Bft) O-NO 63 ° 0 min 0,000 mm 0,5 UV-I 76 W/m² 10,7 °C 16,9 °C 11,3 km/h (2 Bft)
20.10.2019 16:03 16,9 °C 67 % 1008,3 hPa 0,0 mm 6,1 km/h (2 Bft) O-NO 65 ° 0 min 0,000 mm 0,5 UV-I 76 W/m² 10,7 °C 16,9 °C 8,0 km/h (2 Bft)
20.10.2019 16:04 16,8 °C 66 % 1008,3 hPa 0,0 mm 2,9 km/h (1 Bft) O-SO 123 ° 0 min 0,000 mm 0,5 UV-I 76 W/m² 10,4 °C 16,8 °C 6,4 km/h (2 Bft)
20.10.2019 16:05 16,8 °C 68 % 1008,4 hPa 0,0 mm 3,5 km/h (1 Bft) O-SO 105 ° 0 min 0,000 mm 0,5 UV-I 76 W/m² 10,9 °C 16,8 °C 6,4 km/h (2 Bft)
20.10.2019 16:06 16,8 °C 65 % 1008,4 hPa 0,0 mm 5,4 km/h (1 Bft) O 80 ° 0 min 0,000 mm 0,5 UV-I 74 W/m² 10,2 °C 16,8 °C 12,9 km/h (3 Bft)
20.10.2019 16:07 16,9 °C 66 % 1008,4 hPa 0,0 mm 6,8 km/h (2 Bft) O-NO 65 ° 0 min 0,000 mm 0,5 UV-I 74 W/m² 10,5 °C 16,9 °C 9,7 km/h (2 Bft)
20.10.2019 16:08 16,8 °C 68 % 1008,3 hPa 0,0 mm 8,0 km/h (2 Bft) O-NO 57 ° 0 min 0,000 mm 0,5 UV-I 74 W/m² 10,9 °C 16,8 °C 12,9 km/h (3 Bft)
20.10.2019 16:09 16,8 °C 65 % 1008,4 hPa 0,0 mm 4,8 km/h (1 Bft) O 86 ° 0 min 0,000 mm 0,5 UV-I 70 W/m² 10,2 °C 16,8 °C 8,0 km/h (2 Bft)
20.10.2019 16:10 16,8 °C 66 % 1008,3 hPa 0,0 mm 8,3 km/h (2 Bft) O-SO 109 ° 0 min 0,000 mm 0,5 UV-I 70 W/m² 10,4 °C 16,8 °C 16,1 km/h (3 Bft)
20.10.2019 16:11 16,9 °C 66 % 1008,3 hPa 0,0 mm 3,3 km/h (1 Bft) NO 53 ° 0 min 0,000 mm 0,5 UV-I 69 W/m² 10,5 °C 16,9 °C 6,4 km/h (2 Bft)
20.10.2019 16:12 16,9 °C 64 % 1008,3 hPa 0,0 mm 3,8 km/h (1 Bft) O-NO 78 ° 0 min 0,000 mm 0,5 UV-I 67 W/m² 10,0 °C 16,9 °C 11,3 km/h (2 Bft)
20.10.2019 16:13 17,0 °C 65 % 1008,3 hPa 0,0 mm 2,0 km/h (1 Bft) O 80 ° 0 min 0,000 mm 0,5 UV-I 67 W/m² 10,4 °C 17,0 °C 3,2 km/h (1 Bft)
20.10.2019 16:14 17,1 °C 62 % 1008,4 hPa 0,0 mm 1,7 km/h (1 Bft) NO 55 ° 0 min 0,000 mm 0,5 UV-I 65 W/m² 9,8 °C 17,1 °C 4,8 km/h (1 Bft)
20.10.2019 16:15 17,1 °C 63 % 1008,4 hPa 0,0 mm 3,8 km/h (1 Bft) O-NO 68 ° 0 min 0,000 mm 0,5 UV-I 65 W/m² 10,0 °C 17,1 °C 8,0 km/h (2 Bft)
20.10.2019 16:16 17,1 °C 64 % 1008,3 hPa 0,0 mm 9,1 km/h (2 Bft) O 88 ° 0 min 0,000 mm 0,5 UV-I 65 W/m² 10,2 °C 17,1 °C 16,1 km/h (3 Bft)
20.10.2019 16:17 17,2 °C 65 % 1008,3 hPa 0,0 mm 3,8 km/h (1 Bft) NO 36 ° 0 min 0,000 mm 0,5 UV-I 63 W/m² 10,6 °C 17,2 °C 4,8 km/h (1 Bft)
20.10.2019 16:18 17,1 °C 65 % 1008,3 hPa 0,0 mm 3,4 km/h (1 Bft) O-NO 67 ° 0 min 0,000 mm 0,0 UV-I 63 W/m² 10,5 °C 17,1 °C 6,4 km/h (2 Bft)
20.10.2019 16:19 17,1 °C 63 % 1008,3 hPa 0,0 mm 4,8 km/h (1 Bft) O-NO 63 ° 0 min 0,000 mm 0,0 UV-I 63 W/m² 10,0 °C 17,1 °C 8,0 km/h (2 Bft)
20.10.2019 16:20 17,1 °C 65 % 1008,3 hPa 0,0 mm 8,2 km/h (2 Bft) O-NO 74 ° 0 min 0,000 mm 0,0 UV-I 63 W/m² 10,5 °C 17,1 °C 11,3 km/h (2 Bft)
20.10.2019 16:21 17,1 °C 66 % 1008,3 hPa 0,0 mm 9,6 km/h (2 Bft) O 79 ° 0 min 0,000 mm 0,0 UV-I 63 W/m² 10,7 °C 17,1 °C 16,1 km/h (3 Bft)
20.10.2019 16:22 17,0 °C 64 % 1008,3 hPa 0,0 mm 5,0 km/h (1 Bft) O-NO 65 ° 0 min 0,000 mm 0,0 UV-I 63 W/m² 10,1 °C 17,0 °C 8,0 km/h (2 Bft)
20.10.2019 16:23 17,1 °C 63 % 1008,3 hPa 0,0 mm 2,0 km/h (1 Bft) N 5 ° 0 min 0,000 mm 0,0 UV-I 62 W/m² 10,0 °C 17,1 °C 3,2 km/h (1 Bft)
20.10.2019 16:24 17,1 °C 66 % 1008,3 hPa 0,0 mm 1,2 km/h (1 Bft) N 5 ° 0 min 0,000 mm 0,0 UV-I 62 W/m² 10,7 °C 17,1 °C 3,2 km/h (1 Bft)
20.10.2019 16:25 17,1 °C 62 % 1008,3 hPa 0,0 mm 1,3 km/h (1 Bft) N 5 ° 0 min 0,000 mm 0,0 UV-I 62 W/m² 9,8 °C 17,1 °C 3,2 km/h (1 Bft)
20.10.2019 16:26 17,2 °C 63 % 1008,4 hPa 0,0 mm 3,2 km/h (1 Bft) O 98 ° 0 min 0,000 mm 0,0 UV-I 62 W/m² 10,1 °C 17,2 °C 6,4 km/h (2 Bft)
20.10.2019 16:27 17,2 °C 66 % 1008,4 hPa 0,0 mm 7,6 km/h (2 Bft) O 86 ° 0 min 0,000 mm 0,0 UV-I 58 W/m² 10,8 °C 17,2 °C 12,9 km/h (3 Bft)
20.10.2019 16:28 17,1 °C 64 % 1008,4 hPa 0,0 mm 5,1 km/h (1 Bft) O-NO 69 ° 0 min 0,000 mm 0,0 UV-I 58 W/m² 10,2 °C 17,1 °C 9,7 km/h (2 Bft)
20.10.2019 16:29 17,1 °C 63 % 1008,3 hPa 0,0 mm 4,9 km/h (1 Bft) O 94 ° 0 min 0,000 mm 0,0 UV-I 56 W/m² 10,0 °C 17,1 °C 6,4 km/h (2 Bft)
20.10.2019 16:30 17,1 °C 65 % 1008,4 hPa 0,0 mm 3,1 km/h (1 Bft) O 90 ° 0 min 0,000 mm 0,0 UV-I 56 W/m² 10,5 °C 17,1 °C 3,2 km/h (1 Bft)
20.10.2019 16:31 17,1 °C 63 % 1008,5 hPa 0,0 mm 4,2 km/h (1 Bft) O-NO 57 ° 0 min 0,000 mm 0,0 UV-I 54 W/m² 10,0 °C 17,1 °C 8,0 km/h (2 Bft)
20.10.2019 16:32 17,1 °C 62 % 1008,4 hPa 0,0 mm 4,4 km/h (1 Bft) O-NO 60 ° 0 min 0,000 mm 0,0 UV-I 54 W/m² 9,8 °C 17,1 °C 6,4 km/h (2 Bft)
20.10.2019 16:33 17,2 °C 62 % 1008,5 hPa 0,0 mm 7,2 km/h (2 Bft) O 101 ° 0 min 0,000 mm 0,0 UV-I 53 W/m² 9,9 °C 17,2 °C 11,3 km/h (2 Bft)
20.10.2019 16:34 17,2 °C 62 % 1008,4 hPa 0,0 mm 5,1 km/h (1 Bft) O-NO 76 ° 0 min 0,000 mm 0,0 UV-I 53 W/m² 9,9 °C 17,2 °C 8,0 km/h (2 Bft)
20.10.2019 16:35 17,2 °C 64 % 1008,5 hPa 0,0 mm 4,6 km/h (1 Bft) SO 136 ° 0 min 0,000 mm 0,0 UV-I 53 W/m² 10,3 °C 17,2 °C 11,3 km/h (2 Bft)
20.10.2019 16:36 17,2 °C 64 % 1008,4 hPa 0,0 mm 0,0 km/h (0 Bft) SO 136 ° 0 min 0,000 mm 0,0 UV-I 53 W/m² 10,3 °C 17,2 °C 0,0 km/h (0 Bft)
20.10.2019 16:37 17,1 °C 65 % 1008,4 hPa 0,0 mm 0,3 km/h (0 Bft) SO 135 ° 0 min 0,000 mm 0,0 UV-I 53 W/m² 10,5 °C 17,1 °C 1,6 km/h (1 Bft)
20.10.2019 16:38 17,0 °C 63 % 1008,4 hPa 0,0 mm 2,2 km/h (1 Bft) O-NO 71 ° 0 min 0,000 mm 0,0 UV-I 53 W/m² 9,9 °C 17,0 °C 3,2 km/h (1 Bft)
20.10.2019 16:39 17,0 °C 65 % 1008,5 hPa 0,0 mm 3,1 km/h (1 Bft) O-NO 70 ° 0 min 0,000 mm 0,0 UV-I 53 W/m² 10,4 °C 17,0 °C 4,8 km/h (1 Bft)
20.10.2019 16:40 16,9 °C 63 % 1008,5 hPa 0,0 mm 2,2 km/h (1 Bft) O-NO 70 ° 0 min 0,000 mm 0,0 UV-I 53 W/m² 9,8 °C 16,9 °C 3,2 km/h (1 Bft)
20.10.2019 16:41 16,9 °C 62 % 1008,5 hPa 0,0 mm 2,5 km/h (1 Bft) O-NO 70 ° 0 min 0,000 mm 0,0 UV-I 53 W/m² 9,6 °C 16,9 °C 4,8 km/h (1 Bft)
20.10.2019 16:42 17,0 °C 62 % 1008,5 hPa 0,0 mm 2,0 km/h (1 Bft) O-NO 70 ° 0 min 0,000 mm 0,0 UV-I 53 W/m² 9,7 °C 17,0 °C 3,2 km/h (1 Bft)
20.10.2019 16:43 17,0 °C 64 % 1008,5 hPa 0,0 mm 2,1 km/h (1 Bft) O-NO 70 ° 0 min 0,000 mm 0,0 UV-I 53 W/m² 10,1 °C 17,0 °C 3,2 km/h (1 Bft)
20.10.2019 16:44 17,0 °C 63 % 1008,5 hPa 0,0 mm 3,3 km/h (1 Bft) O-NO 74 ° 0 min 0,000 mm 0,0 UV-I 53 W/m² 9,9 °C 17,0 °C 6,4 km/h (2 Bft)
20.10.2019 16:45 17,0 °C 63 % 1008,4 hPa 0,0 mm 3,9 km/h (1 Bft) O-NO 67 ° 0 min 0,000 mm 0,0 UV-I 53 W/m² 9,9 °C 17,0 °C 4,8 km/h (1 Bft)
20.10.2019 16:46 17,1 °C 62 % 1008,4 hPa 0,0 mm 5,6 km/h (1 Bft) O-NO 58 ° 0 min 0,000 mm 0,0 UV-I 53 W/m² 9,8 °C 17,1 °C 8,0 km/h (2 Bft)
20.10.2019 16:47 17,1 °C 62 % 1008,4 hPa 0,0 mm 7,0 km/h (2 Bft) O-NO 60 ° 0 min 0,000 mm 0,0 UV-I 51 W/m² 9,8 °C 17,1 °C 9,7 km/h (2 Bft)
20.10.2019 16:48 17,1 °C 64 % 1008,4 hPa 0,0 mm 5,7 km/h (1 Bft) O-NO 71 ° 0 min 0,000 mm 0,0 UV-I 51 W/m² 10,2 °C 17,1 °C 9,7 km/h (2 Bft)
20.10.2019 16:49 17,1 °C 64 % 1008,4 hPa 0,0 mm 3,3 km/h (1 Bft) O 92 ° 0 min 0,000 mm 0,0 UV-I 49 W/m² 10,2 °C 17,1 °C 4,8 km/h (1 Bft)
20.10.2019 16:50 17,0 °C 62 % 1008,4 hPa 0,0 mm 1,5 km/h (1 Bft) O 92 ° 0 min 0,000 mm 0,0 UV-I 49 W/m² 9,7 °C 17,0 °C 3,2 km/h (1 Bft)
20.10.2019 16:51 17,1 °C 62 % 1008,5 hPa 0,0 mm 1,6 km/h (1 Bft) O 92 ° 0 min 0,000 mm 0,0 UV-I 47 W/m² 9,8 °C 17,1 °C 3,2 km/h (1 Bft)
20.10.2019 16:52 17,1 °C 63 % 1008,5 hPa 0,0 mm 0,0 km/h (0 Bft) O 92 ° 0 min 0,000 mm 0,0 UV-I 46 W/m² 10,0 °C 17,1 °C 0,0 km/h (0 Bft)
20.10.2019 16:53 17,1 °C 63 % 1008,5 hPa 0,0 mm 1,5 km/h (1 Bft) SO 142 ° 0 min 0,000 mm 0,0 UV-I 44 W/m² 10,0 °C 17,1 °C 4,8 km/h (1 Bft)
20.10.2019 16:54 17,1 °C 62 % 1008,6 hPa 0,0 mm 1,8 km/h (1 Bft) SO 142 ° 0 min 0,000 mm 0,0 UV-I 44 W/m² 9,8 °C 17,1 °C 6,4 km/h (2 Bft)
20.10.2019 16:55 17,0 °C 64 % 1008,5 hPa 0,0 mm 0,0 km/h (0 Bft) SO 142 ° 0 min 0,000 mm 0,0 UV-I 42 W/m² 10,1 °C 17,0 °C 0,0 km/h (0 Bft)
20.10.2019 16:56 16,9 °C 64 % 1008,5 hPa 0,0 mm 1,6 km/h (1 Bft) O-NO 72 ° 0 min 0,000 mm 0,0 UV-I 42 W/m² 10,0 °C 16,9 °C 4,8 km/h (1 Bft)
20.10.2019 16:57 16,9 °C 63 % 1008,4 hPa 0,0 mm 3,4 km/h (1 Bft) O-NO 61 ° 0 min 0,000 mm 0,0 UV-I 42 W/m² 9,8 °C 16,9 °C 4,8 km/h (1 Bft)
20.10.2019 16:58 16,9 °C 61 % 1008,4 hPa 0,0 mm 0,9 km/h (0 Bft) O-NO 61 ° 0 min 0,000 mm 0,0 UV-I 42 W/m² 9,3 °C 16,9 °C 3,2 km/h (1 Bft)
20.10.2019 16:59 17,0 °C 63 % 1008,4 hPa 0,0 mm 0,0 km/h (0 Bft) O-NO 61 ° 0 min 0,000 mm 0,0 UV-I 40 W/m² 9,9 °C 17,0 °C 0,0 km/h (0 Bft)
20.10.2019 17:00 16,9 °C 63 % 1008,5 hPa 0,0 mm 1,1 km/h (1 Bft) O-NO 61 ° 0 min 0,000 mm 0,0 UV-I 40 W/m² 9,8 °C 16,9 °C 3,2 km/h (1 Bft)
20.10.2019 17:01 16,9 °C 62 % 1008,4 hPa 0,0 mm 0,1 km/h (0 Bft) O-NO 61 ° 0 min 0,051 mm 0,0 UV-I 40 W/m² 9,6 °C 16,9 °C 1,6 km/h (1 Bft)
20.10.2019 17:02 16,9 °C 63 % 1008,4 hPa 0,0 mm 0,0 km/h (0 Bft) O-NO 61 ° 0 min 0,000 mm 0,0 UV-I 40 W/m² 9,8 °C 16,9 °C 0,0 km/h (0 Bft)
20.10.2019 17:03 16,9 °C 63 % 1008,3 hPa 0,0 mm 0,0 km/h (0 Bft) O-NO 61 ° 0 min 0,000 mm 0,0 UV-I 39 W/m² 9,8 °C 16,9 °C 0,0 km/h (0 Bft)
20.10.2019 17:04 16,9 °C 63 % 1008,4 hPa 0,0 mm 0,0 km/h (0 Bft) O-NO 61 ° 0 min 0,000 mm 0,0 UV-I 39 W/m² 9,8 °C 16,9 °C 0,0 km/h (0 Bft)
20.10.2019 17:05 16,8 °C 64 % 1008,4 hPa 0,0 mm 2,3 km/h (1 Bft) W-SW 247 ° 0 min 0,000 mm 0,0 UV-I 37 W/m² 10,0 °C 16,8 °C 4,8 km/h (1 Bft)
20.10.2019 17:06 16,8 °C 62 % 1008,4 hPa 0,0 mm 2,2 km/h (1 Bft) W-SW 247 ° 0 min 0,000 mm 0,0 UV-I 37 W/m² 9,5 °C 16,8 °C 3,2 km/h (1 Bft)
20.10.2019 17:07 16,7 °C 65 % 1008,4 hPa 0,0 mm 1,7 km/h (1 Bft) W-SW 247 ° 0 min 0,000 mm 0,0 UV-I 37 W/m² 10,1 °C 16,7 °C 3,2 km/h (1 Bft)
20.10.2019 17:08 16,6 °C 65 % 1008,4 hPa 0,0 mm 5,3 km/h (1 Bft) O-SO 110 ° 0 min 0,000 mm 0,0 UV-I 35 W/m² 10,0 °C 16,6 °C 11,3 km/h (2 Bft)
20.10.2019 17:09 16,5 °C 65 % 1008,5 hPa 0,0 mm 4,8 km/h (1 Bft) SO 132 ° 0 min 0,000 mm 0,0 UV-I 35 W/m² 9,9 °C 16,5 °C 9,7 km/h (2 Bft)
20.10.2019 17:10 16,4 °C 64 % 1008,4 hPa 0,0 mm 1,9 km/h (1 Bft) O 92 ° 0 min 0,000 mm 0,0 UV-I 35 W/m² 9,6 °C 16,4 °C 4,8 km/h (1 Bft)
20.10.2019 17:11 16,4 °C 66 % 1008,4 hPa 0,0 mm 2,5 km/h (1 Bft) SW 236 ° 0 min 0,000 mm 0,0 UV-I 35 W/m² 10,0 °C 16,4 °C 6,4 km/h (2 Bft)
20.10.2019 17:12 16,4 °C 64 % 1008,5 hPa 0,0 mm 4,1 km/h (1 Bft) NO 42 ° 0 min 0,000 mm 0,0 UV-I 35 W/m² 9,6 °C 16,4 °C 8,0 km/h (2 Bft)
20.10.2019 17:13 16,6 °C 63 % 1008,5 hPa 0,0 mm 2,9 km/h (1 Bft) NO 55 ° 0 min 0,000 mm 0,0 UV-I 35 W/m² 9,5 °C 16,6 °C 3,2 km/h (1 Bft)
20.10.2019 17:14 16,6 °C 63 % 1008,4 hPa 0,0 mm 4,4 km/h (1 Bft) O-NO 64 ° 0 min 0,000 mm 0,0 UV-I 33 W/m² 9,5 °C 16,6 °C 6,4 km/h (2 Bft)
20.10.2019 17:15 16,6 °C 63 % 1008,5 hPa 0,0 mm 4,0 km/h (1 Bft) O-NO 63 ° 0 min 0,000 mm 0,0 UV-I 33 W/m² 9,5 °C 16,6 °C 8,0 km/h (2 Bft)
20.10.2019 17:16 16,6 °C 64 % 1008,5 hPa 0,0 mm 1,2 km/h (1 Bft) O-NO 63 ° 0 min 0,000 mm 0,0 UV-I 32 W/m² 9,8 °C 16,6 °C 3,2 km/h (1 Bft)
20.10.2019 17:17 16,5 °C 63 % 1008,4 hPa 0,0 mm 0,0 km/h (0 Bft) O-NO 63 ° 0 min 0,000 mm 0,0 UV-I 32 W/m² 9,4 °C 16,5 °C 0,0 km/h (0 Bft)
20.10.2019 17:18 16,6 °C 63 % 1008,4 hPa 0,0 mm 0,0 km/h (0 Bft) O-NO 63 ° 0 min 0,000 mm 0,0 UV-I 32 W/m² 9,5 °C 16,6 °C 0,0 km/h (0 Bft)
20.10.2019 17:19 16,6 °C 62 % 1008,4 hPa 0,0 mm 2,1 km/h (1 Bft) N-NO 13 ° 0 min 0,000 mm 0,0 UV-I 30 W/m² 9,3 °C 16,6 °C 6,4 km/h (2 Bft)
20.10.2019 17:20 16,6 °C 63 % 1008,4 hPa 0,0 mm 3,1 km/h (1 Bft) N 10 ° 0 min 0,000 mm 0,0 UV-I 30 W/m² 9,5 °C 16,6 °C 6,4 km/h (2 Bft)
20.10.2019 17:21 16,5 °C 63 % 1008,3 hPa 0,0 mm 0,0 km/h (0 Bft) N 10 ° 0 min 0,000 mm 0,0 UV-I 28 W/m² 9,4 °C 16,5 °C 0,0 km/h (0 Bft)
20.10.2019 17:22 16,4 °C 64 % 1008,3 hPa 0,0 mm 0,1 km/h (0 Bft) N-NO 14 ° 0 min 0,000 mm 0,0 UV-I 28 W/m² 9,6 °C 16,4 °C 1,6 km/h (1 Bft)
20.10.2019 17:23 16,5 °C 63 % 1008,3 hPa 0,0 mm 0,0 km/h (0 Bft) N-NO 14 ° 0 min 0,000 mm 0,0 UV-I 28 W/m² 9,4 °C 16,5 °C 0,0 km/h (0 Bft)
20.10.2019 17:24 16,4 °C 64 % 1008,3 hPa 0,0 mm 0,1 km/h (0 Bft) N-NO 14 ° 0 min 0,000 mm 0,0 UV-I 26 W/m² 9,6 °C 16,4 °C 1,6 km/h (1 Bft)
20.10.2019 17:25 16,4 °C 64 % 1008,3 hPa 0,0 mm 0,0 km/h (0 Bft) N-NO 14 ° 0 min 0,000 mm 0,0 UV-I 26 W/m² 9,6 °C 16,4 °C 0,0 km/h (0 Bft)
20.10.2019 17:26 16,3 °C 66 % 1008,2 hPa 0,0 mm 1,8 km/h (1 Bft) N-NO 28 ° 0 min 0,000 mm 0,0 UV-I 26 W/m² 9,9 °C 16,3 °C 3,2 km/h (1 Bft)
20.10.2019 17:27 16,3 °C 66 % 1008,2 hPa 0,0 mm 2,9 km/h (1 Bft) O-SO 113 ° 0 min 0,000 mm 0,0 UV-I 26 W/m² 9,9 °C 16,3 °C 6,4 km/h (2 Bft)
20.10.2019 17:28 16,3 °C 65 % 1008,2 hPa 0,0 mm 2,8 km/h (1 Bft) O 88 ° 0 min 0,000 mm 0,0 UV-I 25 W/m² 9,7 °C 16,3 °C 4,8 km/h (1 Bft)
20.10.2019 17:29 16,3 °C 65 % 1008,3 hPa 0,0 mm 4,8 km/h (1 Bft) SO 124 ° 0 min 0,000 mm 0,0 UV-I 25 W/m² 9,7 °C 16,3 °C 8,0 km/h (2 Bft)
20.10.2019 17:30 16,2 °C 64 % 1008,2 hPa 0,0 mm 0,5 km/h (0 Bft) O-SO 123 ° 0 min 0,000 mm 0,0 UV-I 23 W/m² 9,4 °C 16,2 °C 1,6 km/h (1 Bft)
20.10.2019 17:31 16,2 °C 64 % 1008,2 hPa 0,0 mm 0,0 km/h (0 Bft) O-SO 123 ° 0 min 0,000 mm 0,0 UV-I 23 W/m² 9,4 °C 16,2 °C 0,0 km/h (0 Bft)
20.10.2019 17:32 16,3 °C 63 % 1008,2 hPa 0,0 mm 0,0 km/h (0 Bft) O-SO 123 ° 0 min 0,000 mm 0,0 UV-I 23 W/m² 9,2 °C 16,3 °C 0,0 km/h (0 Bft)
20.10.2019 17:33 16,3 °C 63 % 1008,1 hPa 0,0 mm 0,0 km/h (0 Bft) O-SO 123 ° 0 min 0,000 mm 0,0 UV-I 21 W/m² 9,2 °C 16,3 °C 0,0 km/h (0 Bft)
20.10.2019 17:34 16,3 °C 64 % 1008,1 hPa 0,0 mm 0,0 km/h (0 Bft) O-SO 123 ° 0 min 0,000 mm 0,0 UV-I 21 W/m² 9,5 °C 16,3 °C 0,0 km/h (0 Bft)
20.10.2019 17:35 16,3 °C 63 % 1008,1 hPa 0,0 mm 0,0 km/h (0 Bft) O-SO 123 ° 0 min 0,000 mm 0,0 UV-I 19 W/m² 9,2 °C 16,3 °C 0,0 km/h (0 Bft)
20.10.2019 17:36 16,3 °C 64 % 1008,1 hPa 0,0 mm 0,7 km/h (0 Bft) NW 324 ° 0 min 0,000 mm 0,0 UV-I 19 W/m² 9,5 °C 16,3 °C 4,8 km/h (1 Bft)
20.10.2019 17:37 16,3 °C 64 % 1008,1 hPa 0,0 mm 3,0 km/h (1 Bft) O 86 ° 0 min 0,000 mm 0,0 UV-I 19 W/m² 9,5 °C 16,3 °C 4,8 km/h (1 Bft)
20.10.2019 17:38 16,3 °C 63 % 1008,0 hPa 0,0 mm 4,5 km/h (1 Bft) NO 54 ° 0 min 0,000 mm 0,0 UV-I 19 W/m² 9,2 °C 16,3 °C 8,0 km/h (2 Bft)
20.10.2019 17:39 16,3 °C 64 % 1008,1 hPa 0,0 mm 5,8 km/h (2 Bft) O 94 ° 0 min 0,000 mm 0,0 UV-I 18 W/m² 9,5 °C 16,3 °C 11,3 km/h (2 Bft)
20.10.2019 17:40 16,3 °C 63 % 1008,1 hPa 0,0 mm 1,4 km/h (1 Bft) O-NO 61 ° 0 min 0,000 mm 0,0 UV-I 18 W/m² 9,2 °C 16,3 °C 3,2 km/h (1 Bft)
20.10.2019 17:41 16,4 °C 62 % 1008,1 hPa 0,0 mm 1,3 km/h (1 Bft) O-SO 117 ° 0 min 0,000 mm 0,0 UV-I 16 W/m² 9,1 °C 16,4 °C 3,2 km/h (1 Bft)
20.10.2019 17:42 16,4 °C 63 % 1008,2 hPa 0,0 mm 2,5 km/h (1 Bft) O 86 ° 0 min 0,000 mm 0,0 UV-I 16 W/m² 9,3 °C 16,4 °C 4,8 km/h (1 Bft)
20.10.2019 17:43 16,4 °C 63 % 1008,1 hPa 0,0 mm 2,6 km/h (1 Bft) O-NO 77 ° 0 min 0,000 mm 0,0 UV-I 16 W/m² 9,3 °C 16,4 °C 4,8 km/h (1 Bft)
20.10.2019 17:44 16,3 °C 63 % 1008,1 hPa 0,0 mm 2,0 km/h (1 Bft) O-NO 77 ° 0 min 0,000 mm 0,0 UV-I 14 W/m² 9,2 °C 16,3 °C 3,2 km/h (1 Bft)
20.10.2019 17:45 16,3 °C 63 % 1008,0 hPa 0,0 mm 0,0 km/h (0 Bft) O-NO 77 ° 0 min 0,000 mm 0,0 UV-I 14 W/m² 9,2 °C 16,3 °C 0,0 km/h (0 Bft)
20.10.2019 17:46 16,3 °C 63 % 1008,1 hPa 0,0 mm 0,0 km/h (0 Bft) O-NO 77 ° 0 min 0,000 mm 0,0 UV-I 14 W/m² 9,2 °C 16,3 °C 0,0 km/h (0 Bft)
20.10.2019 17:47 16,3 °C 63 % 1008,1 hPa 0,0 mm 0,0 km/h (0 Bft) O-NO 77 ° 0 min 0,000 mm 0,0 UV-I 12 W/m² 9,2 °C 16,3 °C 0,0 km/h (0 Bft)
20.10.2019 17:48 16,3 °C 62 % 1008,0 hPa 0,0 mm 0,0 km/h (0 Bft) O-NO 77 ° 0 min 0,000 mm 0,0 UV-I 12 W/m² 9,0 °C 16,3 °C 0,0 km/h (0 Bft)
20.10.2019 17:49 16,3 °C 63 % 1008,1 hPa 0,0 mm 4,4 km/h (1 Bft) O 82 ° 0 min 0,000 mm 0,0 UV-I 12 W/m² 9,2 °C 16,3 °C 11,3 km/h (2 Bft)
20.10.2019 17:50 16,3 °C 62 % 1008,0 hPa 0,0 mm 4,0 km/h (1 Bft) O-SO 104 ° 0 min 0,000 mm 0,0 UV-I 11 W/m² 9,0 °C 16,3 °C 6,4 km/h (2 Bft)
20.10.2019 17:51 16,3 °C 62 % 1008,1 hPa 0,0 mm 4,4 km/h (1 Bft) O-SO 113 ° 0 min 0,000 mm 0,0 UV-I 11 W/m² 9,0 °C 16,3 °C 4,8 km/h (1 Bft)
20.10.2019 17:52 16,3 °C 63 % 1008,1 hPa 0,0 mm 3,0 km/h (1 Bft) O-NO 78 ° 0 min 0,000 mm 0,0 UV-I 9 W/m² 9,2 °C 16,3 °C 4,8 km/h (1 Bft)
20.10.2019 17:53 16,3 °C 62 % 1008,1 hPa 0,0 mm 3,9 km/h (1 Bft) O 98 ° 0 min 0,000 mm 0,0 UV-I 9 W/m² 9,0 °C 16,3 °C 6,4 km/h (2 Bft)
20.10.2019 17:54 16,3 °C 63 % 1008,1 hPa 0,0 mm 3,9 km/h (1 Bft) O 98 ° 0 min 0,000 mm 0,0 UV-I 9 W/m² 9,2 °C 16,3 °C 6,4 km/h (2 Bft)
20.10.2019 17:55 16,3 °C 63 % 1008,1 hPa 0,0 mm 4,0 km/h (1 Bft) O 94 ° 0 min 0,000 mm 0,0 UV-I 9 W/m² 9,2 °C 16,3 °C 6,4 km/h (2 Bft)
20.10.2019 17:56 16,3 °C 62 % 1008,2 hPa 0,0 mm 1,9 km/h (1 Bft) O 94 ° 0 min 0,000 mm 0,0 UV-I 9 W/m² 9,0 °C 16,3 °C 4,8 km/h (1 Bft)
20.10.2019 17:57 16,3 °C 62 % 1008,2 hPa 0,0 mm 0,1 km/h (0 Bft) O 94 ° 0 min 0,000 mm 0,0 UV-I 7 W/m² 9,0 °C 16,3 °C 1,6 km/h (1 Bft)
20.10.2019 17:58 16,3 °C 63 % 1008,2 hPa 0,0 mm 1,9 km/h (1 Bft) O 94 ° 0 min 0,000 mm 0,0 UV-I 7 W/m² 9,2 °C 16,3 °C 3,2 km/h (1 Bft)
20.10.2019 17:59 16,3 °C 63 % 1008,2 hPa 0,0 mm 3,2 km/h (1 Bft) O 94 ° 0 min 0,000 mm 0,0 UV-I 7 W/m² 9,2 °C 16,3 °C 9,7 km/h (2 Bft)
20.10.2019 18:00 16,2 °C 63 % 1008,1 hPa 0,0 mm 6,7 km/h (2 Bft) O 89 ° 0 min 0,000 mm 0,0 UV-I 7 W/m² 9,1 °C 16,2 °C 11,3 km/h (2 Bft)
20.10.2019 18:01 16,1 °C 64 % 1008,2 hPa 0,0 mm 2,3 km/h (1 Bft) O 82 ° 0 min 0,025 mm 0,0 UV-I 7 W/m² 9,3 °C 16,1 °C 8,0 km/h (2 Bft)
20.10.2019 18:02 16,0 °C 64 % 1008,2 hPa 0,0 mm 0,0 km/h (0 Bft) O 82 ° 0 min 0,000 mm 0,0 UV-I 5 W/m² 9,2 °C 16,0 °C 0,0 km/h (0 Bft)
20.10.2019 18:03 15,9 °C 64 % 1008,3 hPa 0,0 mm 0,0 km/h (0 Bft) O 82 ° 0 min 0,000 mm 0,0 UV-I 5 W/m² 9,1 °C 15,9 °C 0,0 km/h (0 Bft)
20.10.2019 18:04 15,9 °C 63 % 1008,3 hPa 0,0 mm 0,0 km/h (0 Bft) O 82 ° 0 min 0,000 mm 0,0 UV-I 5 W/m² 8,9 °C 15,9 °C 0,0 km/h (0 Bft)
20.10.2019 18:05 16,0 °C 63 % 1008,3 hPa 0,0 mm 0,1 km/h (0 Bft) O 82 ° 0 min 0,000 mm 0,0 UV-I 5 W/m² 9,0 °C 16,0 °C 1,6 km/h (1 Bft)
20.10.2019 18:06 16,0 °C 63 % 1008,2 hPa 0,0 mm 2,8 km/h (1 Bft) O 82 ° 0 min 0,000 mm 0,0 UV-I 5 W/m² 9,0 °C 16,0 °C 4,8 km/h (1 Bft)
20.10.2019 18:07 16,1 °C 63 % 1008,3 hPa 0,0 mm 1,3 km/h (1 Bft) O 82 ° 0 min 0,000 mm 0,0 UV-I 5 W/m² 9,1 °C 16,1 °C 3,2 km/h (1 Bft)
20.10.2019 18:08 16,1 °C 64 % 1008,3 hPa 0,0 mm 3,3 km/h (1 Bft) O-SO 103 ° 0 min 0,000 mm 0,0 UV-I 0 W/m² 9,3 °C 16,1 °C 4,8 km/h (1 Bft)
20.10.2019 18:09 16,1 °C 63 % 1008,3 hPa 0,0 mm 2,7 km/h (1 Bft) O-SO 119 ° 0 min 0,000 mm 0,0 UV-I 0 W/m² 9,1 °C 16,1 °C 11,3 km/h (2 Bft)
20.10.2019 18:10 16,1 °C 62 % 1008,3 hPa 0,0 mm 5,2 km/h (1 Bft) O 100 ° 0 min 0,000 mm 0,0 UV-I 0 W/m² 8,8 °C 16,1 °C 9,7 km/h (2 Bft)
20.10.2019 18:11 16,2 °C 63 % 1008,3 hPa 0,0 mm 1,1 km/h (1 Bft) O 100 ° 0 min 0,000 mm 0,0 UV-I 0 W/m² 9,1 °C 16,2 °C 3,2 km/h (1 Bft)
20.10.2019 18:12 16,2 °C 62 % 1008,3 hPa 0,0 mm 0,9 km/h (0 Bft) O 96 ° 0 min 0,000 mm 0,0 UV-I 0 W/m² 8,9 °C 16,2 °C 1,6 km/h (1 Bft)
20.10.2019 18:13 16,2 °C 62 % 1008,3 hPa 0,0 mm 2,9 km/h (1 Bft) O-SO 103 ° 0 min 0,000 mm 0,0 UV-I 0 W/m² 8,9 °C 16,2 °C 9,7 km/h (2 Bft)
20.10.2019 18:14 16,1 °C 63 % 1008,3 hPa 0,0 mm 0,7 km/h (0 Bft) O-SO 103 ° 0 min 0,000 mm 0,0 UV-I 0 W/m² 9,1 °C 16,1 °C 3,2 km/h (1 Bft)
20.10.2019 18:15 16,1 °C 62 % 1008,3 hPa 0,0 mm 1,9 km/h (1 Bft) O-SO 103 ° 0 min 0,000 mm 0,0 UV-I 0 W/m² 8,8 °C 16,1 °C 3,2 km/h (1 Bft)
20.10.2019 18:16 16,1 °C 62 % 1008,3 hPa 0,0 mm 1,3 km/h (1 Bft) O-SO 103 ° 0 min 0,000 mm 0,0 UV-I 0 W/m² 8,8 °C 16,1 °C 4,8 km/h (1 Bft)
20.10.2019 18:17 16,1 °C 62 % 1008,3 hPa 0,0 mm 1,5 km/h (1 Bft) O-SO 103 ° 0 min 0,000 mm 0,0 UV-I 0 W/m² 8,8 °C 16,1 °C 4,8 km/h (1 Bft)
20.10.2019 18:18 16,1 °C 63 % 1008,3 hPa 0,0 mm 0,6 km/h (0 Bft) O-SO 103 ° 0 min 0,000 mm 0,0 UV-I 0 W/m² 9,1 °C 16,1 °C 1,6 km/h (1 Bft)
20.10.2019 18:19 16,1 °C 62 % 1008,3 hPa 0,0 mm 1,7 km/h (1 Bft) O-SO 103 ° 0 min 0,000 mm 0,0 UV-I 0 W/m² 8,8 °C 16,1 °C 4,8 km/h (1 Bft)
20.10.2019 18:20 16,2 °C 62 % 1008,2 hPa 0,0 mm 0,2 km/h (0 Bft) O 88 ° 0 min 0,000 mm 0,0 UV-I 0 W/m² 8,9 °C 16,2 °C 3,2 km/h (1 Bft)
20.10.2019 18:21 16,1 °C 64 % 1008,2 hPa 0,0 mm 3,0 km/h (1 Bft) O 90 ° 0 min 0,000 mm 0,0 UV-I 0 W/m² 9,3 °C 16,1 °C 4,8 km/h (1 Bft)
20.10.2019 18:22 15,9 °C 63 % 1008,3 hPa 0,0 mm 0,8 km/h (0 Bft) SO 146 ° 0 min 0,000 mm 0,0 UV-I 0 W/m² 8,9 °C 15,9 °C 4,8 km/h (1 Bft)
20.10.2019 18:23 16,0 °C 63 % 1008,4 hPa 0,0 mm 2,4 km/h (1 Bft) SO 144 ° 0 min 0,000 mm 0,0 UV-I 0 W/m² 9,0 °C 16,0 °C 4,8 km/h (1 Bft)
20.10.2019 18:24 15,9 °C 62 % 1008,4 hPa 0,0 mm 0,0 km/h (0 Bft) SO 144 ° 0 min 0,000 mm 0,0 UV-I 0 W/m² 8,6 °C 15,9 °C 0,0 km/h (0 Bft)
20.10.2019 18:25 15,9 °C 62 % 1008,4 hPa 0,0 mm 1,7 km/h (1 Bft) SO 144 ° 0 min 0,000 mm 0,0 UV-I 0 W/m² 8,6 °C 15,9 °C 4,8 km/h (1 Bft)
20.10.2019 18:26 15,9 °C 64 % 1008,4 hPa 0,0 mm 2,5 km/h (1 Bft) SO 144 ° 0 min 0,000 mm 0,0 UV-I 0 W/m² 9,1 °C 15,9 °C 3,2 km/h (1 Bft)
20.10.2019 18:27 15,8 °C 64 % 1008,4 hPa 0,0 mm 0,3 km/h (0 Bft) SO 144 ° 0 min 0,000 mm 0,0 UV-I 0 W/m² 9,0 °C 15,8 °C 1,6 km/h (1 Bft)
20.10.2019 18:28 15,7 °C 63 % 1008,5 hPa 0,0 mm 0,0 km/h (0 Bft) SO 144 ° 0 min 0,000 mm 0,0 UV-I 0 W/m² 8,7 °C 15,7 °C 0,0 km/h (0 Bft)
20.10.2019 18:29 15,6 °C 65 % 1008,5 hPa 0,0 mm 1,6 km/h (1 Bft) SO 144 ° 0 min 0,000 mm 0,0 UV-I 0 W/m² 9,0 °C 15,6 °C 3,2 km/h (1 Bft)
20.10.2019 18:30 15,6 °C 64 % 1008,4 hPa 0,0 mm 0,2 km/h (0 Bft) SO 144 ° 0 min 0,000 mm 0,0 UV-I 0 W/m² 8,8 °C 15,6 °C 1,6 km/h (1 Bft)
20.10.2019 18:31 15,7 °C 64 % 1008,5 hPa 0,0 mm 0,0 km/h (0 Bft) SO 144 ° 0 min 0,000 mm 0,0 UV-I 0 W/m² 8,9 °C 15,7 °C 0,0 km/h (0 Bft)
20.10.2019 18:32 15,6 °C 64 % 1008,6 hPa 0,0 mm 0,0 km/h (0 Bft) SO 144 ° 0 min 0,000 mm 0,0 UV-I 0 W/m² 8,8 °C 15,6 °C 0,0 km/h (0 Bft)
20.10.2019 18:33 15,6 °C 64 % 1008,5 hPa 0,0 mm 0,0 km/h (0 Bft) SO 144 ° 0 min 0,000 mm 0,0 UV-I 0 W/m² 8,8 °C 15,6 °C 0,0 km/h (0 Bft)
20.10.2019 18:34 15,7 °C 63 % 1008,6 hPa 0,0 mm 0,0 km/h (0 Bft) SO 143 ° 0 min 0,000 mm 0,0 UV-I 0 W/m² 8,7 °C 15,7 °C 0,0 km/h (0 Bft)
20.10.2019 18:35 15,7 °C 64 % 1008,6 hPa 0,0 mm 0,0 km/h (0 Bft) SO 143 ° 0 min 0,000 mm 0,0 UV-I 0 W/m² 8,9 °C 15,7 °C 0,0 km/h (0 Bft)
20.10.2019 18:36 15,8 °C 63 % 1008,6 hPa 0,0 mm 0,0 km/h (0 Bft) SO 143 ° 0 min 0,000 mm 0,0 UV-I 0 W/m² 8,8 °C 15,8 °C 0,0 km/h (0 Bft)
20.10.2019 18:37 15,9 °C 62 % 1008,5 hPa 0,0 mm 0,0 km/h (0 Bft) SO 143 ° 0 min 0,000 mm 0,0 UV-I 0 W/m² 8,6 °C 15,9 °C 0,0 km/h (0 Bft)
20.10.2019 18:38 15,9 °C 62 % 1008,5 hPa 0,0 mm 0,0 km/h (0 Bft) SO 143 ° 0 min 0,000 mm 0,0 UV-I 0 W/m² 8,6 °C 15,9 °C 0,0 km/h (0 Bft)
20.10.2019 18:39 16,0 °C 62 % 1008,4 hPa 0,0 mm 0,0 km/h (0 Bft) SO 143 ° 0 min 0,000 mm 0,0 UV-I 0 W/m² 8,7 °C 16,0 °C 0,0 km/h (0 Bft)
20.10.2019 18:40 15,9 °C 63 % 1008,4 hPa 0,0 mm 0,0 km/h (0 Bft) SO 143 ° 0 min 0,000 mm 0,0 UV-I 0 W/m² 8,9 °C 15,9 °C 0,0 km/h (0 Bft)
20.10.2019 18:41 15,8 °C 64 % 1008,4 hPa 0,0 mm 2,3 km/h (1 Bft) O 89 ° 0 min 0,000 mm 0,0 UV-I 0 W/m² 9,0 °C 15,8 °C 8,0 km/h (2 Bft)
20.10.2019 18:42 15,6 °C 65 % 1008,3 hPa 0,0 mm 3,3 km/h (1 Bft) O-NO 57 ° 0 min 0,000 mm 0,0 UV-I 0 W/m² 9,0 °C 15,6 °C 4,8 km/h (1 Bft)
20.10.2019 18:43 15,4 °C 65 % 1008,3 hPa 0,0 mm 4,9 km/h (1 Bft) O-SO 105 ° 0 min 0,000 mm 0,0 UV-I 0 W/m² 8,9 °C 15,4 °C 9,7 km/h (2 Bft)
20.10.2019 18:44 15,4 °C 64 % 1008,4 hPa 0,0 mm 3,3 km/h (1 Bft) O-SO 105 ° 0 min 0,000 mm 0,0 UV-I 0 W/m² 8,6 °C 15,4 °C 4,8 km/h (1 Bft)
20.10.2019 18:45 15,4 °C 65 % 1008,4 hPa 0,0 mm 4,0 km/h (1 Bft) W 279 ° 0 min 0,000 mm 0,0 UV-I 0 W/m² 8,9 °C 15,4 °C 4,8 km/h (1 Bft)
20.10.2019 18:46 15,3 °C 65 % 1008,4 hPa 0,0 mm 2,5 km/h (1 Bft) W 279 ° 0 min 0,000 mm 0,0 UV-I 0 W/m² 8,8 °C 15,3 °C 4,8 km/h (1 Bft)
20.10.2019 18:47 15,3 °C 66 % 1008,5 hPa 0,0 mm 0,7 km/h (0 Bft) W 279 ° 0 min 0,000 mm 0,0 UV-I 0 W/m² 9,0 °C 15,3 °C 1,6 km/h (1 Bft)
20.10.2019 18:48 15,2 °C 67 % 1008,4 hPa 0,0 mm 0,3 km/h (0 Bft) W 279 ° 0 min 0,000 mm 0,0 UV-I 0 W/m² 9,1 °C 15,2 °C 3,2 km/h (1 Bft)
20.10.2019 18:49 15,2 °C 66 % 1008,4 hPa 0,0 mm 0,5 km/h (0 Bft) W 279 ° 0 min 0,000 mm 0,0 UV-I 0 W/m² 8,9 °C 15,2 °C 3,2 km/h (1 Bft)
20.10.2019 18:50 15,2 °C 66 % 1008,5 hPa 0,0 mm 3,8 km/h (1 Bft) W-SW 248 ° 0 min 0,000 mm 0,0 UV-I 0 W/m² 8,9 °C 15,2 °C 4,8 km/h (1 Bft)
20.10.2019 18:51 15,3 °C 64 % 1008,5 hPa 0,0 mm 1,4 km/h (1 Bft) W-SW 248 ° 0 min 0,000 mm 0,0 UV-I 0 W/m² 8,5 °C 15,3 °C 3,2 km/h (1 Bft)
20.10.2019 18:52 15,4 °C 64 % 1008,5 hPa 0,0 mm 1,6 km/h (1 Bft) W-SW 248 ° 0 min 0,000 mm 0,0 UV-I 0 W/m² 8,6 °C 15,4 °C 4,8 km/h (1 Bft)
20.10.2019 18:53 15,4 °C 64 % 1008,5 hPa 0,0 mm 2,7 km/h (1 Bft) W-SW 248 ° 0 min 0,000 mm 0,0 UV-I 0 W/m² 8,6 °C 15,4 °C 4,8 km/h (1 Bft)
20.10.2019 18:54 15,6 °C 64 % 1008,6 hPa 0,0 mm 2,0 km/h (1 Bft) W-SW 248 ° 0 min 0,000 mm 0,0 UV-I 0 W/m² 8,8 °C 15,6 °C 3,2 km/h (1 Bft)
20.10.2019 18:55 15,6 °C 63 % 1008,6 hPa 0,0 mm 0,9 km/h (0 Bft) W-SW 248 ° 0 min 0,000 mm 0,0 UV-I 0 W/m² 8,6 °C 15,6 °C 3,2 km/h (1 Bft)
20.10.2019 18:56 15,6 °C 64 % 1008,7 hPa 0,0 mm 1,5 km/h (1 Bft) W-SW 248 ° 0 min 0,000 mm 0,0 UV-I 0 W/m² 8,8 °C 15,6 °C 4,8 km/h (1 Bft)
20.10.2019 18:57 15,6 °C 64 % 1008,7 hPa 0,0 mm 0,7 km/h (0 Bft) W-SW 248 ° 0 min 0,000 mm 0,0 UV-I 0 W/m² 8,8 °C 15,6 °C 3,2 km/h (1 Bft)
20.10.2019 18:58 15,7 °C 64 % 1008,6 hPa 0,0 mm 2,4 km/h (1 Bft) S-SO 159 ° 0 min 0,000 mm 0,0 UV-I 0 W/m² 8,9 °C 15,7 °C 3,2 km/h (1 Bft)
20.10.2019 18:59 15,8 °C 63 % 1008,7 hPa 0,0 mm 2,9 km/h (1 Bft) S-SO 159 ° 0 min 0,000 mm 0,0 UV-I 0 W/m² 8,8 °C 15,8 °C 6,4 km/h (2 Bft)
20.10.2019 19:00 15,8 °C 63 % 1008,6 hPa 0,0 mm 2,2 km/h (1 Bft) S-SO 159 ° 0 min 0,000 mm 0,0 UV-I 0 W/m² 8,8 °C 15,8 °C 3,2 km/h (1 Bft)
20.10.2019 19:01 15,9 °C 63 % 1008,6 hPa 0,0 mm 3,1 km/h (1 Bft) O-NO 74 ° 0 min 0,025 mm 0,0 UV-I 0 W/m² 8,9 °C 15,9 °C 4,8 km/h (1 Bft)
20.10.2019 19:02 15,8 °C 63 % 1008,6 hPa 0,0 mm 2,5 km/h (1 Bft) O-NO 75 ° 0 min 0,000 mm 0,0 UV-I 0 W/m² 8,8 °C 15,8 °C 3,2 km/h (1 Bft)
20.10.2019 19:03 15,8 °C 62 % 1008,6 hPa 0,0 mm 0,8 km/h (0 Bft) O-NO 75 ° 0 min 0,000 mm 0,0 UV-I 0 W/m² 8,5 °C 15,8 °C 1,6 km/h (1 Bft)
20.10.2019 19:04 15,8 °C 63 % 1008,6 hPa 0,0 mm 0,0 km/h (0 Bft) O-NO 75 ° 0 min 0,000 mm 0,0 UV-I 0 W/m² 8,8 °C 15,8 °C 0,0 km/h (0 Bft)
20.10.2019 19:05 15,7 °C 62 % 1008,6 hPa 0,0 mm 0,0 km/h (0 Bft) O-NO 75 ° 0 min 0,000 mm 0,0 UV-I 0 W/m² 8,4 °C 15,7 °C 0,0 km/h (0 Bft)
20.10.2019 19:06 15,7 °C 62 % 1008,7 hPa 0,0 mm 0,1 km/h (0 Bft) O-NO 75 ° 0 min 0,000 mm 0,0 UV-I 0 W/m² 8,4 °C 15,7 °C 1,6 km/h (1 Bft)
20.10.2019 19:07 15,8 °C 61 % 1008,6 hPa 0,0 mm 0,3 km/h (0 Bft) O-NO 75 ° 0 min 0,000 mm 0,0 UV-I 0 W/m² 8,3 °C 15,8 °C 1,6 km/h (1 Bft)
20.10.2019 19:08 15,8 °C 62 % 1008,7 hPa 0,0 mm 1,7 km/h (1 Bft) O-SO 105 ° 0 min 0,000 mm 0,0 UV-I 0 W/m² 8,5 °C 15,8 °C 4,8 km/h (1 Bft)
20.10.2019 19:09 15,8 °C 62 % 1008,6 hPa 0,0 mm 1,1 km/h (1 Bft) O-SO 105 ° 0 min 0,000 mm 0,0 UV-I 0 W/m² 8,5 °C 15,8 °C 3,2 km/h (1 Bft)
20.10.2019 19:10 15,8 °C 62 % 1008,7 hPa 0,0 mm 1,0 km/h (0 Bft) O-SO 105 ° 0 min 0,000 mm 0,0 UV-I 0 W/m² 8,5 °C 15,8 °C 3,2 km/h (1 Bft)
20.10.2019 19:11 15,9 °C 62 % 1008,7 hPa 0,0 mm 0,5 km/h (0 Bft) O-SO 105 ° 0 min 0,000 mm 0,0 UV-I 0 W/m² 8,6 °C 15,9 °C 4,8 km/h (1 Bft)
20.10.2019 19:12 15,9 °C 62 % 1008,6 hPa 0,0 mm 3,4 km/h (1 Bft) O-SO 105 ° 0 min 0,000 mm 0,0 UV-I 0 W/m² 8,6 °C 15,9 °C 4,8 km/h (1 Bft)
20.10.2019 19:13 16,0 °C 61 % 1008,7 hPa 0,0 mm 2,3 km/h (1 Bft) O-SO 105 ° 0 min 0,000 mm 0,0 UV-I 0 W/m² 8,5 °C 16,0 °C 3,2 km/h (1 Bft)
20.10.2019 19:14 16,1 °C 61 % 1008,7 hPa 0,0 mm 0,8 km/h (0 Bft) O-SO 105 ° 0 min 0,000 mm 0,0 UV-I 0 W/m² 8,6 °C 16,1 °C 3,2 km/h (1 Bft)
20.10.2019 19:15 16,0 °C 63 % 1008,7 hPa 0,0 mm 0,0 km/h (0 Bft) O-SO 105 ° 0 min 0,000 mm 0,0 UV-I 0 W/m² 9,0 °C 16,0 °C 0,0 km/h (0 Bft)
20.10.2019 19:16 15,9 °C 63 % 1008,7 hPa 0,0 mm 0,0 km/h (0 Bft) O-SO 105 ° 0 min 0,000 mm 0,0 UV-I 0 W/m² 8,9 °C 15,9 °C 0,0 km/h (0 Bft)
20.10.2019 19:17 15,7 °C 63 % 1008,7 hPa 0,0 mm 0,0 km/h (0 Bft) O-SO 105 ° 0 min 0,000 mm 0,0 UV-I 0 W/m² 8,7 °C 15,7 °C 0,0 km/h (0 Bft)
20.10.2019 19:18 15,6 °C 64 % 1008,7 hPa 0,0 mm 0,0 km/h (0 Bft) O-SO 105 ° 0 min 0,000 mm 0,0 UV-I 0 W/m² 8,8 °C 15,6 °C 0,0 km/h (0 Bft)
20.10.2019 19:19 15,5 °C 65 % 1008,7 hPa 0,0 mm 0,0 km/h (0 Bft) O-SO 105 ° 0 min 0,000 mm 0,0 UV-I 0 W/m² 8,9 °C 15,5 °C 0,0 km/h (0 Bft)
20.10.2019 19:20 15,4 °C 64 % 1008,7 hPa 0,0 mm 0,0 km/h (0 Bft) O-SO 105 ° 0 min 0,000 mm 0,0 UV-I 0 W/m² 8,6 °C 15,4 °C 0,0 km/h (0 Bft)
20.10.2019 19:21 15,3 °C 64 % 1008,7 hPa 0,0 mm 0,0 km/h (0 Bft) O-SO 105 ° 0 min 0,000 mm 0,0 UV-I 0 W/m² 8,5 °C 15,3 °C 0,0 km/h (0 Bft)
20.10.2019 19:22 15,3 °C 65 % 1008,7 hPa 0,0 mm 0,0 km/h (0 Bft) O-SO 105 ° 0 min 0,000 mm 0,0 UV-I 0 W/m² 8,8 °C 15,3 °C 0,0 km/h (0 Bft)
20.10.2019 19:23 15,2 °C 66 % 1008,7 hPa 0,0 mm 0,0 km/h (0 Bft) O-SO 105 ° 0 min 0,000 mm 0,0 UV-I 0 W/m² 8,9 °C 15,2 °C 0,0 km/h (0 Bft)
20.10.2019 19:24 15,2 °C 66 % 1008,7 hPa 0,0 mm 0,0 km/h (0 Bft) O-SO 105 ° 0 min 0,000 mm 0,0 UV-I 0 W/m² 8,9 °C 15,2 °C 0,0 km/h (0 Bft)
20.10.2019 19:25 15,1 °C 66 % 1008,7 hPa 0,0 mm 0,0 km/h (0 Bft) O 88 ° 0 min 0,000 mm 0,0 UV-I 0 W/m² 8,8 °C 15,1 °C 0,0 km/h (0 Bft)
20.10.2019 19:26 15,0 °C 66 % 1008,7 hPa 0,0 mm 0,0 km/h (0 Bft) O 88 ° 0 min 0,000 mm 0,0 UV-I 0 W/m² 8,7 °C 15,0 °C 0,0 km/h (0 Bft)
20.10.2019 19:27 15,0 °C 66 % 1008,6 hPa 0,0 mm 0,0 km/h (0 Bft) O 87 ° 0 min 0,000 mm 0,0 UV-I 0 W/m² 8,7 °C 15,0 °C 0,0 km/h (0 Bft)
20.10.2019 19:28 14,9 °C 66 % 1008,7 hPa 0,0 mm 0,0 km/h (0 Bft) O 87 ° 0 min 0,000 mm 0,0 UV-I 0 W/m² 8,6 °C 14,9 °C 0,0 km/h (0 Bft)
20.10.2019 19:29 14,9 °C 66 % 1008,7 hPa 0,0 mm 0,0 km/h (0 Bft) O 87 ° 0 min 0,000 mm 0,0 UV-I 0 W/m² 8,6 °C 14,9 °C 0,0 km/h (0 Bft)
20.10.2019 19:30 14,9 °C 66 % 1008,7 hPa 0,0 mm 0,0 km/h (0 Bft) O 87 ° 0 min 0,000 mm 0,0 UV-I 0 W/m² 8,6 °C 14,9 °C 0,0 km/h (0 Bft)
20.10.2019 19:31 14,9 °C 67 % 1008,6 hPa 0,0 mm 0,0 km/h (0 Bft) O 87 ° 0 min 0,000 mm 0,0 UV-I 0 W/m² 8,8 °C 14,9 °C 0,0 km/h (0 Bft)
20.10.2019 19:32 14,9 °C 67 % 1008,7 hPa 0,0 mm 0,0 km/h (0 Bft) O 87 ° 0 min 0,000 mm 0,0 UV-I 0 W/m² 8,8 °C 14,9 °C 0,0 km/h (0 Bft)
20.10.2019 19:33 14,8 °C 67 % 1008,7 hPa 0,0 mm 0,0 km/h (0 Bft) O 87 ° 0 min 0,000 mm 0,0 UV-I 0 W/m² 8,7 °C 14,8 °C 0,0 km/h (0 Bft)
20.10.2019 19:34 14,8 °C 67 % 1008,7 hPa 0,0 mm 0,0 km/h (0 Bft) O 87 ° 0 min 0,000 mm 0,0 UV-I 0 W/m² 8,7 °C 14,8 °C 0,0 km/h (0 Bft)
20.10.2019 19:35 14,8 °C 67 % 1008,6 hPa 0,0 mm 0,0 km/h (0 Bft) O 87 ° 0 min 0,000 mm 0,0 UV-I 0 W/m² 8,7 °C 14,8 °C 0,0 km/h (0 Bft)
20.10.2019 19:36 14,9 °C 67 % 1008,6 hPa 0,0 mm 0,0 km/h (0 Bft) O 87 ° 0 min 0,000 mm 0,0 UV-I 0 W/m² 8,8 °C 14,9 °C 0,0 km/h (0 Bft)
20.10.2019 19:37 14,9 °C 67 % 1008,6 hPa 0,0 mm 0,0 km/h (0 Bft) O 87 ° 0 min 0,000 mm 0,0 UV-I 0 W/m² 8,8 °C 14,9 °C 0,0 km/h (0 Bft)
20.10.2019 19:38 14,9 °C 67 % 1008,6 hPa 0,0 mm 0,0 km/h (0 Bft) O 87 ° 0 min 0,000 mm 0,0 UV-I 0 W/m² 8,8 °C 14,9 °C 0,0 km/h (0 Bft)
20.10.2019 19:39 14,8 °C 67 % 1008,6 hPa 0,0 mm 0,0 km/h (0 Bft) O 87 ° 0 min 0,000 mm 0,0 UV-I 0 W/m² 8,7 °C 14,8 °C 0,0 km/h (0 Bft)
20.10.2019 19:40 14,8 °C 67 % 1008,7 hPa 0,0 mm 0,0 km/h (0 Bft) O 87 ° 0 min 0,000 mm 0,0 UV-I 0 W/m² 8,7 °C 14,8 °C 0,0 km/h (0 Bft)
20.10.2019 19:41 14,8 °C 67 % 1008,6 hPa 0,0 mm 0,0 km/h (0 Bft) O 87 ° 0 min 0,000 mm 0,0 UV-I 0 W/m² 8,7 °C 14,8 °C 0,0 km/h (0 Bft)
20.10.2019 19:42 14,8 °C 67 % 1008,7 hPa 0,0 mm 0,0 km/h (0 Bft) O 87 ° 0 min 0,000 mm 0,0 UV-I 0 W/m² 8,7 °C 14,8 °C 0,0 km/h (0 Bft)
20.10.2019 19:43 14,8 °C 67 % 1008,6 hPa 0,0 mm 0,0 km/h (0 Bft) O 87 ° 0 min 0,000 mm 0,0 UV-I 0 W/m² 8,7 °C 14,8 °C 0,0 km/h (0 Bft)
20.10.2019 19:44 14,8 °C 67 % 1008,6 hPa 0,0 mm 0,0 km/h (0 Bft) O 87 ° 0 min 0,000 mm 0,0 UV-I 0 W/m² 8,7 °C 14,8 °C 0,0 km/h (0 Bft)
20.10.2019 19:45 14,9 °C 67 % 1008,6 hPa 0,0 mm 0,0 km/h (0 Bft) O 87 ° 0 min 0,000 mm 0,0 UV-I 0 W/m² 8,8 °C 14,9 °C 0,0 km/h (0 Bft)
20.10.2019 19:46 14,9 °C 67 % 1008,6 hPa 0,0 mm 0,0 km/h (0 Bft) O 87 ° 0 min 0,000 mm 0,0 UV-I 0 W/m² 8,8 °C 14,9 °C 0,0 km/h (0 Bft)
20.10.2019 19:47 14,9 °C 66 % 1008,5 hPa 0,0 mm 0,0 km/h (0 Bft) O 87 ° 0 min 0,000 mm 0,0 UV-I 0 W/m² 8,6 °C 14,9 °C 0,0 km/h (0 Bft)
20.10.2019 19:48 15,0 °C 67 % 1008,6 hPa 0,0 mm 0,0 km/h (0 Bft) O 87 ° 0 min 0,000 mm 0,0 UV-I 0 W/m² 8,9 °C 15,0 °C 0,0 km/h (0 Bft)
20.10.2019 19:49 14,9 °C 67 % 1008,6 hPa 0,0 mm 0,0 km/h (0 Bft) O 87 ° 0 min 0,000 mm 0,0 UV-I 0 W/m² 8,8 °C 14,9 °C 0,0 km/h (0 Bft)
20.10.2019 19:50 14,9 °C 67 % 1008,6 hPa 0,0 mm 0,0 km/h (0 Bft) O 87 ° 0 min 0,000 mm 0,0 UV-I 0 W/m² 8,8 °C 14,9 °C 0,0 km/h (0 Bft)
20.10.2019 19:51 14,9 °C 67 % 1008,6 hPa 0,0 mm 0,0 km/h (0 Bft) O 87 ° 0 min 0,000 mm 0,0 UV-I 0 W/m² 8,8 °C 14,9 °C 0,0 km/h (0 Bft)
20.10.2019 19:52 14,9 °C 67 % 1008,6 hPa 0,0 mm 1,2 km/h (1 Bft) W-NW 300 ° 0 min 0,000 mm 0,0 UV-I 0 W/m² 8,8 °C 14,9 °C 3,2 km/h (1 Bft)
20.10.2019 19:53 14,9 °C 67 % 1008,6 hPa 0,0 mm 0,1 km/h (0 Bft) N-NW 336 ° 0 min 0,000 mm 0,0 UV-I 0 W/m² 8,8 °C 14,9 °C 1,6 km/h (1 Bft)
20.10.2019 19:54 14,9 °C 68 % 1008,6 hPa 0,0 mm 0,0 km/h (0 Bft) N-NW 336 ° 0 min 0,000 mm 0,0 UV-I 0 W/m² 9,0 °C 14,9 °C 0,0 km/h (0 Bft)
20.10.2019 19:55 14,8 °C 69 % 1008,6 hPa 0,0 mm 1,7 km/h (1 Bft) O-NO 78 ° 0 min 0,000 mm 0,0 UV-I 0 W/m² 9,2 °C 14,8 °C 4,8 km/h (1 Bft)
20.10.2019 19:56 14,7 °C 69 % 1008,6 hPa 0,0 mm 0,1 km/h (0 Bft) O-NO 78 ° 0 min 0,000 mm 0,0 UV-I 0 W/m² 9,1 °C 14,7 °C 1,6 km/h (1 Bft)
20.10.2019 19:57 14,7 °C 68 % 1008,6 hPa 0,0 mm 0,0 km/h (0 Bft) O-NO 78 ° 0 min 0,000 mm 0,0 UV-I 0 W/m² 8,9 °C 14,7 °C 0,0 km/h (0 Bft)
20.10.2019 19:58 14,7 °C 68 % 1008,6 hPa 0,0 mm 0,0 km/h (0 Bft) O-NO 78 ° 0 min 0,000 mm 0,0 UV-I 0 W/m² 8,9 °C 14,7 °C 0,0 km/h (0 Bft)
20.10.2019 19:59 14,7 °C 68 % 1008,6 hPa 0,0 mm 0,0 km/h (0 Bft) O-NO 78 ° 0 min 0,000 mm 0,0 UV-I 0 W/m² 8,9 °C 14,7 °C 0,0 km/h (0 Bft)
20.10.2019 20:00 14,7 °C 68 % 1008,7 hPa 0,0 mm 0,0 km/h (0 Bft) O-NO 78 ° 0 min 0,000 mm 0,0 UV-I 0 W/m² 8,9 °C 14,7 °C 0,0 km/h (0 Bft)
20.10.2019 20:01 14,7 °C 68 % 1008,7 hPa 0,0 mm 0,0 km/h (0 Bft) O-NO 78 ° 0 min 0,026 mm 0,0 UV-I 0 W/m² 8,9 °C 14,7 °C 0,0 km/h (0 Bft)
20.10.2019 20:02 14,7 °C 68 % 1008,7 hPa 0,0 mm 0,0 km/h (0 Bft) O-NO 78 ° 0 min 0,000 mm 0,0 UV-I 0 W/m² 8,9 °C 14,7 °C 0,0 km/h (0 Bft)
20.10.2019 20:03 14,7 °C 68 % 1008,6 hPa 0,0 mm 0,0 km/h (0 Bft) O-NO 78 ° 0 min 0,000 mm 0,0 UV-I 0 W/m² 8,9 °C 14,7 °C 0,0 km/h (0 Bft)
20.10.2019 20:04 14,7 °C 68 % 1008,6 hPa 0,0 mm 0,1 km/h (0 Bft) O-NO 78 ° 0 min 0,000 mm 0,0 UV-I 0 W/m² 8,9 °C 14,7 °C 1,6 km/h (1 Bft)
20.10.2019 20:05 14,7 °C 68 % 1008,6 hPa 0,0 mm 0,0 km/h (0 Bft) O-NO 78 ° 0 min 0,000 mm 0,0 UV-I 0 W/m² 8,9 °C 14,7 °C 0,0 km/h (0 Bft)
20.10.2019 20:06 14,7 °C 68 % 1008,6 hPa 0,0 mm 0,0 km/h (0 Bft) O-NO 78 ° 0 min 0,000 mm 0,0 UV-I 0 W/m² 8,9 °C 14,7 °C 0,0 km/h (0 Bft)
20.10.2019 20:07 14,7 °C 67 % 1008,6 hPa 0,0 mm 0,1 km/h (0 Bft) O-NO 78 ° 0 min 0,000 mm 0,0 UV-I 0 W/m² 8,6 °C 14,7 °C 1,6 km/h (1 Bft)
20.10.2019 20:08 14,8 °C 68 % 1008,6 hPa 0,0 mm 0,0 km/h (0 Bft) O-NO 78 ° 0 min 0,000 mm 0,0 UV-I 0 W/m² 9,0 °C 14,8 °C 0,0 km/h (0 Bft)
20.10.2019 20:09 14,7 °C 67 % 1008,7 hPa 0,0 mm 0,0 km/h (0 Bft) O-NO 78 ° 0 min 0,000 mm 0,0 UV-I 0 W/m² 8,6 °C 14,7 °C 0,0 km/h (0 Bft)
20.10.2019 20:10 14,7 °C 68 % 1008,6 hPa 0,0 mm 0,0 km/h (0 Bft) O-NO 78 ° 0 min 0,000 mm 0,0 UV-I 0 W/m² 8,9 °C 14,7 °C 0,0 km/h (0 Bft)
20.10.2019 20:11 14,7 °C 68 % 1008,6 hPa 0,0 mm 0,0 km/h (0 Bft) O-NO 78 ° 0 min 0,000 mm 0,0 UV-I 0 W/m² 8,9 °C 14,7 °C 0,0 km/h (0 Bft)
20.10.2019 20:12 14,7 °C 68 % 1008,6 hPa 0,0 mm 0,0 km/h (0 Bft) O-NO 78 ° 0 min 0,000 mm 0,0 UV-I 0 W/m² 8,9 °C 14,7 °C 0,0 km/h (0 Bft)
20.10.2019 20:13 14,7 °C 68 % 1008,6 hPa 0,0 mm 0,0 km/h (0 Bft) O-NO 78 ° 0 min 0,000 mm 0,0 UV-I 0 W/m² 8,9 °C 14,7 °C 0,0 km/h (0 Bft)
20.10.2019 20:14 14,7 °C 67 % 1008,6 hPa 0,0 mm 0,0 km/h (0 Bft) O-NO 78 ° 0 min 0,000 mm 0,0 UV-I 0 W/m² 8,6 °C 14,7 °C 0,0 km/h (0 Bft)
20.10.2019 20:15 14,8 °C 67 % 1008,7 hPa 0,0 mm 1,2 km/h (1 Bft) O-NO 65 ° 0 min 0,000 mm 0,0 UV-I 0 W/m² 8,7 °C 14,8 °C 3,2 km/h (1 Bft)
20.10.2019 20:16 14,9 °C 67 % 1008,6 hPa 0,0 mm 3,0 km/h (1 Bft) O-NO 64 ° 0 min 0,000 mm 0,0 UV-I 0 W/m² 8,8 °C 14,9 °C 4,8 km/h (1 Bft)
20.10.2019 20:17 14,9 °C 67 % 1008,6 hPa 0,0 mm 1,4 km/h (1 Bft) N-NO 27 ° 0 min 0,000 mm 0,0 UV-I 0 W/m² 8,8 °C 14,9 °C 4,8 km/h (1 Bft)
20.10.2019 20:18 14,9 °C 67 % 1008,6 hPa 0,0 mm 0,2 km/h (0 Bft) N-NO 27 ° 0 min 0,000 mm 0,0 UV-I 0 W/m² 8,8 °C 14,9 °C 1,6 km/h (1 Bft)
20.10.2019 20:19 14,9 °C 67 % 1008,6 hPa 0,0 mm 0,0 km/h (0 Bft) N-NO 27 ° 0 min 0,000 mm 0,0 UV-I 0 W/m² 8,8 °C 14,9 °C 0,0 km/h (0 Bft)
20.10.2019 20:20 14,9 °C 68 % 1008,6 hPa 0,0 mm 0,0 km/h (0 Bft) N-NO 27 ° 0 min 0,000 mm 0,0 UV-I 0 W/m² 9,0 °C 14,9 °C 0,0 km/h (0 Bft)
20.10.2019 20:21 14,9 °C 67 % 1008,6 hPa 0,0 mm 0,5 km/h (0 Bft) N-NO 27 ° 0 min 0,000 mm 0,0 UV-I 0 W/m² 8,8 °C 14,9 °C 1,6 km/h (1 Bft)
20.10.2019 20:22 14,8 °C 67 % 1008,6 hPa 0,0 mm 0,0 km/h (0 Bft) N-NO 28 ° 0 min 0,000 mm 0,0 UV-I 0 W/m² 8,7 °C 14,8 °C 0,0 km/h (0 Bft)
20.10.2019 20:23 14,8 °C 67 % 1008,7 hPa 0,0 mm 0,0 km/h (0 Bft) N-NO 27 ° 0 min 0,000 mm 0,0 UV-I 0 W/m² 8,7 °C 14,8 °C 0,0 km/h (0 Bft)
20.10.2019 20:24 14,8 °C 67 % 1008,6 hPa 0,0 mm 2,1 km/h (1 Bft) S-SO 151 ° 0 min 0,000 mm 0,0 UV-I 0 W/m² 8,7 °C 14,8 °C 4,8 km/h (1 Bft)
20.10.2019 20:25 14,8 °C 67 % 1008,7 hPa 0,0 mm 0,0 km/h (0 Bft) S-SO 150 ° 0 min 0,000 mm 0,0 UV-I 0 W/m² 8,7 °C 14,8 °C 0,0 km/h (0 Bft)
20.10.2019 20:26 14,8 °C 67 % 1008,7 hPa 0,0 mm 1,3 km/h (1 Bft) S-SO 150 ° 0 min 0,000 mm 0,0 UV-I 0 W/m² 8,7 °C 14,8 °C 4,8 km/h (1 Bft)
20.10.2019 20:27 14,7 °C 68 % 1008,7 hPa 0,0 mm 0,3 km/h (0 Bft) N 355 ° 0 min 0,000 mm 0,0 UV-I 0 W/m² 8,9 °C 14,7 °C 1,6 km/h (1 Bft)
20.10.2019 20:28 14,7 °C 68 % 1008,7 hPa 0,0 mm 2,7 km/h (1 Bft) SO 125 ° 0 min 0,000 mm 0,0 UV-I 0 W/m² 8,9 °C 14,7 °C 4,8 km/h (1 Bft)
20.10.2019 20:29 14,7 °C 68 % 1008,7 hPa 0,0 mm 0,5 km/h (0 Bft) O-SO 120 ° 0 min 0,000 mm 0,0 UV-I 0 W/m² 8,9 °C 14,7 °C 1,6 km/h (1 Bft)
20.10.2019 20:30 14,7 °C 68 % 1008,7 hPa 0,0 mm 5,9 km/h (2 Bft) S 178 ° 0 min 0,000 mm 0,0 UV-I 0 W/m² 8,9 °C 14,7 °C 9,7 km/h (2 Bft)
20.10.2019 20:31 14,7 °C 68 % 1008,8 hPa 0,0 mm 0,8 km/h (0 Bft) S 178 ° 0 min 0,000 mm 0,0 UV-I 0 W/m² 8,9 °C 14,7 °C 1,6 km/h (1 Bft)
20.10.2019 20:32 14,7 °C 68 % 1008,7 hPa 0,0 mm 1,5 km/h (1 Bft) N 355 ° 0 min 0,000 mm 0,0 UV-I 0 W/m² 8,9 °C 14,7 °C 4,8 km/h (1 Bft)
20.10.2019 20:33 14,8 °C 68 % 1008,8 hPa 0,0 mm 2,8 km/h (1 Bft) N-NO 15 ° 0 min 0,000 mm 0,0 UV-I 0 W/m² 9,0 °C 14,8 °C 4,8 km/h (1 Bft)
20.10.2019 20:34 14,8 °C 68 % 1008,8 hPa 0,0 mm 0,7 km/h (0 Bft) N-NO 15 ° 0 min 0,000 mm 0,0 UV-I 0 W/m² 9,0 °C 14,8 °C 3,2 km/h (1 Bft)
20.10.2019 20:35 14,8 °C 68 % 1008,9 hPa 0,0 mm 2,9 km/h (1 Bft) N-NO 26 ° 0 min 0,000 mm 0,0 UV-I 0 W/m² 9,0 °C 14,8 °C 6,4 km/h (2 Bft)
20.10.2019 20:36 14,8 °C 68 % 1008,9 hPa 0,0 mm 3,2 km/h (1 Bft) O-NO 59 ° 0 min 0,000 mm 0,0 UV-I 0 W/m² 9,0 °C 14,8 °C 6,4 km/h (2 Bft)
20.10.2019 20:37 14,9 °C 67 % 1008,9 hPa 0,0 mm 0,8 km/h (0 Bft) NO 41 ° 0 min 0,000 mm 0,0 UV-I 0 W/m² 8,8 °C 14,9 °C 3,2 km/h (1 Bft)
20.10.2019 20:38 14,9 °C 67 % 1008,9 hPa 0,0 mm 2,9 km/h (1 Bft) O-NO 71 ° 0 min 0,000 mm 0,0 UV-I 0 W/m² 8,8 °C 14,9 °C 6,4 km/h (2 Bft)
20.10.2019 20:39 14,9 °C 67 % 1008,9 hPa 0,0 mm 0,8 km/h (0 Bft) O-NO 71 ° 0 min 0,000 mm 0,0 UV-I 0 W/m² 8,8 °C 14,9 °C 3,2 km/h (1 Bft)
20.10.2019 20:40 15,0 °C 68 % 1008,9 hPa 0,0 mm 0,0 km/h (0 Bft) O-NO 63 ° 0 min 0,000 mm 0,0 UV-I 0 W/m² 9,1 °C 15,0 °C 0,0 km/h (0 Bft)
20.10.2019 20:41 15,0 °C 68 % 1008,9 hPa 0,0 mm 0,0 km/h (0 Bft) O-NO 61 ° 0 min 0,000 mm 0,0 UV-I 0 W/m² 9,1 °C 15,0 °C 0,0 km/h (0 Bft)
20.10.2019 20:42 15,0 °C 68 % 1009,0 hPa 0,0 mm 0,0 km/h (0 Bft) O-NO 61 ° 0 min 0,000 mm 0,0 UV-I 0 W/m² 9,1 °C 15,0 °C 0,0 km/h (0 Bft)
20.10.2019 20:43 15,1 °C 67 % 1009,0 hPa 0,0 mm 0,0 km/h (0 Bft) O-NO 61 ° 0 min 0,000 mm 0,0 UV-I 0 W/m² 9,0 °C 15,1 °C 0,0 km/h (0 Bft)
20.10.2019 20:44 15,2 °C 66 % 1009,0 hPa 0,0 mm 0,0 km/h (0 Bft) O-NO 61 ° 0 min 0,000 mm 0,0 UV-I 0 W/m² 8,9 °C 15,2 °C 0,0 km/h (0 Bft)
20.10.2019 20:45 15,2 °C 66 % 1009,0 hPa 0,0 mm 0,0 km/h (0 Bft) NO 49 ° 0 min 0,000 mm 0,0 UV-I 0 W/m² 8,9 °C 15,2 °C 0,0 km/h (0 Bft)
20.10.2019 20:46 15,3 °C 66 % 1009,0 hPa 0,0 mm 0,5 km/h (0 Bft) N-NO 24 ° 0 min 0,000 mm 0,0 UV-I 0 W/m² 9,0 °C 15,3 °C 4,8 km/h (1 Bft)
20.10.2019 20:47 15,3 °C 66 % 1009,0 hPa 0,0 mm 0,6 km/h (0 Bft) N 355 ° 0 min 0,000 mm 0,0 UV-I 0 W/m² 9,0 °C 15,3 °C 3,2 km/h (1 Bft)
20.10.2019 20:48 15,3 °C 66 % 1009,0 hPa 0,0 mm 0,1 km/h (0 Bft) N 355 ° 0 min 0,000 mm 0,0 UV-I 0 W/m² 9,0 °C 15,3 °C 1,6 km/h (1 Bft)
20.10.2019 20:49 15,3 °C 66 % 1009,1 hPa 0,0 mm 1,9 km/h (1 Bft) N 5 ° 0 min 0,000 mm 0,0 UV-I 0 W/m² 9,0 °C 15,3 °C 8,0 km/h (2 Bft)
20.10.2019 20:50 15,3 °C 66 % 1009,0 hPa 0,0 mm 4,9 km/h (1 Bft) N 355 ° 0 min 0,000 mm 0,0 UV-I 0 W/m² 9,0 °C 15,3 °C 6,4 km/h (2 Bft)
20.10.2019 20:51 15,2 °C 66 % 1009,0 hPa 0,0 mm 2,1 km/h (1 Bft) N 5 ° 0 min 0,000 mm 0,0 UV-I 0 W/m² 8,9 °C 15,2 °C 6,4 km/h (2 Bft)
20.10.2019 20:52 15,2 °C 66 % 1009,1 hPa 0,0 mm 0,2 km/h (0 Bft) N 5 ° 0 min 0,000 mm 0,0 UV-I 0 W/m² 8,9 °C 15,2 °C 1,6 km/h (1 Bft)
20.10.2019 20:53 15,3 °C 66 % 1009,1 hPa 0,0 mm 1,3 km/h (1 Bft) N 5 ° 0 min 0,000 mm 0,0 UV-I 0 W/m² 9,0 °C 15,3 °C 3,2 km/h (1 Bft)
20.10.2019 20:54 15,3 °C 66 % 1009,1 hPa 0,0 mm 0,0 km/h (0 Bft) N 5 ° 0 min 0,000 mm 0,0 UV-I 0 W/m² 9,0 °C 15,3 °C 0,0 km/h (0 Bft)
20.10.2019 20:55 15,4 °C 66 % 1009,2 hPa 0,0 mm 0,1 km/h (0 Bft) N 5 ° 0 min 0,000 mm 0,0 UV-I 0 W/m² 9,1 °C 15,4 °C 1,6 km/h (1 Bft)
20.10.2019 20:56 15,3 °C 67 % 1009,1 hPa 0,0 mm 5,4 km/h (1 Bft) O-SO 103 ° 0 min 0,000 mm 0,0 UV-I 0 W/m² 9,2 °C 15,3 °C 8,0 km/h (2 Bft)
20.10.2019 20:57 15,2 °C 66 % 1009,1 hPa 0,0 mm 1,2 km/h (1 Bft) O-SO 103 ° 0 min 0,000 mm 0,0 UV-I 0 W/m² 8,9 °C 15,2 °C 3,2 km/h (1 Bft)
20.10.2019 20:58 15,2 °C 66 % 1009,1 hPa 0,0 mm 0,0 km/h (0 Bft) O-SO 103 ° 0 min 0,000 mm 0,0 UV-I 0 W/m² 8,9 °C 15,2 °C 0,0 km/h (0 Bft)
20.10.2019 20:59 15,2 °C 66 % 1009,0 hPa 0,0 mm 2,2 km/h (1 Bft) O-NO 58 ° 0 min 0,000 mm 0,0 UV-I 0 W/m² 8,9 °C 15,2 °C 4,8 km/h (1 Bft)
20.10.2019 21:00 15,2 °C 67 % 1009,0 hPa 0,0 mm 3,2 km/h (1 Bft) NO 54 ° 0 min 0,000 mm 0,0 UV-I 0 W/m² 9,1 °C 15,2 °C 4,8 km/h (1 Bft)
20.10.2019 21:01 15,2 °C 68 % 1009,0 hPa 0,0 mm 0,5 km/h (0 Bft) NO 54 ° 0 min 0,025 mm 0,0 UV-I 0 W/m² 9,3 °C 15,2 °C 1,6 km/h (1 Bft)
20.10.2019 21:02 15,2 °C 67 % 1009,0 hPa 0,0 mm 3,5 km/h (1 Bft) NO 53 ° 0 min 0,000 mm 0,0 UV-I 0 W/m² 9,1 °C 15,2 °C 4,8 km/h (1 Bft)
20.10.2019 21:03 15,2 °C 66 % 1009,0 hPa 0,0 mm 2,0 km/h (1 Bft) NO 52 ° 0 min 0,000 mm 0,0 UV-I 0 W/m² 8,9 °C 15,2 °C 4,8 km/h (1 Bft)
20.10.2019 21:04 15,2 °C 66 % 1009,0 hPa 0,0 mm 0,1 km/h (0 Bft) NO 52 ° 0 min 0,000 mm 0,0 UV-I 0 W/m² 8,9 °C 15,2 °C 1,6 km/h (1 Bft)
20.10.2019 21:05 15,3 °C 66 % 1009,0 hPa 0,0 mm 0,7 km/h (0 Bft) NO 52 ° 0 min 0,000 mm 0,0 UV-I 0 W/m² 9,0 °C 15,3 °C 1,6 km/h (1 Bft)
20.10.2019 21:06 15,4 °C 66 % 1009,0 hPa 0,0 mm 0,0 km/h (0 Bft) NO 52 ° 0 min 0,000 mm 0,0 UV-I 0 W/m² 9,1 °C 15,4 °C 0,0 km/h (0 Bft)
20.10.2019 21:07 15,4 °C 66 % 1009,0 hPa 0,0 mm 3,6 km/h (1 Bft) O-NO 71 ° 0 min 0,000 mm 0,0 UV-I 0 W/m² 9,1 °C 15,4 °C 6,4 km/h (2 Bft)
20.10.2019 21:08 15,4 °C 66 % 1009,0 hPa 0,0 mm 0,5 km/h (0 Bft) O-NO 71 ° 0 min 0,000 mm 0,0 UV-I 0 W/m² 9,1 °C 15,4 °C 3,2 km/h (1 Bft)
20.10.2019 21:09 15,4 °C 65 % 1009,0 hPa 0,0 mm 1,1 km/h (1 Bft) O-NO 71 ° 0 min 0,000 mm 0,0 UV-I 0 W/m² 8,9 °C 15,4 °C 3,2 km/h (1 Bft)
20.10.2019 21:10 15,4 °C 65 % 1009,1 hPa 0,0 mm 0,0 km/h (0 Bft) O-NO 71 ° 0 min 0,000 mm 0,0 UV-I 0 W/m² 8,9 °C 15,4 °C 0,0 km/h (0 Bft)
20.10.2019 21:11 15,3 °C 66 % 1009,0 hPa 0,0 mm 3,0 km/h (1 Bft) O-NO 57 ° 0 min 0,000 mm 0,0 UV-I 0 W/m² 9,0 °C 15,3 °C 6,4 km/h (2 Bft)
20.10.2019 21:12 15,3 °C 66 % 1009,0 hPa 0,0 mm 2,6 km/h (1 Bft) O-NO 57 ° 0 min 0,000 mm 0,0 UV-I 0 W/m² 9,0 °C 15,3 °C 4,8 km/h (1 Bft)
20.10.2019 21:13 15,3 °C 66 % 1009,0 hPa 0,0 mm 0,0 km/h (0 Bft) O-NO 57 ° 0 min 0,000 mm 0,0 UV-I 0 W/m² 9,0 °C 15,3 °C 0,0 km/h (0 Bft)
20.10.2019 21:14 15,3 °C 66 % 1009,0 hPa 0,0 mm 1,5 km/h (1 Bft) O-SO 111 ° 0 min 0,000 mm 0,0 UV-I 0 W/m² 9,0 °C 15,3 °C 4,8 km/h (1 Bft)
20.10.2019 21:15 15,4 °C 65 % 1009,1 hPa 0,0 mm 0,8 km/h (0 Bft) NO 38 ° 0 min 0,000 mm 0,0 UV-I 0 W/m² 8,9 °C 15,4 °C 3,2 km/h (1 Bft)
20.10.2019 21:16 15,4 °C 65 % 1009,0 hPa 0,0 mm 2,7 km/h (1 Bft) O-NO 64 ° 0 min 0,000 mm 0,0 UV-I 0 W/m² 8,9 °C 15,4 °C 4,8 km/h (1 Bft)
20.10.2019 21:17 15,5 °C 66 % 1009,0 hPa 0,0 mm 1,3 km/h (1 Bft) O-NO 64 ° 0 min 0,000 mm 0,0 UV-I 0 W/m² 9,2 °C 15,5 °C 3,2 km/h (1 Bft)
20.10.2019 21:18 15,6 °C 66 % 1009,0 hPa 0,0 mm 0,4 km/h (0 Bft) O-NO 64 ° 0 min 0,000 mm 0,0 UV-I 0 W/m² 9,3 °C 15,6 °C 1,6 km/h (1 Bft)
20.10.2019 21:19 15,5 °C 66 % 1009,0 hPa 0,0 mm 1,0 km/h (0 Bft) O-NO 64 ° 0 min 0,000 mm 0,0 UV-I 0 W/m² 9,2 °C 15,5 °C 3,2 km/h (1 Bft)
20.10.2019 21:20 15,4 °C 66 % 1009,0 hPa 0,0 mm 1,1 km/h (1 Bft) O-NO 64 ° 0 min 0,000 mm 0,0 UV-I 0 W/m² 9,1 °C 15,4 °C 3,2 km/h (1 Bft)
20.10.2019 21:21 15,4 °C 66 % 1009,1 hPa 0,0 mm 1,2 km/h (1 Bft) O-NO 64 ° 0 min 0,000 mm 0,0 UV-I 0 W/m² 9,1 °C 15,4 °C 3,2 km/h (1 Bft)
20.10.2019 21:22 15,4 °C 66 % 1009,1 hPa 0,0 mm 0,0 km/h (0 Bft) O-NO 64 ° 0 min 0,000 mm 0,0 UV-I 0 W/m² 9,1 °C 15,4 °C 0,0 km/h (0 Bft)
20.10.2019 21:23 15,3 °C 66 % 1009,1 hPa 0,0 mm 0,0 km/h (0 Bft) O-NO 64 ° 0 min 0,000 mm 0,0 UV-I 0 W/m² 9,0 °C 15,3 °C 0,0 km/h (0 Bft)
20.10.2019 21:24 15,3 °C 66 % 1009,1 hPa 0,0 mm 0,7 km/h (0 Bft) O-NO 64 ° 0 min 0,000 mm 0,0 UV-I 0 W/m² 9,0 °C 15,3 °C 1,6 km/h (1 Bft)
20.10.2019 21:25 15,4 °C 66 % 1009,1 hPa 0,0 mm 0,0 km/h (0 Bft) O-NO 64 ° 0 min 0,000 mm 0,0 UV-I 0 W/m² 9,1 °C 15,4 °C 0,0 km/h (0 Bft)
20.10.2019 21:26 15,3 °C 66 % 1009,1 hPa 0,0 mm 0,5 km/h (0 Bft) O-NO 64 ° 0 min 0,000 mm 0,0 UV-I 0 W/m² 9,0 °C 15,3 °C 3,2 km/h (1 Bft)
20.10.2019 21:27 15,4 °C 65 % 1009,1 hPa 0,0 mm 2,1 km/h (1 Bft) O-NO 62 ° 0 min 0,000 mm 0,0 UV-I 0 W/m² 8,9 °C 15,4 °C 3,2 km/h (1 Bft)
20.10.2019 21:28 15,4 °C 66 % 1009,1 hPa 0,0 mm 3,8 km/h (1 Bft) NW 315 ° 0 min 0,000 mm 0,0 UV-I 0 W/m² 9,1 °C 15,4 °C 6,4 km/h (2 Bft)
20.10.2019 21:29 15,4 °C 65 % 1009,1 hPa 0,0 mm 0,8 km/h (0 Bft) NW 315 ° 0 min 0,000 mm 0,0 UV-I 0 W/m² 8,9 °C 15,4 °C 3,2 km/h (1 Bft)
20.10.2019 21:30 15,4 °C 66 % 1009,1 hPa 0,0 mm 0,3 km/h (0 Bft) NW 318 ° 0 min 0,000 mm 0,0 UV-I 0 W/m² 9,1 °C 15,4 °C 1,6 km/h (1 Bft)
20.10.2019 21:31 15,4 °C 67 % 1009,1 hPa 0,0 mm 0,2 km/h (0 Bft) NW 318 ° 0 min 0,000 mm 0,0 UV-I 0 W/m² 9,3 °C 15,4 °C 1,6 km/h (1 Bft)
20.10.2019 21:32 15,3 °C 66 % 1009,1 hPa 0,0 mm 2,3 km/h (1 Bft) NO 44 ° 0 min 0,000 mm 0,0 UV-I 0 W/m² 9,0 °C 15,3 °C 3,2 km/h (1 Bft)
20.10.2019 21:33 15,3 °C 66 % 1009,1 hPa 0,0 mm 1,8 km/h (1 Bft) NO 44 ° 0 min 0,000 mm 0,0 UV-I 0 W/m² 9,0 °C 15,3 °C 3,2 km/h (1 Bft)
20.10.2019 21:34 15,3 °C 66 % 1009,1 hPa 0,0 mm 1,7 km/h (1 Bft) O-NO 58 ° 0 min 0,000 mm 0,0 UV-I 0 W/m² 9,0 °C 15,3 °C 8,0 km/h (2 Bft)
20.10.2019 21:35 15,3 °C 66 % 1009,1 hPa 0,0 mm 1,7 km/h (1 Bft) O-NO 58 ° 0 min 0,000 mm 0,0 UV-I 0 W/m² 9,0 °C 15,3 °C 4,8 km/h (1 Bft)
20.10.2019 21:36 15,4 °C 65 % 1009,1 hPa 0,0 mm 1,7 km/h (1 Bft) O-NO 58 ° 0 min 0,000 mm 0,0 UV-I 0 W/m² 8,9 °C 15,4 °C 3,2 km/h (1 Bft)
20.10.2019 21:37 15,5 °C 65 % 1009,1 hPa 0,0 mm 1,6 km/h (1 Bft) O-NO 59 ° 0 min 0,000 mm 0,0 UV-I 0 W/m² 8,9 °C 15,5 °C 4,8 km/h (1 Bft)
20.10.2019 21:38 15,6 °C 65 % 1009,1 hPa 0,0 mm 0,1 km/h (0 Bft) O-NO 59 ° 0 min 0,000 mm 0,0 UV-I 0 W/m² 9,0 °C 15,6 °C 1,6 km/h (1 Bft)
20.10.2019 21:39 15,7 °C 65 % 1009,1 hPa 0,0 mm 0,0 km/h (0 Bft) O-NO 59 ° 0 min 0,000 mm 0,0 UV-I 0 W/m² 9,1 °C 15,7 °C 0,0 km/h (0 Bft)
20.10.2019 21:40 15,7 °C 65 % 1009,0 hPa 0,0 mm 0,3 km/h (0 Bft) O-NO 59 ° 0 min 0,000 mm 0,0 UV-I 0 W/m² 9,1 °C 15,7 °C 1,6 km/h (1 Bft)
20.10.2019 21:41 15,7 °C 65 % 1009,0 hPa 0,0 mm 0,0 km/h (0 Bft) O-NO 59 ° 0 min 0,000 mm 0,0 UV-I 0 W/m² 9,1 °C 15,7 °C 0,0 km/h (0 Bft)
20.10.2019 21:42 15,7 °C 65 % 1009,0 hPa 0,0 mm 0,0 km/h (0 Bft) O-NO 59 ° 0 min 0,000 mm 0,0 UV-I 0 W/m² 9,1 °C 15,7 °C 0,0 km/h (0 Bft)
20.10.2019 21:43 15,7 °C 65 % 1009,1 hPa 0,0 mm 0,0 km/h (0 Bft) O-NO 59 ° 0 min 0,000 mm 0,0 UV-I 0 W/m² 9,1 °C 15,7 °C 0,0 km/h (0 Bft)
20.10.2019 21:44 15,7 °C 64 % 1009,1 hPa 0,0 mm 0,0 km/h (0 Bft) O-NO 59 ° 0 min 0,000 mm 0,0 UV-I 0 W/m² 8,9 °C 15,7 °C 0,0 km/h (0 Bft)
20.10.2019 21:45 15,7 °C 65 % 1009,1 hPa 0,0 mm 0,3 km/h (0 Bft) O-NO 59 ° 0 min 0,000 mm 0,0 UV-I 0 W/m² 9,1 °C 15,7 °C 3,2 km/h (1 Bft)
20.10.2019 21:46 15,7 °C 64 % 1009,1 hPa 0,0 mm 1,1 km/h (1 Bft) O-NO 59 ° 0 min 0,000 mm 0,0 UV-I 0 W/m² 8,9 °C 15,7 °C 3,2 km/h (1 Bft)
20.10.2019 21:47 15,7 °C 65 % 1009,1 hPa 0,0 mm 2,7 km/h (1 Bft) O-SO 102 ° 0 min 0,000 mm 0,0 UV-I 0 W/m² 9,1 °C 15,7 °C 3,2 km/h (1 Bft)
20.10.2019 21:48 15,7 °C 64 % 1009,1 hPa 0,0 mm 0,5 km/h (0 Bft) O-SO 102 ° 0 min 0,000 mm 0,0 UV-I 0 W/m² 8,9 °C 15,7 °C 1,6 km/h (1 Bft)
20.10.2019 21:49 15,7 °C 65 % 1009,1 hPa 0,0 mm 1,7 km/h (1 Bft) O-SO 102 ° 0 min 0,000 mm 0,0 UV-I 0 W/m² 9,1 °C 15,7 °C 3,2 km/h (1 Bft)
20.10.2019 21:50 15,7 °C 65 % 1009,1 hPa 0,0 mm 0,9 km/h (0 Bft) O-SO 102 ° 0 min 0,000 mm 0,0 UV-I 0 W/m² 9,1 °C 15,7 °C 3,2 km/h (1 Bft)
20.10.2019 21:51 15,7 °C 65 % 1009,1 hPa 0,0 mm 0,4 km/h (0 Bft) O 92 ° 0 min 0,000 mm 0,0 UV-I 0 W/m² 9,1 °C 15,7 °C 1,6 km/h (1 Bft)
20.10.2019 21:52 15,7 °C 65 % 1009,1 hPa 0,0 mm 1,2 km/h (1 Bft) O 92 ° 0 min 0,000 mm 0,0 UV-I 0 W/m² 9,1 °C 15,7 °C 3,2 km/h (1 Bft)
20.10.2019 21:53 15,6 °C 65 % 1009,2 hPa 0,0 mm 1,5 km/h (1 Bft) O 92 ° 0 min 0,000 mm 0,0 UV-I 0 W/m² 9,0 °C 15,6 °C 3,2 km/h (1 Bft)
20.10.2019 21:54 15,6 °C 66 % 1009,1 hPa 0,0 mm 0,0 km/h (0 Bft) O 92 ° 0 min 0,000 mm 0,0 UV-I 0 W/m² 9,3 °C 15,6 °C 0,0 km/h (0 Bft)
20.10.2019 21:55 15,4 °C 67 % 1009,1 hPa 0,0 mm 0,3 km/h (0 Bft) O 92 ° 0 min 0,000 mm 0,0 UV-I 0 W/m² 9,3 °C 15,4 °C 1,6 km/h (1 Bft)
20.10.2019 21:56 15,3 °C 66 % 1009,2 hPa 0,0 mm 0,8 km/h (0 Bft) O 92 ° 0 min 0,000 mm 0,0 UV-I 0 W/m² 9,0 °C 15,3 °C 1,6 km/h (1 Bft)
20.10.2019 21:57 15,3 °C 66 % 1009,2 hPa 0,0 mm 0,0 km/h (0 Bft) O 92 ° 0 min 0,000 mm 0,0 UV-I 0 W/m² 9,0 °C 15,3 °C 0,0 km/h (0 Bft)
20.10.2019 21:58 15,3 °C 66 % 1009,1 hPa 0,0 mm 0,0 km/h (0 Bft) O 92 ° 0 min 0,000 mm 0,0 UV-I 0 W/m² 9,0 °C 15,3 °C 0,0 km/h (0 Bft)
20.10.2019 21:59 15,3 °C 66 % 1009,1 hPa 0,0 mm 0,0 km/h (0 Bft) O 92 ° 0 min 0,000 mm 0,0 UV-I 0 W/m² 9,0 °C 15,3 °C 0,0 km/h (0 Bft)
20.10.2019 22:00 15,2 °C 66 % 1009,1 hPa 0,0 mm 0,0 km/h (0 Bft) O 92 ° 0 min 0,000 mm 0,0 UV-I 0 W/m² 8,9 °C 15,2 °C 0,0 km/h (0 Bft)
20.10.2019 22:01 15,2 °C 66 % 1009,1 hPa 0,0 mm 0,0 km/h (0 Bft) O 101 ° 0 min 0,026 mm 0,0 UV-I 0 W/m² 8,9 °C 15,2 °C 0,0 km/h (0 Bft)
20.10.2019 22:02 15,3 °C 66 % 1009,2 hPa 0,0 mm 0,0 km/h (0 Bft) O 101 ° 0 min 0,000 mm 0,0 UV-I 0 W/m² 9,0 °C 15,3 °C 0,0 km/h (0 Bft)
20.10.2019 22:03 15,4 °C 66 % 1009,2 hPa 0,0 mm 0,0 km/h (0 Bft) O 101 ° 0 min 0,000 mm 0,0 UV-I 0 W/m² 9,1 °C 15,4 °C 0,0 km/h (0 Bft)
20.10.2019 22:04 15,5 °C 66 % 1009,2 hPa 0,0 mm 0,0 km/h (0 Bft) O 101 ° 0 min 0,000 mm 0,0 UV-I 0 W/m² 9,2 °C 15,5 °C 0,0 km/h (0 Bft)
20.10.2019 22:05 15,4 °C 67 % 1009,2 hPa 0,0 mm 0,0 km/h (0 Bft) O 101 ° 0 min 0,000 mm 0,0 UV-I 0 W/m² 9,3 °C 15,4 °C 0,0 km/h (0 Bft)
20.10.2019 22:06 15,4 °C 67 % 1009,2 hPa 0,0 mm 0,0 km/h (0 Bft) O 101 ° 0 min 0,000 mm 0,0 UV-I 0 W/m² 9,3 °C 15,4 °C 0,0 km/h (0 Bft)
20.10.2019 22:07 15,3 °C 66 % 1009,2 hPa 0,0 mm 0,0 km/h (0 Bft) O 101 ° 0 min 0,000 mm 0,0 UV-I 0 W/m² 9,0 °C 15,3 °C 0,0 km/h (0 Bft)
20.10.2019 22:08 15,3 °C 66 % 1009,2 hPa 0,0 mm 0,0 km/h (0 Bft) O 101 ° 0 min 0,000 mm 0,0 UV-I 0 W/m² 9,0 °C 15,3 °C 0,0 km/h (0 Bft)
20.10.2019 22:09 15,3 °C 66 % 1009,2 hPa 0,0 mm 0,0 km/h (0 Bft) O 101 ° 0 min 0,000 mm 0,0 UV-I 0 W/m² 9,0 °C 15,3 °C 0,0 km/h (0 Bft)
20.10.2019 22:10 15,4 °C 67 % 1009,2 hPa 0,0 mm 0,0 km/h (0 Bft) O 101 ° 0 min 0,000 mm 0,0 UV-I 0 W/m² 9,3 °C 15,4 °C 0,0 km/h (0 Bft)
20.10.2019 22:11 15,3 °C 67 % 1009,3 hPa 0,0 mm 3,3 km/h (1 Bft) O-SO 113 ° 0 min 0,000 mm 0,0 UV-I 0 W/m² 9,2 °C 15,3 °C 6,4 km/h (2 Bft)
20.10.2019 22:12 15,3 °C 66 % 1009,3 hPa 0,0 mm 3,1 km/h (1 Bft) S-SO 155 ° 0 min 0,000 mm 0,0 UV-I 0 W/m² 9,0 °C 15,3 °C 8,0 km/h (2 Bft)
20.10.2019 22:13 15,3 °C 66 % 1009,2 hPa 0,0 mm 0,1 km/h (0 Bft) S-SO 155 ° 0 min 0,000 mm 0,0 UV-I 0 W/m² 9,0 °C 15,3 °C 1,6 km/h (1 Bft)
20.10.2019 22:14 15,4 °C 65 % 1009,2 hPa 0,0 mm 2,4 km/h (1 Bft) S-SO 155 ° 0 min 0,000 mm 0,0 UV-I 0 W/m² 8,9 °C 15,4 °C 4,8 km/h (1 Bft)
20.10.2019 22:15 15,5 °C 66 % 1009,2 hPa 0,0 mm 1,9 km/h (1 Bft) S-SO 155 ° 0 min 0,000 mm 0,0 UV-I 0 W/m² 9,2 °C 15,5 °C 4,8 km/h (1 Bft)
20.10.2019 22:16 15,6 °C 65 % 1009,2 hPa 0,0 mm 3,1 km/h (1 Bft) SO 133 ° 0 min 0,000 mm 0,0 UV-I 0 W/m² 9,0 °C 15,6 °C 4,8 km/h (1 Bft)
20.10.2019 22:17 15,6 °C 65 % 1009,3 hPa 0,0 mm 0,2 km/h (0 Bft) SO 133 ° 0 min 0,000 mm 0,0 UV-I 0 W/m² 9,0 °C 15,6 °C 1,6 km/h (1 Bft)
20.10.2019 22:18 15,6 °C 64 % 1009,3 hPa 0,0 mm 0,0 km/h (0 Bft) SO 133 ° 0 min 0,000 mm 0,0 UV-I 0 W/m² 8,8 °C 15,6 °C 0,0 km/h (0 Bft)
20.10.2019 22:19 15,6 °C 65 % 1009,3 hPa 0,0 mm 0,1 km/h (0 Bft) SO 133 ° 0 min 0,000 mm 0,0 UV-I 0 W/m² 9,0 °C 15,6 °C 1,6 km/h (1 Bft)
20.10.2019 22:20 15,7 °C 64 % 1009,4 hPa 0,0 mm 1,3 km/h (1 Bft) SO 133 ° 0 min 0,000 mm 0,0 UV-I 0 W/m² 8,9 °C 15,7 °C 3,2 km/h (1 Bft)
20.10.2019 22:21 15,7 °C 64 % 1009,5 hPa 0,0 mm 0,0 km/h (0 Bft) SO 133 ° 0 min 0,000 mm 0,0 UV-I 0 W/m² 8,9 °C 15,7 °C 0,0 km/h (0 Bft)
20.10.2019 22:22 15,9 °C 63 % 1009,5 hPa 0,0 mm 0,0 km/h (0 Bft) SO 133 ° 0 min 0,000 mm 0,0 UV-I 0 W/m² 8,9 °C 15,9 °C 0,0 km/h (0 Bft)
20.10.2019 22:23 15,9 °C 64 % 1009,6 hPa 0,0 mm 1,6 km/h (1 Bft) SO 133 ° 0 min 0,000 mm 0,0 UV-I 0 W/m² 9,1 °C 15,9 °C 3,2 km/h (1 Bft)
20.10.2019 22:24 15,9 °C 64 % 1009,6 hPa 0,0 mm 1,5 km/h (1 Bft) SO 133 ° 0 min 0,000 mm 0,0 UV-I 0 W/m² 9,1 °C 15,9 °C 3,2 km/h (1 Bft)
20.10.2019 22:25 15,9 °C 64 % 1009,5 hPa 0,0 mm 1,2 km/h (1 Bft) SO 133 ° 0 min 0,000 mm 0,0 UV-I 0 W/m² 9,1 °C 15,9 °C 4,8 km/h (1 Bft)
20.10.2019 22:26 15,9 °C 65 % 1009,7 hPa 0,0 mm 0,7 km/h (0 Bft) SO 133 ° 0 min 0,000 mm 0,0 UV-I 0 W/m² 9,3 °C 15,9 °C 3,2 km/h (1 Bft)
20.10.2019 22:27 15,8 °C 64 % 1009,7 hPa 0,0 mm 1,5 km/h (1 Bft) SO 133 ° 0 min 0,000 mm 0,0 UV-I 0 W/m² 9,0 °C 15,8 °C 3,2 km/h (1 Bft)
20.10.2019 22:28 15,7 °C 65 % 1009,7 hPa 0,0 mm 0,3 km/h (0 Bft) SO 133 ° 0 min 0,000 mm 0,0 UV-I 0 W/m² 9,1 °C 15,7 °C 1,6 km/h (1 Bft)
20.10.2019 22:29 15,7 °C 65 % 1009,7 hPa 0,0 mm 0,0 km/h (0 Bft) SO 133 ° 0 min 0,000 mm 0,0 UV-I 0 W/m² 9,1 °C 15,7 °C 0,0 km/h (0 Bft)
20.10.2019 22:30 15,6 °C 65 % 1009,6 hPa 0,0 mm 0,1 km/h (0 Bft) SO 133 ° 0 min 0,000 mm 0,0 UV-I 0 W/m² 9,0 °C 15,6 °C 3,2 km/h (1 Bft)
20.10.2019 22:31 15,6 °C 65 % 1009,5 hPa 0,0 mm 4,4 km/h (1 Bft) O 79 ° 0 min 0,000 mm 0,0 UV-I 0 W/m² 9,0 °C 15,6 °C 6,4 km/h (2 Bft)
20.10.2019 22:32 15,6 °C 66 % 1009,6 hPa 0,0 mm 4,7 km/h (1 Bft) O-NO 58 ° 0 min 0,000 mm 0,0 UV-I 0 W/m² 9,3 °C 15,6 °C 8,0 km/h (2 Bft)
20.10.2019 22:33 15,6 °C 66 % 1009,5 hPa 0,0 mm 6,1 km/h (2 Bft) O-SO 119 ° 0 min 0,000 mm 0,0 UV-I 0 W/m² 9,3 °C 15,6 °C 9,7 km/h (2 Bft)
20.10.2019 22:34 15,6 °C 66 % 1009,6 hPa 0,0 mm 4,4 km/h (1 Bft) O 86 ° 0 min 0,000 mm 0,0 UV-I 0 W/m² 9,3 °C 15,6 °C 6,4 km/h (2 Bft)
20.10.2019 22:35 15,6 °C 67 % 1009,6 hPa 0,0 mm 4,8 km/h (1 Bft) O 81 ° 0 min 0,000 mm 0,0 UV-I 0 W/m² 9,5 °C 15,6 °C 6,4 km/h (2 Bft)
20.10.2019 22:36 15,7 °C 65 % 1009,6 hPa 0,0 mm 3,9 km/h (1 Bft) O-SO 117 ° 0 min 0,000 mm 0,0 UV-I 0 W/m² 9,1 °C 15,7 °C 8,0 km/h (2 Bft)
20.10.2019 22:37 15,8 °C 65 % 1009,6 hPa 0,0 mm 2,8 km/h (1 Bft) O-SO 115 ° 0 min 0,000 mm 0,0 UV-I 0 W/m² 9,2 °C 15,8 °C 4,8 km/h (1 Bft)
20.10.2019 22:38 15,8 °C 65 % 1009,6 hPa 0,0 mm 2,6 km/h (1 Bft) O-SO 115 ° 0 min 0,000 mm 0,0 UV-I 0 W/m² 9,2 °C 15,8 °C 4,8 km/h (1 Bft)
20.10.2019 22:39 15,9 °C 64 % 1009,6 hPa 0,0 mm 1,3 km/h (1 Bft) O-SO 115 ° 0 min 0,000 mm 0,0 UV-I 0 W/m² 9,1 °C 15,9 °C 3,2 km/h (1 Bft)
20.10.2019 22:40 15,9 °C 64 % 1009,6 hPa 0,0 mm 1,1 km/h (1 Bft) O 98 ° 0 min 0,000 mm 0,0 UV-I 0 W/m² 9,1 °C 15,9 °C 4,8 km/h (1 Bft)
20.10.2019 22:41 16,1 °C 64 % 1009,5 hPa 0,0 mm 3,9 km/h (1 Bft) O-SO 105 ° 0 min 0,000 mm 0,0 UV-I 0 W/m² 9,3 °C 16,1 °C 6,4 km/h (2 Bft)
20.10.2019 22:42 16,1 °C 63 % 1009,5 hPa 0,0 mm 2,1 km/h (1 Bft) O-SO 105 ° 0 min 0,000 mm 0,0 UV-I 0 W/m² 9,1 °C 16,1 °C 3,2 km/h (1 Bft)
20.10.2019 22:43 16,1 °C 64 % 1009,5 hPa 0,0 mm 2,1 km/h (1 Bft) O 82 ° 0 min 0,000 mm 0,0 UV-I 0 W/m² 9,3 °C 16,1 °C 4,8 km/h (1 Bft)
20.10.2019 22:44 16,1 °C 64 % 1009,4 hPa 0,0 mm 3,4 km/h (1 Bft) O 82 ° 0 min 0,000 mm 0,0 UV-I 0 W/m² 9,3 °C 16,1 °C 4,8 km/h (1 Bft)
20.10.2019 22:45 16,1 °C 63 % 1009,5 hPa 0,0 mm 2,9 km/h (1 Bft) O 82 ° 0 min 0,000 mm 0,0 UV-I 0 W/m² 9,1 °C 16,1 °C 4,8 km/h (1 Bft)
20.10.2019 22:46 16,1 °C 63 % 1009,5 hPa 0,0 mm 1,4 km/h (1 Bft) O 82 ° 0 min 0,000 mm 0,0 UV-I 0 W/m² 9,1 °C 16,1 °C 3,2 km/h (1 Bft)
20.10.2019 22:47 16,1 °C 64 % 1009,6 hPa 0,0 mm 0,9 km/h (0 Bft) O 82 ° 0 min 0,000 mm 0,0 UV-I 0 W/m² 9,3 °C 16,1 °C 4,8 km/h (1 Bft)
20.10.2019 22:48 16,2 °C 63 % 1009,7 hPa 0,0 mm 2,9 km/h (1 Bft) O 82 ° 0 min 0,000 mm 0,0 UV-I 0 W/m² 9,1 °C 16,2 °C 6,4 km/h (2 Bft)
20.10.2019 22:49 16,2 °C 63 % 1009,6 hPa 0,0 mm 1,4 km/h (1 Bft) O 82 ° 0 min 0,000 mm 0,0 UV-I 0 W/m² 9,1 °C 16,2 °C 3,2 km/h (1 Bft)
20.10.2019 22:50 16,3 °C 64 % 1009,6 hPa 0,0 mm 5,0 km/h (1 Bft) O-SO 119 ° 0 min 0,000 mm 0,0 UV-I 0 W/m² 9,5 °C 16,3 °C 6,4 km/h (2 Bft)
20.10.2019 22:51 16,3 °C 64 % 1009,6 hPa 0,0 mm 5,4 km/h (1 Bft) O-NO 72 ° 0 min 0,000 mm 0,0 UV-I 0 W/m² 9,5 °C 16,3 °C 8,0 km/h (2 Bft)
20.10.2019 22:52 16,2 °C 64 % 1009,6 hPa 0,0 mm 2,6 km/h (1 Bft) O-SO 103 ° 0 min 0,000 mm 0,0 UV-I 0 W/m² 9,4 °C 16,2 °C 4,8 km/h (1 Bft)
20.10.2019 22:53 16,2 °C 65 % 1009,5 hPa 0,0 mm 1,5 km/h (1 Bft) O-SO 103 ° 0 min 0,000 mm 0,0 UV-I 0 W/m² 9,6 °C 16,2 °C 3,2 km/h (1 Bft)
20.10.2019 22:54 16,2 °C 63 % 1009,6 hPa 0,0 mm 0,0 km/h (0 Bft) O-SO 102 ° 0 min 0,000 mm 0,0 UV-I 0 W/m² 9,1 °C 16,2 °C 0,0 km/h (0 Bft)
20.10.2019 22:55 16,2 °C 64 % 1009,7 hPa 0,0 mm 0,0 km/h (0 Bft) O-SO 102 ° 0 min 0,000 mm 0,0 UV-I 0 W/m² 9,4 °C 16,2 °C 0,0 km/h (0 Bft)
20.10.2019 22:56 16,2 °C 63 % 1009,7 hPa 0,0 mm 0,1 km/h (0 Bft) O-SO 102 ° 0 min 0,000 mm 0,0 UV-I 0 W/m² 9,1 °C 16,2 °C 1,6 km/h (1 Bft)
20.10.2019 22:57 16,2 °C 64 % 1009,7 hPa 0,0 mm 1,7 km/h (1 Bft) O-SO 102 ° 0 min 0,000 mm 0,0 UV-I 0 W/m² 9,4 °C 16,2 °C 3,2 km/h (1 Bft)
20.10.2019 22:58 16,2 °C 64 % 1009,7 hPa 0,0 mm 0,1 km/h (0 Bft) O-SO 102 ° 0 min 0,000 mm 0,0 UV-I 0 W/m² 9,4 °C 16,2 °C 1,6 km/h (1 Bft)
20.10.2019 22:59 16,2 °C 64 % 1009,7 hPa 0,0 mm 1,5 km/h (1 Bft) O 90 ° 0 min 0,000 mm 0,0 UV-I 0 W/m² 9,4 °C 16,2 °C 4,8 km/h (1 Bft)
20.10.2019 23:00 16,2 °C 64 % 1009,6 hPa 0,0 mm 2,3 km/h (1 Bft) O 90 ° 0 min 0,000 mm 0,0 UV-I 0 W/m² 9,4 °C 16,2 °C 3,2 km/h (1 Bft)
20.10.2019 23:01 16,2 °C 64 % 1009,6 hPa 0,0 mm 0,9 km/h (0 Bft) O 90 ° 0 min 0,025 mm 0,0 UV-I 0 W/m² 9,4 °C 16,2 °C 3,2 km/h (1 Bft)
20.10.2019 23:02 16,2 °C 63 % 1009,6 hPa 0,0 mm 0,5 km/h (0 Bft) O 90 ° 0 min 0,000 mm 0,0 UV-I 0 W/m² 9,1 °C 16,2 °C 1,6 km/h (1 Bft)
20.10.2019 23:03 16,2 °C 63 % 1009,5 hPa 0,0 mm 0,0 km/h (0 Bft) O 90 ° 0 min 0,000 mm 0,0 UV-I 0 W/m² 9,1 °C 16,2 °C 0,0 km/h (0 Bft)
20.10.2019 23:04 16,2 °C 64 % 1009,5 hPa 0,0 mm 0,0 km/h (0 Bft) O 90 ° 0 min 0,000 mm 0,0 UV-I 0 W/m² 9,4 °C 16,2 °C 0,0 km/h (0 Bft)
20.10.2019 23:05 16,3 °C 63 % 1009,5 hPa 0,0 mm 0,1 km/h (0 Bft) O 90 ° 0 min 0,000 mm 0,0 UV-I 0 W/m² 9,2 °C 16,3 °C 1,6 km/h (1 Bft)
20.10.2019 23:06 16,3 °C 63 % 1009,6 hPa 0,0 mm 3,6 km/h (1 Bft) SO 135 ° 0 min 0,000 mm 0,0 UV-I 0 W/m² 9,2 °C 16,3 °C 6,4 km/h (2 Bft)
20.10.2019 23:07 16,3 °C 64 % 1009,7 hPa 0,0 mm 1,1 km/h (1 Bft) SO 135 ° 0 min 0,000 mm 0,0 UV-I 0 W/m² 9,5 °C 16,3 °C 4,8 km/h (1 Bft)
20.10.2019 23:08 16,4 °C 63 % 1009,7 hPa 0,0 mm 0,0 km/h (0 Bft) SO 135 ° 0 min 0,000 mm 0,0 UV-I 0 W/m² 9,3 °C 16,4 °C 0,0 km/h (0 Bft)
20.10.2019 23:09 16,4 °C 63 % 1009,7 hPa 0,0 mm 0,0 km/h (0 Bft) SO 135 ° 0 min 0,000 mm 0,0 UV-I 0 W/m² 9,3 °C 16,4 °C 0,0 km/h (0 Bft)
20.10.2019 23:10 16,4 °C 64 % 1009,7 hPa 0,0 mm 0,0 km/h (0 Bft) SO 135 ° 0 min 0,000 mm 0,0 UV-I 0 W/m² 9,6 °C 16,4 °C 0,0 km/h (0 Bft)
20.10.2019 23:11 16,4 °C 63 % 1009,6 hPa 0,0 mm 0,0 km/h (0 Bft) SO 135 ° 0 min 0,000 mm 0,0 UV-I 0 W/m² 9,3 °C 16,4 °C 0,0 km/h (0 Bft)
20.10.2019 23:12 16,4 °C 63 % 1009,7 hPa 0,0 mm 0,0 km/h (0 Bft) SO 135 ° 0 min 0,000 mm 0,0 UV-I 0 W/m² 9,3 °C 16,4 °C 0,0 km/h (0 Bft)
20.10.2019 23:13 16,3 °C 64 % 1009,7 hPa 0,0 mm 0,0 km/h (0 Bft) SO 135 ° 0 min 0,000 mm 0,0 UV-I 0 W/m² 9,5 °C 16,3 °C 0,0 km/h (0 Bft)
20.10.2019 23:14 16,4 °C 63 % 1009,7 hPa 0,0 mm 0,0 km/h (0 Bft) SO 135 ° 0 min 0,000 mm 0,0 UV-I 0 W/m² 9,3 °C 16,4 °C 0,0 km/h (0 Bft)
20.10.2019 23:15 16,4 °C 64 % 1009,7 hPa 0,0 mm 1,9 km/h (1 Bft) SO 134 ° 0 min 0,000 mm 0,0 UV-I 0 W/m² 9,6 °C 16,4 °C 3,2 km/h (1 Bft)
20.10.2019 23:16 16,3 °C 64 % 1009,7 hPa 0,0 mm 2,1 km/h (1 Bft) SO 134 ° 0 min 0,000 mm 0,0 UV-I 0 W/m² 9,5 °C 16,3 °C 3,2 km/h (1 Bft)
20.10.2019 23:17 16,3 °C 64 % 1009,7 hPa 0,0 mm 2,1 km/h (1 Bft) SO 134 ° 0 min 0,000 mm 0,0 UV-I 0 W/m² 9,5 °C 16,3 °C 4,8 km/h (1 Bft)
20.10.2019 23:18 16,3 °C 65 % 1009,7 hPa 0,0 mm 3,9 km/h (1 Bft) O-SO 103 ° 0 min 0,000 mm 0,0 UV-I 0 W/m² 9,7 °C 16,3 °C 6,4 km/h (2 Bft)
20.10.2019 23:19 16,2 °C 64 % 1009,7 hPa 0,0 mm 2,0 km/h (1 Bft) O 95 ° 0 min 0,000 mm 0,0 UV-I 0 W/m² 9,4 °C 16,2 °C 4,8 km/h (1 Bft)
20.10.2019 23:20 16,2 °C 65 % 1009,6 hPa 0,0 mm 3,6 km/h (1 Bft) O 89 ° 0 min 0,000 mm 0,0 UV-I 0 W/m² 9,6 °C 16,2 °C 4,8 km/h (1 Bft)
20.10.2019 23:21 16,2 °C 64 % 1009,6 hPa 0,0 mm 1,9 km/h (1 Bft) O 88 ° 0 min 0,000 mm 0,0 UV-I 0 W/m² 9,4 °C 16,2 °C 4,8 km/h (1 Bft)
20.10.2019 23:22 16,1 °C 64 % 1009,6 hPa 0,0 mm 3,8 km/h (1 Bft) O-SO 107 ° 0 min 0,000 mm 0,0 UV-I 0 W/m² 9,3 °C 16,1 °C 8,0 km/h (2 Bft)
20.10.2019 23:23 16,1 °C 65 % 1009,6 hPa 0,0 mm 2,4 km/h (1 Bft) O 101 ° 0 min 0,000 mm 0,0 UV-I 0 W/m² 9,5 °C 16,1 °C 6,4 km/h (2 Bft)
20.10.2019 23:24 16,0 °C 66 % 1009,6 hPa 0,0 mm 1,1 km/h (1 Bft) O 94 ° 0 min 0,000 mm 0,0 UV-I 0 W/m² 9,7 °C 16,0 °C 3,2 km/h (1 Bft)
20.10.2019 23:25 16,0 °C 65 % 1009,6 hPa 0,0 mm 1,9 km/h (1 Bft) O 94 ° 0 min 0,000 mm 0,0 UV-I 0 W/m² 9,4 °C 16,0 °C 4,8 km/h (1 Bft)
20.10.2019 23:26 16,0 °C 65 % 1009,6 hPa 0,0 mm 2,5 km/h (1 Bft) O 88 ° 0 min 0,000 mm 0,0 UV-I 0 W/m² 9,4 °C 16,0 °C 4,8 km/h (1 Bft)
20.10.2019 23:27 15,9 °C 66 % 1009,5 hPa 0,0 mm 4,7 km/h (1 Bft) O-NO 64 ° 0 min 0,000 mm 0,0 UV-I 0 W/m² 9,6 °C 15,9 °C 6,4 km/h (2 Bft)
20.10.2019 23:28 15,9 °C 67 % 1009,5 hPa 0,0 mm 5,0 km/h (1 Bft) W-NW 300 ° 0 min 0,000 mm 0,0 UV-I 0 W/m² 9,8 °C 15,9 °C 6,4 km/h (2 Bft)
20.10.2019 23:29 16,0 °C 64 % 1009,5 hPa 0,0 mm 4,4 km/h (1 Bft) N 355 ° 0 min 0,000 mm 0,0 UV-I 0 W/m² 9,2 °C 16,0 °C 6,4 km/h (2 Bft)
20.10.2019 23:30 16,1 °C 64 % 1009,5 hPa 0,0 mm 9,6 km/h (2 Bft) O-NO 70 ° 0 min 0,000 mm 0,0 UV-I 0 W/m² 9,3 °C 16,1 °C 17,7 km/h (3 Bft)
20.10.2019 23:31 16,3 °C 64 % 1009,4 hPa 0,0 mm 4,6 km/h (1 Bft) O-NO 74 ° 0 min 0,000 mm 0,0 UV-I 0 W/m² 9,5 °C 16,3 °C 8,0 km/h (2 Bft)
20.10.2019 23:32 16,4 °C 63 % 1009,4 hPa 0,0 mm 2,2 km/h (1 Bft) O-NO 74 ° 0 min 0,000 mm 0,0 UV-I 0 W/m² 9,3 °C 16,4 °C 4,8 km/h (1 Bft)
20.10.2019 23:33 16,5 °C 63 % 1009,4 hPa 0,0 mm 4,9 km/h (1 Bft) SO 129 ° 0 min 0,000 mm 0,0 UV-I 0 W/m² 9,4 °C 16,5 °C 6,4 km/h (2 Bft)
20.10.2019 23:34 16,4 °C 64 % 1009,5 hPa 0,0 mm 3,1 km/h (1 Bft) O 83 ° 0 min 0,000 mm 0,0 UV-I 0 W/m² 9,6 °C 16,4 °C 4,8 km/h (1 Bft)
20.10.2019 23:35 16,4 °C 64 % 1009,4 hPa 0,0 mm 3,0 km/h (1 Bft) O-NO 73 ° 0 min 0,000 mm 0,0 UV-I 0 W/m² 9,6 °C 16,4 °C 6,4 km/h (2 Bft)
20.10.2019 23:36 16,4 °C 64 % 1009,4 hPa 0,0 mm 5,6 km/h (1 Bft) O 92 ° 0 min 0,000 mm 0,0 UV-I 0 W/m² 9,6 °C 16,4 °C 9,7 km/h (2 Bft)
20.10.2019 23:37 16,3 °C 63 % 1009,3 hPa 0,0 mm 3,3 km/h (1 Bft) O-NO 72 ° 0 min 0,000 mm 0,0 UV-I 0 W/m² 9,2 °C 16,3 °C 8,0 km/h (2 Bft)
20.10.2019 23:38 16,3 °C 63 % 1009,3 hPa 0,0 mm 5,4 km/h (1 Bft) NO 48 ° 0 min 0,000 mm 0,0 UV-I 0 W/m² 9,2 °C 16,3 °C 8,0 km/h (2 Bft)
20.10.2019 23:39 16,4 °C 63 % 1009,3 hPa 0,0 mm 3,6 km/h (1 Bft) O-SO 113 ° 0 min 0,000 mm 0,0 UV-I 0 W/m² 9,3 °C 16,4 °C 4,8 km/h (1 Bft)
20.10.2019 23:40 16,5 °C 62 % 1009,4 hPa 0,0 mm 3,7 km/h (1 Bft) O-NO 69 ° 0 min 0,000 mm 0,0 UV-I 0 W/m² 9,2 °C 16,5 °C 6,4 km/h (2 Bft)
20.10.2019 23:41 16,6 °C 62 % 1009,4 hPa 0,0 mm 4,1 km/h (1 Bft) SO 136 ° 0 min 0,000 mm 0,0 UV-I 0 W/m² 9,3 °C 16,6 °C 8,0 km/h (2 Bft)
20.10.2019 23:42 16,6 °C 62 % 1009,4 hPa 0,0 mm 0,0 km/h (0 Bft) SO 128 ° 0 min 0,000 mm 0,0 UV-I 0 W/m² 9,3 °C 16,6 °C 0,0 km/h (0 Bft)
20.10.2019 23:43 16,7 °C 62 % 1009,3 hPa 0,0 mm 1,5 km/h (1 Bft) O-NO 60 ° 0 min 0,000 mm 0,0 UV-I 0 W/m² 9,4 °C 16,7 °C 8,0 km/h (2 Bft)
20.10.2019 23:44 16,6 °C 64 % 1009,3 hPa 0,0 mm 4,7 km/h (1 Bft) O 80 ° 0 min 0,000 mm 0,0 UV-I 0 W/m² 9,8 °C 16,6 °C 8,0 km/h (2 Bft)
20.10.2019 23:45 16,5 °C 63 % 1009,2 hPa 0,0 mm 3,2 km/h (1 Bft) O-SO 121 ° 0 min 0,000 mm 0,0 UV-I 0 W/m² 9,4 °C 16,5 °C 6,4 km/h (2 Bft)
20.10.2019 23:46 16,5 °C 62 % 1009,3 hPa 0,0 mm 3,5 km/h (1 Bft) O-NO 66 ° 0 min 0,000 mm 0,0 UV-I 0 W/m² 9,2 °C 16,5 °C 6,4 km/h (2 Bft)
20.10.2019 23:47 16,5 °C 63 % 1009,3 hPa 0,0 mm 1,1 km/h (1 Bft) O-NO 67 ° 0 min 0,000 mm 0,0 UV-I 0 W/m² 9,4 °C 16,5 °C 4,8 km/h (1 Bft)
20.10.2019 23:48 16,4 °C 63 % 1009,4 hPa 0,0 mm 2,5 km/h (1 Bft) O-NO 67 ° 0 min 0,000 mm 0,0 UV-I 0 W/m² 9,3 °C 16,4 °C 4,8 km/h (1 Bft)
20.10.2019 23:49 16,4 °C 63 % 1009,4 hPa 0,0 mm 2,5 km/h (1 Bft) O-NO 67 ° 0 min 0,000 mm 0,0 UV-I 0 W/m² 9,3 °C 16,4 °C 3,2 km/h (1 Bft)
20.10.2019 23:50 16,4 °C 62 % 1009,4 hPa 0,0 mm 0,7 km/h (0 Bft) N-NO 32 ° 0 min 0,000 mm 0,0 UV-I 0 W/m² 9,1 °C 16,4 °C 3,2 km/h (1 Bft)
20.10.2019 23:51 16,4 °C 62 % 1009,4 hPa 0,0 mm 0,1 km/h (0 Bft) N-NO 32 ° 0 min 0,000 mm 0,0 UV-I 0 W/m² 9,1 °C 16,4 °C 1,6 km/h (1 Bft)
20.10.2019 23:52 16,4 °C 62 % 1009,5 hPa 0,0 mm 0,0 km/h (0 Bft) N-NO 32 ° 0 min 0,000 mm 0,0 UV-I 0 W/m² 9,1 °C 16,4 °C 0,0 km/h (0 Bft)
20.10.2019 23:53 16,4 °C 62 % 1009,5 hPa 0,0 mm 0,0 km/h (0 Bft) N-NO 32 ° 0 min 0,000 mm 0,0 UV-I 0 W/m² 9,1 °C 16,4 °C 0,0 km/h (0 Bft)
20.10.2019 23:54 16,6 °C 62 % 1009,5 hPa 0,0 mm 0,0 km/h (0 Bft) N-NO 32 ° 0 min 0,000 mm 0,0 UV-I 0 W/m² 9,3 °C 16,6 °C 0,0 km/h (0 Bft)
20.10.2019 23:55 16,6 °C 63 % 1009,5 hPa 0,0 mm 0,0 km/h (0 Bft) N-NO 32 ° 0 min 0,000 mm 0,0 UV-I 0 W/m² 9,5 °C 16,6 °C 0,0 km/h (0 Bft)
20.10.2019 23:56 16,6 °C 63 % 1009,5 hPa 0,0 mm 2,0 km/h (1 Bft) NO 40 ° 0 min 0,000 mm 0,0 UV-I 0 W/m² 9,5 °C 16,6 °C 4,8 km/h (1 Bft)
20.10.2019 23:57 16,5 °C 63 % 1009,5 hPa 0,0 mm 4,8 km/h (1 Bft) O-NO 57 ° 0 min 0,000 mm 0,0 UV-I 0 W/m² 9,4 °C 16,5 °C 8,0 km/h (2 Bft)
20.10.2019 23:58 16,4 °C 63 % 1009,5 hPa 0,0 mm 2,4 km/h (1 Bft) O-NO 57 ° 0 min 0,000 mm 0,0 UV-I 0 W/m² 9,3 °C 16,4 °C 3,2 km/h (1 Bft)
20.10.2019 23:59 16,3 °C 63 % 1009,5 hPa 0,0 mm 1,4 km/h (1 Bft) O-NO 57 ° 0 min 0,000 mm 0,0 UV-I 0 W/m² 9,2 °C 16,3 °C 3,2 km/h (1 Bft)
_ Min-Zeit 04:46 11:13 17:50 - 23:55 - - - - - - 04:46 04:46 23:55
Minimum _ 4,7 °C 43 % 1008,0 hPa - 0,0 km/h (0 Bft) - - - - - - 3,8 °C 4,7 °C 0,0 km/h (0 Bft)
_ Max-Zeit 12:06 05:42 23:19 10:44 13:54 - - 23:59 14:00 11:58 11:52 15:11 12:06 11:06
Maximum _ 20,7 °C 97 % 1009,7 hPa 0,2 mm 10,8 km/h
O (2 Bft)
- - 0 min 0,178 mm 3,1 UV-I 564 W/m² 11,9 °C 20,7 °C 22,5 km/h
W-NW (4 Bft)
Durchschnitt _ 13,9 °C 71 % 1008,6 hPa #0,2 mm 1,7 km/h (1 Bft) O-NO - #0 min. #1,016 mm 1,4 UV-I 49 W/m² 8,4 °C 13,9 °C 3,3 km/h (1 Bft)